GFSSW_700_spd_000.txt.gz
Wind_Speed
12 12 11 11 10 10 10 12 13 13 11 11 10 10 10 11 13 15 17 20 29 26 22 20 17 14 13 16 14 7 12 15 15 11 11 5 5 2 8 7 6 9 7 8 7
10 9 10 11 12 12 15 16 16 15 13 13 13 12 12 14 16 18 17 17 21 22 20 18 17 14 11 10 9 9 9 6 4 5 6 5 2 4 6 4 6 9 8 10 12
10 11 12 13 15 17 19 20 18 16 18 17 17 18 17 18 19 21 23 24 23 20 16 16 11 11 8 5 3 3 2 1 2 7 10 10 7 7 5 2 6 7 12 16 19
11 13 15 16 19 21 23 21 19 20 22 21 19 20 19 20 13 19 20 22 25 22 20 18 13 10 4 8 6 3 1 5 11 10 4 2 2 7 10 11 10 13 15 18 16
14 16 19 21 23 23 22 22 22 22 21 19 18 17 17 18 22 19 20 19 20 22 22 19 10 8 8 3 1 5 7 6 6 9 16 9 9 9 5 1 6 6 14 15 15
18 19 22 23 23 23 22 22 23 21 20 19 19 20 20 18 20 18 14 16 17 14 15 15 9 7 5 3 3 4 2 5 5 7 12 16 8 7 7 6 4 7 12 12 14
19 21 23 24 23 22 22 21 22 22 22 19 16 16 17 13 17 17 15 16 14 15 18 14 8 10 10 6 5 7 7 8 10 4 6 8 7 3 10 11 8 9 12 12 11
20 21 23 23 22 21 21 21 21 19 17 16 16 15 12 9 10 15 16 15 16 19 16 13 9 7 7 5 2 6 8 10 17 3 5 11 15 16 9 10 11 13 16 14 11
18 20 22 22 21 19 19 19 19 18 16 14 13 11 10 9 8 10 12 14 15 16 13 10 7 6 8 8 4 7 5 13 10 7 6 10 21 19 10 12 12 14 14 12 11
17 18 20 22 22 22 21 21 20 18 14 11 9 7 8 5 7 6 8 9 12 11 10 4 2 5 7 7 6 10 10 9 1 7 15 19 23 16 9 9 7 9 13 13 15
17 18 19 21 22 24 24 21 17 13 10 6 4 5 3 4 2 4 5 6 7 6 5 2 4 4 7 4 3 7 10 10 10 12 20 13 15 7 14 12 11 11 6 9 13
16 17 19 21 23 21 18 17 12 9 6 6 5 4 2 1 3 7 3 1 2 3 1 3 3 3 7 5 5 10 14 10 14 15 15 10 14 8 7 8 12 12 7 6 4
15 16 17 18 16 15 9 12 11 12 10 6 6 4 4 2 4 5 4 1 5 1 1 3 1 6 10 9 10 11 14 14 17 19 3 15 5 8 8 12 14 14 11 9 11
12 12 14 14 12 9 11 12 11 9 5 4 5 4 6 3 5 8 6 1 2 2 2 2 6 12 7 10 12 13 12 14 18 13 5 16 4 7 9 12 15 12 14 16 12
9 9 10 9 9 11 13 11 7 6 4 3 5 4 6 10 5 7 8 4 2 2 2 2 6 12 12 10 10 18 19 19 12 5 4 16 3 3 11 15 16 13 14 13 15
8 8 9 9 9 13 10 6 7 3 2 3 4 3 3 8 9 3 7 7 5 1 3 7 6 7 11 10 14 14 18 8 1 2 2 4 17 2 15 9 13 11 9 11 17
8 8 7 7 9 10 8 11 7 4 4 3 3 2 3 6 7 5 9 9 10 4 7 5 2 4 10 18 6 18 20 8 4 4 4 13 12 8 12 13 6 6 9 15 14
7 8 7 7 9 8 9 8 4 8 7 4 4 5 6 3 8 5 6 9 9 10 6 5 4 9 12 15 13 13 18 5 1 0 8 9 3 5 7 21 18 12 16 16 21
7 7 7 8 8 8 9 4 5 5 3 4 3 3 4 5 3 2 8 9 13 14 7 8 2 7 11 11 8 7 14 7 3 3 2 7 3 8 9 19 19 9 29 21 25
8 7 7 8 9 9 9 7 4 4 3 5 5 5 5 2 1 3 5 6 8 13 11 6 8 6 10 2 6 6 10 5 7 2 3 7 14 15 13 24 19 34 34 36 30
8 10 10 11 11 9 9 6 3 5 6 6 5 3 1 2 1 4 2 3 4 11 10 10 6 9 5 3 6 5 6 8 6 5 3 2 8 19 31 19 37 34 30 27 28
10 10 12 12 11 8 7 6 6 6 5 4 4 4 3 0 3 2 1 5 9 13 11 10 5 12 9 7 6 2 10 20 9 7 21 22 29 21 9 36 32 21 17 29 30
5 9 10 9 8 7 7 5 4 3 3 4 4 3 3 2 2 3 2 6 8 11 12 11 6 7 1 4 3 14 19 25 26 14 15 10 12 26 29 31 29 23 27 33 34
9 9 9 7 7 8 8 7 5 4 3 2 2 2 3 3 2 3 5 4 7 14 16 14 10 10 10 13 15 23 27 27 27 20 25 33 38 24 26 22 23 23 29 34 36
7 9 11 10 9 7 5 4 1 2 3 3 3 2 3 4 7 10 11 10 13 15 15 14 17 18 23 20 20 29 31 28 31 27 28 28 30 36 30 22 27 35 38 40 44
8 8 9 10 9 9 7 7 5 4 5 5 6 6 8 10 11 14 17 18 22 18 19 21 22 20 28 26 22 31 30 18 15 17 27 36 35 26 30 33 33 37 44 43 49
8 7 7 7 8 7 8 10 9 8 7 10 12 14 13 14 18 19 20 20 20 22 22 26 21 13 11 18 21 26 11 19 23 27 26 26 33 37 38 37 39 45 47 49 45

GFSSW_700_spd_003.txt.gz
Wind_Speed
14 14 13 13 13 13 13 11 13 13 12 11 10 12 12 16 17 18 23 23 19 17 16 18 17 13 10 14 13 12 12 17 11 6 6 4 2 3 6 6 2 3 5 7 8
12 12 13 13 13 13 12 13 15 15 14 13 12 12 15 17 18 20 22 19 17 16 15 14 12 10 9 13 13 13 14 10 7 5 5 3 2 6 7 4 2 3 4 8 11
12 13 13 13 15 15 16 19 18 17 16 14 13 14 17 20 18 20 21 19 19 18 15 12 12 9 9 6 7 5 3 1 3 3 7 9 9 12 10 6 5 6 8 11 11
12 13 14 16 16 18 21 20 19 18 16 16 15 16 18 21 16 21 23 20 19 17 12 14 10 9 6 4 3 5 12 13 8 7 5 4 4 4 4 3 4 6 11 13 14
13 15 16 17 20 23 22 21 20 19 18 16 17 19 22 19 22 21 21 20 18 16 12 13 9 7 6 7 9 9 9 7 6 4 7 6 5 7 4 5 3 7 9 10 12
15 17 19 22 24 24 22 22 21 20 19 19 17 17 17 18 18 16 16 15 13 15 13 14 8 8 6 7 5 4 2 4 4 2 4 7 5 3 6 8 4 5 7 6 11
19 20 22 24 24 23 22 23 22 19 20 20 19 21 20 16 17 16 14 16 15 13 13 16 11 8 7 6 3 2 2 3 7 5 2 5 4 3 9 10 6 4 8 7 9
21 22 23 22 21 21 21 21 19 20 20 17 17 16 15 12 13 16 18 17 18 17 15 12 10 6 6 1 4 3 2 8 6 6 1 10 13 12 11 9 7 6 7 6 8
21 22 22 21 21 20 20 20 20 18 16 16 14 15 12 12 13 13 13 14 16 13 11 8 7 5 4 5 3 3 4 8 1 2 3 9 22 17 16 12 7 6 8 7 11
20 21 21 21 21 20 20 20 19 17 15 13 10 9 9 10 11 12 11 13 15 11 9 8 2 3 5 6 1 4 9 8 5 9 14 17 20 13 11 11 6 4 5 10 14
17 18 19 20 20 21 22 23 18 13 10 7 7 6 4 7 6 5 9 12 12 11 11 5 1 3 7 9 6 7 11 13 7 9 20 16 16 11 11 12 4 6 7 4 10
18 18 19 20 21 20 18 18 15 12 10 10 9 6 6 4 4 3 5 6 10 8 6 2 1 2 8 8 7 8 11 15 11 12 15 8 9 11 10 4 3 5 4 1 2
15 16 17 17 17 16 16 13 13 11 11 11 9 7 6 3 5 4 2 2 5 4 3 3 3 7 7 7 9 9 10 13 16 17 5 11 2 9 9 4 6 5 3 4 8
14 15 15 16 15 13 12 12 13 13 6 6 5 5 7 2 5 6 4 1 1 2 3 3 4 8 6 9 12 11 14 15 15 13 2 8 2 10 6 6 9 10 9 8 10
12 13 13 13 11 10 13 11 10 8 4 3 7 5 8 9 3 5 6 4 2 3 2 2 2 6 7 11 15 16 14 15 13 7 4 6 2 8 9 7 11 12 12 10 15
11 12 12 11 11 13 12 8 9 3 3 4 4 4 7 7 4 4 7 4 4 3 2 1 1 3 6 12 8 12 12 4 1 2 1 3 13 9 11 9 8 8 7 13 17
12 12 12 12 14 13 9 11 5 5 7 5 5 3 6 6 4 6 8 6 6 2 3 1 1 3 8 13 4 14 9 3 3 3 4 7 6 3 9 16 9 5 5 16 18
11 12 11 11 13 11 11 7 3 9 7 6 5 5 7 6 5 5 8 9 11 11 4 5 2 6 10 10 8 12 13 5 3 1 7 10 1 4 9 19 9 7 18 19 17
10 10 11 12 11 10 10 4 5 10 6 7 7 5 5 3 1 3 8 10 12 16 9 7 3 6 7 9 5 4 7 7 1 1 3 7 1 8 14 15 7 18 25 19 23
11 10 9 11 11 10 9 6 7 8 5 8 7 5 7 3 1 1 4 6 7 13 11 8 4 7 7 5 4 4 4 4 6 2 3 7 16 14 14 22 31 27 20 19 16
10 11 11 11 11 10 8 7 7 7 8 8 7 6 6 4 3 2 0 3 5 11 10 8 5 7 0 4 4 2 2 4 2 2 3 2 8 11 24 26 22 25 20 16 22
10 12 13 13 11 10 8 9 8 7 7 7 6 5 4 3 4 2 1 3 8 8 11 10 2 7 4 2 5 6 6 12 4 5 12 16 17 5 9 23 26 25 29 28 30
10 13 14 12 9 10 11 9 8 7 6 6 6 5 5 3 2 3 2 4 7 7 11 11 5 5 2 6 10 15 21 13 21 18 14 9 10 8 23 25 32 33 32 32 32
12 12 12 9 10 8 10 10 8 7 6 5 6 4 3 3 3 4 6 7 9 10 14 15 9 10 10 12 19 28 27 26 25 18 19 30 37 28 25 36 29 27 31 32 38
9 12 13 12 12 11 10 10 8 7 5 5 4 4 2 2 5 8 10 10 12 16 14 11 17 21 22 21 22 29 30 27 29 28 24 30 29 35 33 32 29 32 37 40 45
11 12 11 11 10 11 8 8 5 5 5 5 5 7 8 10 10 12 14 14 14 13 12 17 19 21 30 22 15 29 30 16 15 21 24 29 35 28 34 34 32 35 43 51 52
10 12 12 12 12 11 12 10 9 8 7 7 8 10 11 11 15 16 15 15 17 18 19 22 19 9 10 19 18 23 5 21 24 28 33 35 28 31 32 36 46 51 51 52 51

GFSSW_700_spd_006.txt.gz
Wind_Speed
16 17 16 15 16 14 12 11 12 12 12 14 15 16 16 17 16 17 19 16 15 14 17 18 15 15 14 15 12 12 16 12 7 5 5 3 2 4 7 3 3 1 1 4 3
13 13 14 15 14 11 12 13 14 14 15 16 16 17 18 19 18 17 18 14 11 10 12 14 13 11 14 15 13 10 11 7 4 1 2 2 3 7 8 3 2 2 4 7 7
13 14 14 14 13 13 15 16 17 17 17 16 17 19 20 20 19 18 15 16 14 11 13 13 10 8 10 10 10 9 6 5 4 2 5 6 7 10 8 3 2 5 12 13 12
12 11 12 14 15 16 17 19 18 18 16 16 17 19 21 20 14 18 16 15 14 10 9 9 8 5 3 7 9 15 14 9 8 4 4 3 1 3 4 4 9 9 10 11 12
11 12 14 15 17 18 20 20 19 17 14 14 17 21 22 20 14 18 16 14 14 9 6 8 5 4 3 9 15 11 8 5 3 3 3 2 2 3 4 5 3 5 6 7 9
14 15 16 18 18 20 20 19 18 17 15 13 14 18 19 9 14 16 14 13 11 9 6 7 9 11 11 12 8 6 3 3 1 3 1 2 2 1 6 7 2 2 3 4 5
16 18 19 19 21 22 21 20 19 16 14 14 16 17 16 14 15 14 12 12 10 11 8 11 12 10 9 8 5 4 2 2 2 2 5 4 3 2 7 7 3 3 0 1 4
18 19 20 22 22 20 20 19 16 14 14 14 16 15 13 11 11 11 14 13 11 11 11 11 8 5 3 3 3 2 1 1 3 2 3 7 8 6 11 14 10 6 4 3 6
19 20 21 21 20 20 20 17 15 15 14 14 14 13 10 11 11 12 12 12 12 13 14 9 6 3 5 3 3 1 1 5 3 2 4 8 20 16 12 14 6 7 7 8 8
19 20 20 20 20 19 17 18 17 14 15 15 11 8 9 10 11 11 11 13 13 9 6 4 2 2 5 7 1 5 7 9 8 13 13 16 19 14 12 9 3 5 6 9 10
18 18 19 20 20 20 21 19 18 15 12 7 9 7 9 7 5 5 7 10 12 9 7 4 2 4 7 8 6 7 10 13 12 11 18 16 12 8 5 8 6 4 5 6 9
16 17 17 18 18 17 17 16 14 13 11 10 10 9 9 6 5 3 5 8 10 8 6 4 1 4 6 7 7 9 11 12 9 11 15 8 3 7 8 6 2 2 2 5 6
16 16 15 13 13 13 15 13 12 10 12 12 12 10 7 5 5 4 2 4 5 3 2 2 4 6 4 5 7 9 7 13 14 14 7 8 2 3 3 2 4 4 2 3 6
13 13 13 13 14 13 12 10 12 13 7 6 5 8 6 3 5 8 5 2 1 2 6 5 2 4 6 9 12 11 12 14 13 10 1 8 3 10 4 2 5 6 4 6 8
13 13 14 15 14 11 12 10 12 9 4 5 9 6 8 4 3 7 6 4 3 3 3 3 1 4 7 9 12 10 13 15 11 5 2 3 1 3 8 6 6 7 6 8 11
12 13 14 13 13 12 13 11 11 4 4 5 6 7 4 8 7 8 7 3 3 2 1 1 3 3 4 10 11 13 13 5 3 2 2 2 10 4 4 7 8 4 3 6 15
13 14 14 14 15 15 12 12 5 3 8 7 6 6 6 7 6 7 9 3 3 2 2 1 2 3 6 9 5 10 7 3 3 4 3 5 6 2 3 1 2 1 7 12 16
14 14 14 14 16 12 13 8 3 10 7 8 8 6 5 4 6 7 7 10 11 7 4 4 1 4 6 9 7 10 10 5 2 1 6 5 4 5 4 1 2 8 12 18 22
13 13 13 15 14 12 12 3 5 11 10 9 10 6 4 2 1 4 8 10 10 13 6 6 2 4 8 3 4 4 5 6 1 2 3 5 3 7 18 10 10 20 24 21 16
12 12 12 14 13 12 10 5 10 10 10 8 7 4 5 3 1 2 4 5 6 11 9 7 1 5 3 2 3 2 1 2 4 2 3 7 13 8 17 20 26 31 24 18 14
12 12 12 13 11 11 8 7 10 10 8 8 6 5 6 3 2 1 1 3 6 8 8 7 3 4 2 3 2 2 2 1 2 2 3 2 6 9 17 23 26 25 27 29 29
13 12 14 13 12 10 8 10 9 8 8 6 6 4 5 3 3 2 2 2 4 6 9 10 3 6 7 5 3 5 4 7 2 2 8 11 19 18 12 23 30 28 36 34 29
11 12 14 13 10 11 10 11 10 8 7 7 6 5 4 4 2 3 3 4 6 9 10 12 5 6 5 4 5 8 12 20 16 15 12 8 12 15 16 28 29 29 26 28 32
11 12 13 12 9 9 12 11 10 9 7 6 6 5 4 3 2 2 4 5 10 11 13 15 6 6 7 14 20 26 24 26 25 17 17 30 35 29 23 27 26 28 28 30 36
11 11 14 13 12 11 11 11 10 9 6 5 4 3 1 1 3 5 7 8 11 14 13 9 11 15 19 18 20 25 26 25 24 28 25 30 27 29 34 29 29 30 34 45 45
9 10 13 13 13 14 11 11 9 7 5 4 3 3 4 5 7 10 12 12 9 10 12 17 14 20 25 18 16 30 31 20 8 20 27 28 34 33 28 29 26 33 47 49 46
11 10 12 13 13 13 12 10 9 7 6 5 4 4 6 6 9 13 13 10 14 18 16 17 16 14 17 21 20 23 5 12 25 22 24 32 31 30 30 34 33 42 52 51 48

GFSSW_700_spd_009.txt.gz
Wind_Speed
17 17 17 17 15 14 12 11 10 11 13 14 15 15 15 16 15 15 14 12 13 21 20 19 17 14 16 15 13 17 19 14 12 8 7 6 4 5 6 5 4 4 5 5 3
15 15 13 14 13 12 12 13 13 15 17 17 17 16 19 16 15 16 15 13 11 18 18 16 15 15 17 15 14 14 13 10 7 4 5 3 1 5 6 5 5 5 7 6 5
13 13 13 12 12 14 15 14 16 18 19 18 18 19 19 16 15 15 13 13 11 11 12 14 12 11 12 12 13 13 9 7 5 3 3 2 1 6 5 5 7 9 11 10 9
12 11 12 13 14 15 15 17 18 19 17 18 19 19 18 15 12 14 14 12 11 12 11 12 9 5 8 10 10 17 13 11 9 7 6 5 5 6 7 10 11 11 10 9 10
10 12 14 14 15 16 18 19 20 18 18 18 20 20 18 16 10 16 15 12 10 10 9 8 7 4 4 17 17 13 10 9 6 6 5 4 5 6 5 6 7 8 7 6 7
12 13 14 16 17 19 21 20 19 16 15 16 20 20 17 14 12 17 15 12 10 7 6 6 7 6 16 16 11 9 6 3 2 2 2 3 3 2 1 2 5 5 4 3 3
14 15 17 19 21 23 21 20 18 15 13 15 17 18 18 9 13 13 13 11 10 5 6 10 11 9 12 9 7 7 5 2 3 5 6 5 7 2 4 4 2 9 6 4 3
18 19 20 22 22 21 20 18 15 13 12 12 14 15 14 7 9 11 11 10 6 6 8 9 7 4 5 4 4 4 3 1 2 2 5 6 9 2 12 12 11 8 11 8 6
19 21 22 22 20 20 19 17 13 13 13 14 12 10 7 8 8 8 9 9 7 8 8 7 4 3 4 4 3 1 1 1 4 3 5 9 10 14 15 9 7 10 10 9 9
21 21 21 20 20 20 19 16 15 15 16 13 12 8 9 7 8 8 9 10 9 9 6 3 2 1 3 2 3 0 1 3 5 8 10 10 11 12 8 5 7 7 8 10 12
20 19 19 19 20 21 20 20 17 15 10 11 11 11 10 8 7 8 8 10 10 7 4 2 2 1 2 4 2 2 5 7 8 6 10 9 8 4 1 5 8 7 7 7 12
17 17 18 18 18 18 19 18 15 16 16 14 14 12 10 8 6 4 4 7 8 6 4 5 2 1 2 3 4 6 6 7 5 7 10 5 1 3 7 6 6 4 4 7 8
16 16 15 16 16 17 16 15 14 13 17 17 13 10 10 8 7 6 3 4 6 5 3 5 5 3 2 2 4 7 5 10 12 11 6 3 3 1 3 5 4 2 1 2 3
15 14 15 16 16 17 17 14 13 13 8 7 6 10 4 6 8 8 5 3 6 5 7 4 3 0 4 7 8 8 9 12 13 7 2 2 4 6 3 3 1 1 2 5 4
14 14 14 16 16 16 14 13 15 8 4 6 10 5 8 3 5 8 5 5 4 5 3 3 2 4 6 7 11 7 14 13 8 4 5 1 1 2 5 2 1 4 5 5 6
15 15 16 16 14 13 13 12 12 4 4 5 6 5 4 8 8 9 5 5 6 5 4 2 2 3 5 10 10 12 12 3 3 4 3 2 3 1 2 3 3 4 4 5 9
15 15 16 15 13 13 13 13 7 3 12 9 9 6 6 8 8 8 8 2 2 2 0 1 1 2 7 7 5 9 6 1 1 2 1 3 5 4 3 3 4 7 6 9 13
16 16 14 14 17 16 15 11 4 12 9 11 11 7 4 6 8 9 8 10 9 4 4 3 1 3 5 8 6 11 10 4 1 2 5 9 1 4 8 6 8 5 10 16 21
15 15 15 18 17 16 13 4 6 14 15 14 12 8 5 4 4 4 9 10 11 10 4 4 2 3 6 3 5 5 5 6 3 4 3 4 0 6 13 12 8 14 20 17 15
14 14 14 18 15 14 11 6 13 13 14 13 8 6 5 5 2 3 4 6 7 8 6 5 1 2 2 1 3 3 3 3 4 2 3 7 7 6 10 16 16 22 21 20 20
15 14 16 16 14 13 10 7 15 13 12 11 8 6 6 5 2 3 4 3 4 5 7 7 3 2 2 3 3 2 2 1 2 1 2 3 7 13 19 24 18 25 26 29 27
14 12 15 15 14 12 9 11 12 12 10 8 8 6 6 5 3 3 3 1 3 5 6 9 2 3 5 2 1 2 4 5 2 3 6 8 18 8 7 16 22 31 31 26 27
14 12 15 15 13 13 12 12 12 11 10 9 8 7 6 5 3 3 2 1 2 6 7 10 4 4 1 3 5 5 10 15 10 9 12 5 11 18 27 29 25 28 24 23 21
12 13 16 15 10 10 12 12 12 11 8 8 7 7 6 5 4 4 2 3 6 9 10 11 5 5 7 9 15 21 20 18 15 11 14 28 31 27 23 19 26 23 23 22 30
12 12 17 16 12 12 13 12 12 11 8 9 8 6 6 5 4 4 4 5 9 11 9 7 9 13 14 15 17 21 22 21 23 25 18 25 26 26 24 26 25 31 33 36 39
12 10 15 15 15 14 13 13 11 10 10 9 7 7 6 4 4 3 5 6 6 7 11 16 11 15 20 12 14 27 30 17 5 9 18 21 27 28 28 27 32 35 35 39 44
11 10 13 14 15 15 14 13 12 10 8 7 6 6 4 3 3 6 6 5 8 12 13 15 10 11 11 13 18 22 1 12 18 25 23 23 27 29 29 31 32 36 41 47 49

GFSSW_700_spd_012.txt.gz
Wind_Speed
16 16 17 17 15 13 12 12 12 11 11 12 14 13 13 14 13 12 12 13 24 21 19 16 16 19 18 18 18 15 12 12 12 10 10 10 7 3 6 7 5 6 8 9 9
15 14 14 14 13 13 13 13 14 14 15 15 16 16 17 15 14 14 13 15 23 21 19 15 14 14 13 12 16 10 9 9 11 9 9 7 7 4 7 6 5 5 6 6 6
12 13 13 12 15 15 16 16 15 16 17 18 18 18 16 15 15 15 14 13 20 18 16 14 13 14 14 15 16 12 9 10 9 10 10 8 5 6 7 7 7 7 7 7 7
12 12 12 14 15 16 16 16 18 18 18 19 18 19 16 15 8 15 14 13 15 13 14 14 10 10 9 10 13 13 11 8 9 9 8 7 8 5 8 7 12 12 9 8 6
10 12 12 13 15 16 18 20 20 19 19 19 19 19 16 14 12 17 15 13 14 12 11 10 9 7 8 15 15 12 12 12 9 8 7 9 8 7 8 11 12 11 8 7 5
11 12 14 16 17 19 21 22 20 20 18 18 20 18 16 9 11 17 16 13 12 9 7 8 10 8 15 19 11 12 9 6 5 4 5 7 6 7 4 5 8 9 7 5 5
13 16 17 19 20 22 23 22 20 16 15 17 18 16 16 11 10 16 13 11 9 6 6 8 11 14 18 12 11 10 6 4 3 8 6 4 3 4 4 3 3 11 10 9 9
17 18 20 21 23 23 22 20 15 13 13 15 16 16 12 9 11 13 12 10 7 8 9 11 11 10 11 10 10 8 5 5 2 4 4 4 7 5 8 12 13 9 15 14 12
20 22 23 24 23 23 22 17 13 13 15 15 14 11 9 7 8 8 10 9 9 9 10 8 6 4 6 6 5 4 4 3 3 4 3 4 4 9 17 14 16 18 16 17 16
22 24 24 24 24 23 21 17 17 17 16 14 13 7 7 6 7 8 10 11 11 10 8 4 4 4 4 3 3 3 2 1 2 5 7 5 6 12 11 7 10 14 16 18 18
23 24 24 23 24 23 21 21 19 18 14 10 10 10 9 9 8 8 10 11 10 8 6 4 3 4 2 2 4 2 1 2 4 7 2 3 3 5 4 8 12 11 12 14 18
21 21 22 22 23 21 21 20 16 19 18 16 15 12 10 9 10 9 10 11 11 8 7 2 2 2 1 0 1 3 3 2 4 4 5 3 2 2 3 7 10 8 9 8 10
20 20 21 22 21 20 20 16 17 18 16 14 13 13 11 9 7 9 10 11 11 9 7 6 5 4 2 2 3 6 2 4 5 8 4 2 3 3 5 7 7 4 4 7 9
19 19 19 20 21 21 21 19 18 16 8 9 7 6 7 8 7 7 6 7 9 9 10 6 6 3 1 4 4 4 6 11 9 4 5 8 6 3 6 5 5 5 7 8 8
18 19 19 20 20 20 20 19 19 8 3 8 8 6 7 6 8 7 7 7 7 9 5 4 4 0 2 5 8 4 11 10 6 5 4 4 6 4 6 4 4 8 9 8 7
19 20 20 20 21 20 18 18 15 3 4 6 8 7 5 8 9 9 7 7 8 7 5 4 2 1 4 8 7 8 9 3 2 3 5 2 4 6 5 3 2 10 11 11 12
19 20 21 21 19 19 16 15 6 3 13 9 10 9 7 10 10 9 7 5 4 4 2 3 1 2 4 4 5 8 3 3 2 3 1 3 5 3 5 8 9 11 12 13 13
20 20 21 20 17 18 17 16 4 9 8 14 14 11 7 11 9 8 9 9 6 5 4 2 2 2 5 4 2 8 7 3 3 2 4 4 4 5 9 9 11 12 12 14 18
20 20 19 18 19 19 19 7 4 12 16 17 13 6 6 5 6 6 8 10 7 6 3 2 2 2 5 4 5 4 4 4 2 4 3 2 2 7 10 8 12 12 16 19 17
19 18 18 22 20 19 14 7 12 13 17 16 7 8 6 7 5 4 4 4 6 8 6 3 2 2 2 4 4 2 2 2 3 2 4 4 10 10 9 8 17 19 19 21 24
19 19 21 21 18 18 11 8 16 18 15 14 8 9 9 9 6 5 5 5 5 4 4 4 1 3 2 2 2 2 1 0 0 2 3 4 8 7 5 12 13 17 24 30 29
18 16 21 20 18 17 12 14 16 16 14 12 10 8 11 9 7 6 6 5 3 1 1 4 1 2 4 5 5 5 4 3 3 2 5 5 14 10 3 16 21 23 28 27 30
16 17 20 19 15 17 14 16 17 16 14 11 11 10 10 10 5 7 7 5 3 3 4 5 2 2 2 4 7 5 5 10 13 9 11 7 7 12 20 21 20 21 25 30 28
16 14 18 19 14 13 14 16 16 15 12 11 10 10 10 9 6 7 6 4 4 5 5 6 4 4 5 7 10 10 11 11 11 10 14 22 25 21 18 19 19 20 26 26 28
17 15 19 20 15 14 14 15 16 15 12 12 11 10 10 9 7 6 5 4 6 7 5 4 7 11 12 13 19 18 16 15 20 22 18 20 20 20 20 22 27 27 26 28 33
16 14 18 12 16 16 16 17 15 14 14 13 10 10 9 7 6 4 4 5 7 6 7 10 8 14 16 14 17 22 26 19 9 13 18 19 22 16 27 30 28 29 32 33 41
15 13 16 14 18 18 18 17 16 12 12 11 9 9 8 6 5 4 5 7 8 9 10 10 8 9 8 12 25 13 4 6 13 15 13 15 15 25 24 24 27 34 38 42 42

GFSSW_700_spd_015.txt.gz
Wind_Speed
19 18 18 17 16 15 15 15 13 13 13 12 11 11 11 10 8 8 2 11 21 17 14 15 16 17 17 13 11 9 11 10 8 8 8 7 5 5 7 6 6 6 9 13 12
18 16 17 16 15 16 16 15 14 14 14 13 14 13 12 12 10 5 8 19 18 15 14 14 14 15 9 11 8 3 5 10 5 4 7 7 6 4 7 6 5 7 10 12 11
15 14 14 14 16 17 16 15 15 15 15 15 15 15 15 16 12 3 8 20 19 16 13 12 12 9 8 7 7 3 4 5 4 7 7 7 5 6 6 5 6 7 8 12 8
12 13 13 14 16 17 16 15 15 16 16 17 17 17 17 15 6 9 10 19 17 14 13 13 9 8 8 6 5 3 5 6 7 9 8 6 5 3 6 8 9 7 9 11 8
11 12 12 13 15 15 16 16 17 17 17 16 18 18 17 7 7 15 14 16 13 13 7 5 5 6 4 5 7 7 9 8 7 7 6 8 5 4 6 5 8 9 9 10 11
12 13 14 15 15 17 17 18 19 18 16 16 18 17 16 6 11 15 14 14 8 6 5 5 5 3 7 11 4 9 8 7 6 5 6 7 5 5 7 9 9 10 10 9 9
12 15 16 17 18 19 20 19 18 15 14 17 15 15 10 9 10 15 13 12 13 10 4 7 6 7 8 7 8 9 7 4 5 5 4 5 9 5 6 6 9 11 10 10 10
14 16 18 19 20 22 21 19 15 13 13 13 13 12 5 7 6 15 13 8 6 7 8 9 10 9 8 8 8 7 7 10 6 6 7 7 13 11 7 6 8 10 14 13 12
17 19 21 23 24 23 21 17 14 13 13 13 12 9 3 4 7 14 12 7 9 9 9 9 10 6 7 8 8 8 13 5 5 7 6 8 1 7 8 12 13 15 11 12 13
20 22 24 26 25 23 20 18 16 16 15 13 12 6 5 6 9 11 12 12 9 10 8 5 3 4 6 10 14 8 5 7 4 4 5 9 10 11 11 14 11 12 14 14 14
23 26 26 26 25 23 21 19 18 17 15 6 9 5 6 8 9 11 12 13 11 7 6 5 8 1 2 3 4 1 3 4 3 7 4 8 7 7 4 1 7 8 10 11 12
24 25 25 26 25 23 23 13 15 14 9 10 9 10 10 12 7 9 14 6 8 7 7 4 4 2 4 2 1 2 4 3 6 4 3 6 6 3 2 7 7 7 8 11 15
22 23 26 26 22 22 19 21 17 19 10 10 12 6 11 10 8 11 10 6 6 7 5 2 5 5 2 2 2 4 4 4 7 9 11 9 11 7 5 7 9 11 11 10 9
22 23 25 23 21 21 18 20 19 16 7 6 3 5 8 11 4 8 9 9 4 6 7 3 6 2 1 2 4 7 4 9 10 8 8 9 5 10 8 8 9 9 8 7 6
22 23 24 25 22 19 21 21 18 9 3 6 3 6 8 4 8 3 8 6 6 7 5 3 2 1 2 3 5 5 10 8 7 8 9 10 12 12 11 8 5 6 5 4 10
22 23 23 22 25 23 21 21 12 1 3 5 5 8 7 7 5 7 5 7 9 5 5 5 3 1 2 5 3 5 7 6 4 4 6 2 8 10 9 8 6 6 4 4 10
22 22 22 22 23 23 19 18 5 4 7 6 9 8 7 7 8 8 6 5 4 5 4 4 1 2 2 3 4 7 6 6 3 4 1 2 7 4 4 6 7 5 3 6 15
22 23 23 21 22 20 18 11 6 3 8 9 12 12 6 8 6 5 7 6 4 2 4 5 6 2 5 2 3 6 4 4 4 3 6 3 6 8 6 4 6 5 5 9 17
21 22 24 22 22 21 16 11 3 6 9 14 14 8 7 5 6 5 8 5 4 4 1 1 2 1 3 4 4 4 3 1 1 2 3 6 4 6 8 5 3 3 3 5 6
21 22 22 21 21 21 10 9 5 13 12 14 8 7 7 7 6 6 4 4 4 5 5 1 2 2 4 4 5 2 1 4 3 3 4 3 12 6 7 6 6 7 9 11 12
20 15 20 21 21 16 9 7 9 15 17 10 7 7 8 7 6 5 4 5 5 2 4 2 1 1 4 1 3 4 2 3 5 4 4 5 7 4 5 7 7 10 14 16 15
20 9 23 23 15 13 8 7 14 18 16 12 7 8 8 8 5 4 6 4 4 1 1 2 0 1 2 6 4 2 3 4 4 4 6 7 15 6 2 8 12 14 14 17 18
11 12 24 23 12 18 15 13 16 16 13 10 11 10 8 9 4 6 6 5 3 1 1 2 1 3 3 1 2 3 5 6 6 7 12 11 11 8 11 16 13 15 17 16 15
10 12 21 22 13 13 14 13 17 17 15 13 11 11 10 8 6 8 6 5 4 5 3 1 1 2 7 9 10 11 13 13 13 14 16 20 23 19 16 18 15 16 15 18 24
13 12 19 21 17 12 12 12 13 16 16 12 11 9 10 7 7 6 6 6 6 5 4 2 2 5 9 12 13 15 17 17 19 20 23 24 22 21 21 15 15 16 16 22 22
14 15 19 11 16 14 14 13 14 13 12 13 9 12 9 6 4 8 5 4 3 4 3 5 4 10 14 11 14 18 21 19 18 14 18 18 18 16 12 17 18 23 26 31 42
19 17 16 19 18 15 14 14 13 14 14 9 12 11 13 9 10 9 9 9 7 4 5 6 4 7 7 15 24 10 2 4 9 11 13 14 17 17 17 18 24 28 34 37 40

GFSSW_700_spd_018.txt.gz
Wind_Speed
24 22 21 19 18 17 17 16 15 14 14 12 11 10 8 6 6 7 1 5 12 15 12 12 16 17 20 9 5 7 13 10 9 9 10 7 6 7 6 3 4 6 2 14 8
22 20 19 18 18 17 16 15 14 13 12 12 12 11 8 9 9 3 4 10 15 13 12 14 12 13 9 3 5 6 8 12 9 9 8 6 5 3 7 4 5 6 8 14 12
19 17 17 16 17 17 16 14 13 13 12 13 13 12 14 15 9 4 7 17 13 10 12 11 7 11 6 7 6 3 9 8 9 5 5 7 3 7 6 3 5 7 12 7 11
16 15 15 15 16 16 16 14 13 13 14 15 15 15 20 9 5 3 13 16 12 11 14 11 12 7 7 9 7 1 3 5 7 13 7 5 5 4 4 10 7 8 10 9 7
14 12 13 13 14 15 15 14 14 15 16 16 17 18 18 11 5 10 16 15 11 11 13 4 5 6 6 6 5 3 5 7 8 12 8 7 5 3 6 9 9 8 9 10 7
11 11 13 14 14 14 15 16 17 17 16 17 18 19 12 4 9 12 16 13 5 3 1 7 2 4 5 9 5 7 7 8 7 6 5 9 4 6 7 7 9 10 6 6 5
10 13 14 14 15 16 17 18 17 16 16 16 17 18 6 2 8 8 15 8 13 7 4 10 6 7 5 4 5 8 7 6 6 4 1 6 8 7 10 9 8 8 8 8 6
11 14 15 16 17 18 20 19 16 14 13 14 15 15 4 8 11 15 7 2 4 6 3 6 13 4 2 6 7 7 6 7 8 7 6 7 8 13 9 6 7 9 9 11 10
13 15 17 19 20 22 21 17 15 13 13 14 13 8 1 3 9 10 13 6 6 6 9 10 11 4 4 6 7 7 10 8 7 7 6 8 10 10 5 8 10 10 12 12 12
16 19 21 24 25 23 20 16 15 16 15 14 14 3 1 4 9 11 10 11 5 9 8 5 4 6 6 7 3 14 8 3 6 7 4 7 9 5 6 9 14 14 15 11 11
19 23 25 26 25 23 21 19 18 18 16 2 9 2 2 7 10 10 13 11 8 4 6 3 7 1 5 4 6 7 5 3 8 2 10 9 11 8 9 5 4 8 11 11 15
23 25 26 27 25 25 23 13 11 11 7 11 11 10 10 11 6 7 12 6 6 7 3 4 2 3 5 7 5 4 4 6 4 8 5 6 9 10 2 4 6 8 10 15 19
23 25 26 25 25 25 12 10 15 16 10 9 9 4 10 8 8 6 11 3 6 5 5 1 4 3 1 2 3 5 4 4 4 10 13 13 12 11 6 8 10 11 12 12 18
21 24 25 23 22 19 15 20 17 18 8 6 4 3 8 7 2 6 12 8 5 4 5 2 1 3 1 1 3 6 2 6 9 10 14 14 12 13 11 10 11 14 17 12 10
21 24 25 22 21 13 16 23 18 8 4 8 7 9 9 3 4 2 9 7 3 5 5 4 2 2 1 4 4 5 11 9 8 10 11 13 11 21 15 13 11 10 10 11 10
21 23 24 20 22 20 22 23 10 1 4 6 5 8 6 4 4 5 6 9 9 5 3 5 2 1 1 5 5 5 8 9 8 8 6 12 3 6 8 13 12 9 8 5 2
19 21 24 21 23 20 22 17 1 3 7 5 11 10 7 6 6 6 6 6 2 6 4 4 2 4 3 5 3 8 8 8 3 5 1 2 3 10 10 10 10 7 5 6 5
21 22 23 21 21 20 18 9 5 2 6 8 12 11 8 7 6 8 7 6 3 2 5 10 7 1 5 3 4 5 4 4 4 4 6 5 4 11 10 8 13 13 7 3 4
21 21 22 21 20 19 19 9 0 2 7 10 13 10 7 5 6 7 6 3 2 7 4 1 5 2 3 3 5 4 4 3 3 3 3 7 10 11 7 6 6 4 2 3 5
20 20 20 19 21 20 14 9 4 6 6 12 10 6 7 7 8 6 4 3 2 6 7 2 4 2 4 6 6 6 3 3 4 2 3 11 9 7 5 4 5 4 2 6 10
20 18 18 20 21 21 8 7 7 9 11 12 7 7 5 8 5 6 4 4 6 2 5 6 3 1 5 3 4 3 2 3 4 3 2 3 1 8 5 4 4 8 10 13 12
18 7 11 20 21 18 8 8 8 8 15 14 7 7 7 7 6 5 8 6 5 6 2 3 4 3 3 5 2 2 1 3 1 4 5 6 16 14 2 5 8 11 13 10 8
17 7 11 22 12 18 12 8 8 8 8 6 6 8 8 8 5 8 8 5 6 4 5 5 2 1 7 2 3 2 3 6 6 9 10 9 9 8 14 18 8 7 8 10 15
9 7 18 26 9 16 9 8 13 14 14 8 7 7 9 7 5 8 5 7 5 2 3 4 2 2 1 5 7 10 12 13 15 14 16 18 20 20 18 17 6 9 10 17 23
9 7 20 25 13 10 12 8 10 14 8 9 6 6 8 7 7 7 7 4 5 4 3 4 4 3 6 7 8 12 15 15 16 19 20 22 20 17 14 9 11 11 21 27 32
9 5 15 6 16 10 14 11 12 9 9 11 7 9 9 7 5 8 6 3 2 3 3 3 4 7 10 3 9 19 17 12 11 14 15 14 16 12 13 16 19 27 30 34 38
15 12 13 16 14 15 14 9 12 15 13 9 10 13 13 14 16 17 14 13 8 3 4 5 4 6 4 11 19 2 4 6 10 12 12 13 15 17 12 17 23 33 34 37 31

GFSSW_700_spd_021.txt.gz
Wind_Speed
29 27 24 21 20 18 18 18 18 17 16 15 15 12 9 5 5 6 5 5 6 12 11 12 17 23 21 22 7 2 12 18 19 19 16 10 15 6 5 9 11 12 8 3 9
28 25 22 20 19 18 18 18 15 15 14 14 13 9 7 8 7 4 3 10 14 11 11 14 14 14 19 4 1 7 5 19 15 15 11 11 7 5 10 3 8 11 6 5 7
27 23 20 18 18 17 17 16 13 13 12 13 12 11 13 12 3 4 10 16 12 10 12 14 17 12 5 1 2 7 8 6 19 14 10 9 4 10 9 6 5 6 12 10 10
24 20 17 16 16 16 16 14 13 13 13 13 14 18 16 7 2 5 10 12 10 11 16 21 17 10 3 2 2 5 4 1 7 14 9 4 6 5 7 8 4 3 5 3 7
19 15 14 14 14 15 15 14 14 14 15 15 17 22 14 8 7 5 13 11 10 14 16 9 5 2 9 6 5 3 5 5 4 16 14 12 10 8 8 12 7 5 6 5 2
14 12 12 13 14 14 15 14 15 16 16 17 22 21 12 6 4 10 15 12 7 3 3 5 2 7 4 9 9 7 5 3 9 18 16 10 5 9 9 7 9 6 7 4 8
11 11 13 13 13 15 16 15 16 17 17 18 23 19 5 8 6 10 17 7 9 9 3 7 8 10 6 12 8 9 8 4 8 4 7 14 10 11 14 9 8 8 4 4 4
10 13 15 15 16 17 18 18 18 17 16 18 19 15 4 5 11 16 15 9 14 9 8 14 14 9 3 8 8 9 11 11 8 6 6 4 10 11 16 7 7 5 4 7 7
10 11 14 17 20 21 21 20 18 17 17 18 17 9 3 5 11 16 15 9 11 13 3 14 13 6 7 8 11 11 12 14 13 9 4 3 8 20 14 6 5 8 7 9 9
13 16 19 22 24 24 22 20 18 18 19 18 17 4 5 4 12 15 17 12 10 12 12 15 12 7 6 8 6 3 10 18 16 12 10 6 4 11 9 10 9 11 7 15 20
17 19 23 26 26 24 21 19 18 19 20 12 7 10 2 7 6 11 12 15 14 13 8 4 4 8 8 7 5 1 10 18 17 11 4 6 9 19 12 4 7 7 19 26 24
20 24 27 28 26 25 26 23 10 11 8 10 9 5 10 9 8 9 13 14 14 7 3 5 6 4 2 3 1 2 5 11 9 6 5 7 3 11 8 6 9 11 12 16 23
24 27 27 25 27 22 12 18 18 11 9 12 6 8 18 13 6 14 17 10 5 3 3 7 5 3 8 2 6 5 4 4 5 7 10 7 8 10 8 14 14 11 13 14 18
25 27 26 25 26 11 15 21 22 17 8 10 10 11 12 11 11 12 13 11 6 3 8 3 2 5 6 2 1 3 3 7 9 8 6 9 2 15 16 16 17 16 15 17 21
23 26 25 24 23 15 19 21 20 5 3 10 8 6 11 5 3 5 13 11 2 1 7 5 6 5 4 2 4 3 7 8 7 7 8 6 9 17 19 17 16 16 15 16 18
22 25 23 22 22 18 16 20 11 5 4 8 5 10 8 7 4 2 12 10 6 5 4 6 3 2 3 1 7 5 7 9 9 7 3 11 2 16 16 16 16 16 16 16 15
22 25 24 22 21 17 23 13 1 1 10 6 13 10 7 8 6 8 11 10 4 6 5 10 3 7 4 2 6 7 10 4 2 1 2 7 10 5 10 15 15 15 15 14 12
22 24 24 19 18 19 22 10 2 5 5 10 14 11 9 10 13 8 7 8 9 8 11 11 3 1 5 6 1 7 8 4 1 1 5 8 6 9 13 15 12 11 10 10 7
22 23 23 21 17 19 20 7 3 5 9 11 12 12 11 6 8 6 11 4 5 7 5 11 5 4 3 5 4 5 7 6 3 5 3 6 15 8 2 2 8 6 4 2 7
20 19 19 20 18 20 21 8 1 5 7 13 14 12 10 10 10 6 4 1 3 7 8 9 7 2 8 7 11 8 6 4 4 2 2 4 10 3 9 9 9 0 5 6 11
20 18 19 19 21 21 18 6 4 11 14 15 13 9 6 12 9 10 5 6 8 6 6 12 6 8 5 5 5 4 2 3 1 1 4 1 3 11 4 4 6 7 12 13 17
19 16 16 20 21 22 14 4 8 7 15 13 7 10 7 12 5 7 11 8 8 10 7 8 9 8 5 4 2 2 1 1 2 2 1 2 9 14 8 9 9 12 15 19 23
19 12 12 20 21 22 10 8 5 6 14 12 13 11 6 12 6 7 11 8 11 7 8 11 9 8 3 1 2 4 1 6 8 10 11 5 7 14 15 19 19 21 25 19 22
18 12 12 19 16 20 10 10 13 12 12 10 9 13 11 10 8 11 11 11 8 6 7 9 10 6 7 4 5 6 8 8 11 10 13 18 18 18 13 9 4 12 17 21 25
12 11 12 25 17 18 12 5 11 16 13 13 8 10 12 9 7 9 8 9 8 7 8 9 11 10 8 6 8 9 11 13 15 15 16 19 10 6 12 15 13 15 17 20 25
12 15 13 17 18 17 16 12 11 5 8 9 5 9 11 12 12 10 8 4 5 8 9 10 7 7 4 6 7 14 8 4 1 3 7 6 9 14 16 17 21 22 24 26 39
9 11 18 11 22 15 12 15 13 14 9 11 10 15 15 15 17 16 13 11 9 8 9 6 6 4 3 6 11 4 5 7 9 12 14 13 15 20 25 29 27 24 27 35 41

GFSSW_700_spd_027.txt.gz
Wind_Speed
32 30 30 30 29 28 24 21 19 15 14 15 15 16 15 15 16 14 8 9 8 8 10 11 14 16 18 19 17 15 10 9 9 14 15 11 13 16 11 6 6 2 3 6 6
30 30 30 29 28 26 22 20 17 16 14 14 14 14 14 13 11 7 7 6 7 10 12 13 14 18 19 24 21 11 8 5 12 22 18 20 23 17 10 4 4 4 5 7 9
29 29 29 27 26 23 20 19 17 15 14 13 13 12 11 9 6 1 3 10 13 12 15 18 18 19 21 25 16 6 1 6 21 17 9 22 14 6 4 1 1 3 4 3 9
28 27 27 25 23 19 17 17 17 14 12 13 12 12 12 11 5 9 15 13 13 16 16 15 17 17 20 12 5 6 12 13 17 20 18 14 11 8 5 2 3 6 7 4 6
27 24 24 21 18 15 15 15 16 14 12 13 14 15 15 10 11 12 13 8 5 9 9 7 7 11 11 5 9 14 12 8 12 12 14 12 10 4 4 5 2 2 5 6 5
24 22 19 17 14 13 14 15 16 14 14 15 16 18 15 13 13 13 13 12 12 10 9 10 6 1 5 8 13 14 12 11 17 16 12 11 10 4 5 6 2 2 5 6 9
20 18 16 15 14 13 14 15 15 16 16 18 20 19 14 13 12 14 13 15 12 8 8 8 5 5 6 19 13 10 9 13 16 17 15 11 7 8 6 3 3 7 6 6 5
16 14 15 14 12 14 16 16 16 18 19 20 22 15 13 14 12 14 13 11 9 7 7 7 8 13 14 18 12 8 5 11 17 14 13 11 10 9 8 10 5 5 4 6 9
11 13 11 11 13 16 18 18 19 19 20 22 21 12 11 15 13 13 10 8 7 3 2 7 8 16 16 15 10 8 5 5 6 10 9 12 2 14 15 12 6 7 8 9 12
8 9 10 12 16 19 19 19 19 19 19 23 17 11 7 11 15 15 8 8 8 7 7 8 8 7 6 3 5 8 10 12 13 8 11 8 8 7 20 15 11 11 11 13 16
9 12 14 16 18 20 21 20 18 16 22 23 15 4 10 11 15 16 12 11 10 8 11 12 7 4 5 4 6 5 10 14 10 15 15 11 11 11 21 19 16 17 18 19 20
14 15 17 22 24 24 21 18 17 17 21 18 14 10 9 9 8 19 14 13 13 13 13 7 6 5 5 4 4 3 3 13 13 11 10 8 11 15 25 24 20 21 23 25 27
16 20 24 26 26 24 18 18 17 15 16 13 11 12 8 7 11 18 14 16 17 10 7 4 7 7 7 4 4 13 12 17 14 10 4 8 13 14 17 19 20 18 19 20 22
21 26 29 28 26 24 21 21 20 15 9 12 12 11 8 8 9 16 17 14 7 8 7 8 10 10 9 7 2 10 12 9 6 7 6 11 4 8 13 16 16 16 16 16 17
27 30 31 29 25 22 20 21 17 12 3 14 11 12 10 11 12 18 13 10 6 14 8 8 8 7 6 6 5 5 6 4 4 3 5 3 5 12 17 18 18 17 14 13 11
32 32 31 31 23 21 21 21 16 3 3 12 11 17 15 9 13 18 12 9 11 7 8 11 7 6 6 6 6 7 7 7 6 3 2 2 5 17 26 25 22 18 15 12 12
34 32 31 26 23 21 21 20 8 4 13 12 15 18 15 11 11 21 16 14 11 14 14 9 4 3 8 8 4 4 8 3 1 1 4 1 3 5 24 20 19 17 14 13 8
34 31 33 26 23 22 24 18 6 7 14 13 16 18 14 14 12 19 17 13 12 8 13 7 4 5 6 10 5 3 3 4 5 3 3 1 1 2 18 17 19 16 15 15 11
34 31 33 28 24 24 23 15 1 10 11 21 21 18 16 13 11 15 15 13 11 10 7 7 5 4 5 9 8 3 3 4 5 3 2 2 3 3 5 16 20 16 12 16 27
32 31 30 29 25 25 19 8 4 8 21 21 23 15 17 16 14 16 13 11 13 11 13 10 7 10 8 7 7 6 5 1 2 2 1 3 6 6 18 18 16 18 22 22 19
32 32 30 29 26 24 20 5 6 12 19 21 21 16 11 17 15 13 13 8 11 13 14 13 8 11 10 5 7 7 2 2 3 2 5 1 5 12 14 19 17 17 17 16 16
32 31 30 29 27 26 24 7 6 6 18 16 18 8 10 16 17 14 11 8 9 13 13 14 8 13 9 8 7 6 4 3 1 3 4 2 5 11 10 14 17 19 18 17 19
31 29 29 29 29 30 26 10 8 9 10 14 11 11 12 20 15 15 14 11 8 11 11 13 9 10 5 6 10 8 9 7 5 4 7 2 4 10 13 16 18 20 22 24 25
30 25 30 30 29 31 22 14 11 10 11 13 12 11 15 16 12 10 12 9 9 11 11 15 11 12 13 5 10 11 12 11 10 8 13 19 17 14 18 20 22 24 25 24 23
32 23 32 33 30 28 21 16 13 8 12 13 14 14 15 15 12 11 10 10 10 12 11 13 10 18 11 10 10 11 13 15 17 17 15 17 19 17 22 25 25 24 22 23 25
30 22 28 13 28 27 25 17 15 13 12 12 12 15 14 14 14 9 12 12 12 14 12 14 8 14 13 14 15 17 18 19 20 22 21 21 22 16 18 19 23 23 24 26 27
28 24 24 21 28 28 31 18 11 12 15 12 9 11 12 11 10 8 7 7 8 11 12 14 13 9 8 14 15 16 22 24 19 17 16 19 17 19 22 23 24 25 25 26 29

GFSSW_700_spd_030.txt.gz
Wind_Speed
30 30 32 31 32 32 29 26 23 19 15 13 12 14 13 14 16 15 10 12 12 11 9 10 13 14 16 15 14 11 10 9 11 14 19 7 6 5 14 14 11 4 4 4 13
30 30 30 32 32 32 28 24 22 17 14 12 12 12 12 13 13 9 9 9 9 10 11 12 14 13 16 16 15 13 13 9 9 17 11 1 2 15 19 11 5 5 2 5 10
29 29 30 32 32 30 25 22 19 15 13 13 13 13 11 10 5 4 6 8 9 10 12 13 15 18 17 21 17 9 9 11 12 17 19 18 16 17 11 3 2 3 5 11 12
28 27 30 31 31 28 22 17 15 14 13 14 13 12 9 6 5 4 7 11 8 7 10 12 12 13 15 23 17 7 3 6 21 15 13 16 14 18 8 2 5 11 8 7 9
26 26 30 29 28 23 17 14 12 13 14 13 12 11 9 11 9 10 11 8 6 7 9 8 8 8 12 14 7 7 9 5 19 12 12 15 11 5 5 3 2 8 12 11 8
25 27 29 27 24 17 13 12 12 13 13 12 12 12 15 14 12 15 11 12 13 10 9 11 9 9 9 10 5 12 10 12 16 14 12 10 10 5 5 4 1 8 12 17 17
24 27 27 23 19 13 13 11 12 14 13 13 13 17 18 14 16 16 16 15 12 11 12 10 4 5 10 12 8 11 11 14 17 15 13 11 9 7 4 3 7 9 12 12 12
22 26 22 19 14 11 11 11 14 15 14 15 16 20 15 12 14 14 14 13 10 9 12 9 5 8 12 15 14 9 7 13 13 15 12 10 6 6 3 4 7 8 10 8 8
21 22 16 14 10 10 11 14 15 15 15 16 21 16 12 13 12 13 13 12 8 6 7 6 7 9 16 17 14 9 8 5 13 12 11 12 1 7 7 7 4 6 7 10 11
19 17 12 12 11 13 14 15 15 16 18 20 20 13 11 13 14 14 10 9 6 4 4 6 9 15 15 12 9 9 8 6 7 10 7 7 11 8 8 13 11 10 11 13 13
16 13 12 13 14 15 15 16 16 16 19 21 18 8 10 12 18 17 11 10 8 8 6 10 11 10 8 7 4 3 5 9 10 14 10 13 11 10 12 18 17 15 15 17 16
14 13 14 15 16 17 18 17 16 14 18 19 16 10 9 12 18 17 14 11 9 7 12 11 12 8 7 4 4 2 3 1 7 10 14 14 14 14 14 18 20 18 18 21 22
15 15 16 17 20 21 20 18 14 12 16 17 12 10 8 9 11 22 17 12 9 10 9 8 7 7 4 5 2 5 6 10 9 10 8 9 11 11 14 18 21 20 23 24 25
18 19 21 24 25 23 18 16 14 13 11 12 12 12 9 7 9 16 16 11 12 9 6 6 6 4 5 4 3 9 8 5 6 6 4 8 6 12 14 19 22 23 21 16 14
22 24 26 27 25 21 17 17 14 15 3 12 14 12 9 8 9 13 13 10 13 11 10 7 6 5 6 6 5 7 8 7 6 5 5 8 5 10 14 16 17 18 15 11 8
26 29 31 29 24 20 18 18 15 7 3 13 15 15 12 9 13 15 11 12 12 11 8 9 9 6 6 6 6 7 8 7 5 3 2 4 8 9 18 20 19 17 13 11 11
30 32 31 29 23 20 20 19 10 4 11 13 18 17 13 11 12 16 12 16 12 12 11 9 6 7 8 8 5 5 6 0 1 1 4 3 6 11 15 19 18 16 15 14 13
34 34 31 28 23 21 21 19 6 4 15 14 17 17 13 12 10 17 14 15 13 9 15 9 4 6 7 9 4 4 8 5 5 3 3 3 5 5 9 20 17 16 16 18 13
36 34 33 28 23 22 21 19 3 6 11 18 16 19 14 11 10 18 17 14 13 10 10 8 6 6 7 12 7 5 4 5 2 1 1 3 6 8 8 21 19 23 23 17 13
37 34 34 29 23 23 23 18 5 8 12 17 21 17 16 14 11 13 17 14 13 12 14 7 5 7 6 8 9 7 6 2 2 2 3 4 7 12 9 13 20 23 20 15 17
37 35 34 31 25 24 25 19 6 8 19 22 16 16 14 16 12 14 12 8 13 12 13 12 10 9 8 5 8 9 5 3 3 2 4 1 5 8 12 12 12 14 16 18 19
39 37 35 33 28 28 28 16 7 9 17 22 17 11 11 20 15 16 12 13 10 11 13 13 9 8 14 9 10 9 8 7 3 4 4 2 7 7 9 12 14 15 18 20 22
40 36 35 33 31 30 31 13 6 9 12 19 19 15 9 17 17 17 14 12 9 10 11 14 8 7 5 10 14 12 12 10 8 5 8 4 5 5 9 12 15 20 21 24 25
36 30 35 34 32 32 31 20 8 9 11 13 14 13 11 15 18 14 16 13 11 11 13 15 12 11 15 5 10 15 15 14 13 7 7 17 20 18 16 14 16 20 23 25 25
36 30 39 37 35 33 31 18 12 10 9 10 11 12 12 15 14 10 12 13 11 11 12 12 13 16 15 11 10 13 15 16 18 18 16 21 22 15 16 17 20 22 25 27 27
35 29 35 15 33 33 29 23 17 16 9 10 12 13 14 10 10 9 9 11 11 12 13 13 10 13 16 16 14 17 18 20 22 25 26 25 25 18 15 15 18 18 20 24 26
33 28 29 32 33 34 31 25 20 18 12 10 8 12 15 12 11 9 8 8 8 11 11 13 11 10 7 14 17 19 25 26 28 29 27 26 18 18 18 18 18 19 20 23 26

GFSSW_700_spd_033.txt.gz
Wind_Speed
29 28 27 28 30 30 29 29 31 25 21 16 12 8 9 11 11 11 8 14 14 12 10 12 14 13 13 19 19 12 9 11 13 13 9 8 4 3 3 7 9 9 5 3 13
29 28 28 28 29 30 29 29 30 23 18 15 11 7 8 9 10 10 11 10 12 10 12 12 13 13 14 16 17 15 12 10 5 6 10 12 5 7 10 8 14 10 6 10 17
28 27 27 27 29 30 30 30 27 19 15 14 11 9 9 10 6 8 6 8 8 9 9 10 11 13 15 17 18 10 10 7 6 12 8 6 17 7 8 10 5 5 5 10 19
28 26 26 26 28 29 30 27 22 16 15 14 12 10 10 7 6 6 5 5 7 6 7 10 10 12 14 16 16 10 7 8 8 5 20 16 19 9 6 5 7 8 5 15 18
26 25 24 26 28 27 27 23 18 14 14 12 12 10 9 9 7 7 9 8 6 5 5 5 7 10 10 13 11 8 3 2 18 14 17 14 13 9 9 5 5 12 16 14 16
24 23 24 26 27 25 22 18 14 13 12 12 11 9 10 13 12 13 10 9 9 10 8 9 10 7 13 13 7 6 5 7 19 16 18 14 13 11 10 7 8 18 20 18 16
23 24 24 25 24 22 18 14 12 11 11 11 10 11 16 13 16 14 11 11 9 10 8 10 8 10 12 9 4 9 7 11 16 14 16 16 13 6 8 9 13 17 16 18 18
22 24 24 23 20 17 14 13 11 12 12 11 12 16 15 15 19 14 14 12 10 8 10 9 10 11 10 10 14 10 9 14 13 13 15 15 10 8 7 10 12 7 9 11 12
22 24 23 20 15 14 12 13 13 13 12 12 16 18 15 16 17 14 13 12 8 6 6 7 9 10 14 18 14 10 7 12 13 12 12 11 5 10 8 12 13 8 6 6 9
21 24 20 17 11 14 12 14 13 14 14 15 19 15 13 14 19 15 14 11 9 3 4 9 6 10 19 15 9 10 9 9 11 14 13 11 9 6 5 11 12 13 11 10 9
21 22 18 14 11 14 13 14 14 15 16 16 19 10 12 12 20 17 13 12 6 3 3 7 9 13 13 10 6 6 7 6 10 10 13 8 9 8 5 6 15 15 14 13 14
21 19 17 13 14 13 14 14 13 10 13 18 20 9 10 14 21 18 14 11 5 4 6 9 10 11 10 8 5 5 4 2 8 15 14 13 11 10 8 10 14 20 18 17 16
21 18 17 13 15 15 16 15 12 8 13 17 15 14 6 9 20 21 19 13 7 8 11 12 12 10 8 7 5 4 3 5 5 8 11 10 11 12 13 12 15 22 21 20 20
20 20 17 18 18 21 17 14 11 9 11 18 12 11 9 10 14 23 20 13 9 11 11 9 11 9 6 5 3 4 4 3 6 7 4 9 6 13 15 15 16 21 22 21 20
22 22 21 22 26 21 16 14 12 15 3 14 13 12 11 11 12 18 20 12 12 14 10 9 9 7 6 3 2 3 4 5 5 7 6 9 5 14 18 20 21 22 23 19 14
26 26 27 29 25 19 16 16 13 7 4 12 19 15 13 11 13 16 18 14 14 13 10 12 10 7 3 2 3 3 6 6 5 3 2 9 9 11 16 19 23 22 19 15 12
30 29 31 32 26 21 18 18 9 6 8 13 20 18 14 11 15 17 16 16 16 14 12 11 8 5 5 6 5 5 6 1 1 0 3 7 7 17 10 11 14 17 17 16 15
33 35 37 33 27 22 20 20 6 9 13 13 19 19 15 13 14 17 14 18 15 11 14 9 4 6 7 10 5 6 10 5 4 3 1 6 6 6 8 11 11 13 15 17 18
38 40 39 36 27 24 22 22 9 6 15 16 20 20 16 15 12 19 17 15 14 11 8 9 6 9 7 10 9 6 6 8 3 1 2 5 8 11 11 9 15 19 20 19 17
40 42 39 36 29 25 23 19 10 8 17 19 21 21 17 15 11 18 17 15 13 12 10 7 6 9 8 9 12 9 5 3 4 3 3 3 8 10 4 6 14 20 20 20 17
43 41 39 37 29 27 27 25 15 10 15 19 19 18 17 17 9 15 15 11 14 12 11 11 8 8 8 8 10 10 10 5 4 3 3 1 5 3 2 6 7 11 16 15 15
45 42 40 36 32 29 30 27 12 11 18 19 17 15 17 18 12 13 11 12 11 15 13 14 9 9 14 9 9 11 11 9 5 5 5 2 7 3 3 4 11 13 14 16 19
43 38 37 36 35 30 30 26 13 13 18 23 18 12 13 13 14 13 13 10 11 8 12 15 10 7 4 10 14 15 16 14 12 8 9 4 4 4 10 9 9 16 20 21 23
42 31 39 37 33 33 30 26 14 13 15 20 20 15 11 9 18 11 15 14 13 12 12 14 16 12 14 7 8 19 21 18 16 10 11 19 20 18 15 14 11 13 18 22 24
42 30 41 41 37 34 28 26 14 14 13 15 15 17 14 10 18 16 17 17 15 14 14 15 15 18 17 14 12 13 14 19 22 22 19 23 23 18 17 17 14 15 19 22 24
39 28 36 17 36 31 30 25 19 14 14 14 12 13 13 11 13 16 10 11 13 14 15 16 11 13 16 18 17 18 18 19 22 24 28 29 30 21 17 15 15 14 16 18 22
33 25 27 31 36 34 31 30 21 17 12 10 11 14 13 12 10 8 9 11 12 14 14 15 13 10 8 13 16 17 26 26 27 28 29 31 27 23 19 19 17 17 16 16 19

GFSSW_700_spd_036.txt.gz
Wind_Speed
26 26 25 25 25 24 26 25 27 28 25 22 18 13 12 10 10 9 7 15 15 13 12 11 12 13 12 15 17 16 10 13 12 12 17 12 6 5 3 9 7 8 7 8 13
27 26 26 25 25 24 26 26 27 28 23 21 16 12 11 8 7 9 10 11 12 12 12 12 11 12 14 15 18 14 13 11 9 9 9 4 7 5 9 12 7 10 9 7 15
27 26 26 25 25 25 27 25 27 27 21 17 14 12 11 8 8 9 7 10 9 9 11 10 9 12 13 15 16 14 9 9 9 8 6 7 14 10 10 8 8 6 9 8 17
26 27 26 24 25 25 26 25 27 24 18 14 13 13 11 7 3 7 7 8 7 6 6 8 9 11 11 14 16 12 11 5 13 18 12 15 9 14 7 5 7 9 8 12 19
26 27 26 24 24 25 25 25 25 20 14 12 12 12 10 8 8 5 5 6 6 5 5 6 6 9 10 11 14 14 7 3 6 13 16 11 9 8 9 3 2 13 15 19 21
26 26 25 23 24 25 24 23 21 14 11 11 10 10 10 11 10 9 8 6 6 7 8 8 11 11 9 8 10 7 7 8 15 15 12 12 10 10 9 4 7 17 20 20 21
25 25 24 23 23 24 23 20 17 11 10 10 10 10 12 13 13 12 7 6 7 8 8 9 10 10 8 7 6 7 8 15 15 13 14 12 10 12 11 8 11 18 21 21 22
25 24 22 23 23 23 20 16 15 10 10 11 11 12 14 14 15 11 9 9 6 6 9 9 11 11 8 9 10 8 11 11 13 14 15 15 12 9 15 14 14 15 19 20 19
25 23 23 22 22 21 18 15 14 10 11 12 13 14 16 14 16 11 11 10 8 6 5 6 9 11 12 13 12 11 10 10 12 16 17 11 9 10 15 18 18 15 15 17 17
24 22 23 22 21 18 16 15 12 10 12 14 15 15 15 15 18 13 12 10 9 4 2 8 7 8 14 15 16 9 7 12 12 12 16 12 5 15 17 20 16 14 15 15 15
23 23 23 21 19 16 15 15 10 11 14 14 15 10 15 15 19 15 12 8 7 1 1 10 6 11 16 11 2 7 8 10 10 16 12 11 11 8 9 15 18 18 18 17 16
23 23 22 18 18 15 14 13 11 10 13 16 19 10 13 15 22 17 14 6 17 4 4 8 9 13 13 9 6 8 9 8 15 14 13 12 11 14 10 12 18 23 22 21 19
25 23 20 18 16 13 13 13 13 9 10 18 21 13 10 14 22 18 15 10 11 8 6 7 9 9 8 7 6 6 5 5 6 19 17 11 12 17 16 13 13 17 26 25 22
27 22 19 17 16 16 16 15 11 9 6 13 15 18 11 10 15 26 19 11 8 12 7 7 9 9 9 7 8 6 6 5 5 11 10 17 12 15 19 16 14 17 24 27 24
29 23 19 21 18 20 19 16 11 13 5 12 15 15 12 14 10 25 23 16 8 17 13 9 12 11 8 7 7 5 5 5 6 8 6 9 11 7 11 16 18 20 21 26 23
30 25 24 24 23 23 21 18 14 7 6 12 16 17 16 13 12 18 20 16 13 14 13 13 13 11 8 7 6 5 5 4 5 5 10 10 10 15 12 12 19 20 20 21 19
32 28 27 27 30 26 24 20 9 11 6 13 20 19 15 15 15 17 19 19 13 13 11 11 11 10 7 5 5 6 6 4 4 5 6 4 8 18 12 11 12 13 18 18 16
34 32 31 34 33 27 25 22 11 14 11 12 19 19 16 16 15 19 19 18 19 15 15 14 7 8 8 9 5 7 7 5 4 3 2 4 7 3 7 10 15 12 13 17 17
38 37 38 41 36 30 26 22 14 9 16 15 20 21 16 18 14 19 17 16 19 16 13 11 6 10 7 7 7 6 6 9 3 5 3 7 8 12 14 11 9 16 19 19 18
38 38 42 44 38 31 28 23 15 12 15 17 20 20 19 18 15 20 18 18 17 16 14 10 4 8 8 8 10 9 6 3 6 3 4 4 7 4 4 4 9 14 17 19 20
40 41 49 45 38 33 27 24 24 10 19 18 20 19 18 17 15 20 16 14 18 16 13 9 9 6 10 9 9 13 11 9 5 3 2 3 1 2 2 3 4 5 12 18 20
45 41 52 47 41 34 27 25 21 16 20 21 18 15 18 17 15 14 16 15 17 15 13 13 9 7 10 12 13 14 11 12 8 5 5 2 5 3 1 5 7 10 13 19 22
48 34 47 47 37 37 27 27 21 17 21 22 20 18 19 19 13 14 15 16 12 15 13 15 10 8 4 9 13 13 16 16 15 10 9 4 4 6 9 12 9 11 18 20 21
48 33 42 46 33 31 30 27 23 18 22 24 21 17 16 17 18 14 16 16 13 13 12 13 16 14 17 9 7 10 21 21 16 9 10 15 14 16 17 14 13 12 16 20 24
49 35 41 48 42 32 29 29 22 20 19 24 23 18 16 15 17 18 17 16 16 15 15 14 12 20 21 17 15 15 13 17 22 21 14 18 17 15 15 19 18 18 17 20 23
49 32 34 33 40 32 31 27 23 21 21 23 20 21 18 16 12 15 18 17 17 17 17 17 12 16 18 20 20 20 20 19 19 20 25 24 27 21 22 17 18 17 17 18 21
42 26 40 25 42 32 34 27 23 20 21 21 17 18 17 15 13 11 15 12 14 16 16 18 18 13 8 14 15 16 24 26 26 27 27 23 22 22 25 21 19 19 18 17 18

GFSSW_700_spd_039.txt.gz
Wind_Speed
25 25 24 25 26 25 26 26 26 26 27 27 25 20 17 13 11 9 7 13 15 14 13 11 11 11 11 11 15 12 15 20 15 14 14 10 11 7 6 8 9 6 5 7 8
25 24 24 24 25 26 27 27 26 26 27 26 23 17 14 12 10 8 10 12 13 12 11 9 8 8 11 12 13 16 15 15 6 13 10 8 6 5 8 10 5 8 9 7 6
24 23 23 24 24 26 27 26 26 26 26 23 18 15 11 9 8 7 9 11 11 10 8 9 9 10 12 12 14 16 15 10 9 3 5 6 9 7 11 8 5 7 7 8 9
24 23 22 23 23 25 26 26 25 26 24 20 14 11 11 9 4 11 9 8 8 7 7 8 9 10 10 13 13 12 15 7 7 9 7 9 10 8 8 3 5 7 9 5 12
24 23 23 23 23 24 25 25 24 25 20 16 11 10 12 11 10 10 7 2 4 3 3 8 8 8 8 10 10 15 6 8 4 12 8 6 7 5 2 1 3 12 8 14 17
24 23 23 23 21 23 24 24 24 22 16 12 9 11 12 11 12 7 4 3 2 3 4 9 7 8 7 8 12 11 9 6 8 8 14 9 8 7 6 1 3 9 15 20 21
24 23 23 23 21 22 22 23 23 18 13 11 9 11 13 12 11 8 5 2 4 4 8 9 11 7 3 5 10 7 9 7 8 10 12 8 8 6 7 4 8 15 18 18 20
25 23 23 23 21 21 22 22 21 15 11 10 10 11 10 14 11 11 7 3 3 5 7 10 10 11 8 8 6 8 8 14 7 12 10 14 12 9 9 10 13 16 17 18 19
26 24 24 22 20 20 20 20 18 13 11 11 12 10 9 13 14 9 7 4 4 4 6 7 9 10 7 6 10 13 12 13 12 12 11 13 16 10 13 12 13 15 17 18 19
26 24 23 21 19 19 20 17 15 11 11 12 13 8 10 8 12 10 7 6 5 3 3 5 7 7 9 14 15 14 14 15 13 14 14 9 7 11 16 15 16 16 17 19 19
26 24 24 21 18 17 17 14 10 11 14 13 6 12 10 10 18 12 8 4 7 4 7 3 6 14 16 15 8 5 8 13 14 12 14 14 9 14 18 18 17 17 17 17 18
28 25 23 20 18 17 14 11 12 13 11 15 14 16 13 14 14 13 11 7 14 9 7 12 11 11 13 9 5 7 8 9 9 11 13 13 13 14 16 19 18 18 19 20 20
29 26 23 20 18 15 12 11 12 10 8 10 15 16 12 14 17 15 14 10 12 14 8 12 6 10 10 6 6 7 6 5 7 13 12 11 17 18 17 15 19 20 20 20 22
31 27 24 21 16 13 11 13 13 8 5 12 21 18 14 14 17 17 16 12 8 14 8 10 9 8 7 8 8 12 7 4 3 14 21 19 21 23 21 22 21 21 23 21 21
33 28 25 21 16 15 20 17 13 10 5 11 18 13 11 13 6 21 18 13 11 15 12 4 6 8 9 4 10 3 4 5 9 15 10 13 12 24 19 19 19 19 18 21 20
35 30 28 22 19 22 23 20 15 7 11 12 20 18 15 14 12 13 24 15 10 8 14 10 7 7 4 10 6 6 2 5 8 12 11 18 20 9 17 15 16 16 18 19 21
37 34 28 25 23 28 26 22 11 12 8 14 21 20 18 14 14 15 22 20 17 14 16 12 10 10 7 5 5 6 9 13 7 5 9 2 8 18 6 4 10 14 14 18 19
39 36 31 28 30 33 30 24 13 13 16 8 20 19 19 15 15 15 19 23 22 19 17 17 10 13 10 11 6 9 12 9 6 7 7 4 9 4 7 8 7 13 13 16 18
42 40 37 31 36 38 33 28 19 11 18 13 17 22 20 17 13 16 19 23 20 21 13 20 7 12 10 7 6 7 8 5 6 7 8 16 12 7 9 10 8 12 16 16 17
45 41 35 36 43 40 35 31 24 15 15 15 21 23 23 19 16 18 18 20 18 19 16 6 4 7 8 7 9 9 4 4 7 3 7 5 8 4 3 6 8 13 16 17 17
46 41 37 42 48 44 37 32 22 16 15 17 21 18 21 19 19 19 18 13 17 17 19 14 13 5 6 10 13 7 11 9 6 5 4 4 3 5 2 5 8 12 16 18 19
48 36 44 49 52 48 35 29 20 17 15 16 18 17 19 19 19 17 20 17 17 15 15 15 11 13 12 11 13 11 11 12 10 8 7 5 10 4 3 2 4 9 15 18 20
49 35 33 51 51 40 30 28 26 19 18 19 18 19 18 18 16 17 17 19 14 20 16 13 12 15 12 11 14 13 13 13 13 9 12 5 5 3 7 11 9 8 13 17 20
44 35 38 60 45 36 35 30 28 20 18 19 18 18 16 18 18 15 15 18 20 18 20 15 16 15 17 13 5 12 14 15 17 14 16 19 16 11 11 10 10 11 13 17 20
44 42 48 56 54 41 34 30 29 23 18 21 20 19 18 17 17 13 15 14 17 16 17 15 13 15 19 13 10 11 12 13 19 23 23 20 18 16 15 15 15 15 16 18 21
46 43 36 40 45 31 34 32 31 24 21 23 20 21 18 14 15 14 16 13 15 19 18 18 12 13 12 14 14 17 19 19 19 21 23 25 25 20 21 17 16 15 18 18 20
40 39 39 31 52 32 32 32 31 23 22 21 22 22 19 16 16 11 14 13 11 13 16 11 12 10 10 8 8 14 21 23 23 22 21 23 23 18 16 16 16 15 17 17 18

GFSSW_700_spd_042.txt.gz
Wind_Speed
24 24 24 23 23 24 24 24 26 27 26 27 28 28 22 16 12 12 8 10 10 11 11 11 9 8 7 12 13 13 19 22 21 20 13 16 15 2 5 4 9 8 9 7 6
23 23 23 22 23 24 24 23 25 25 26 26 27 25 18 12 9 9 10 10 12 11 11 10 5 7 10 13 12 16 17 20 12 16 13 16 19 5 4 7 8 6 10 2 6
24 23 22 21 22 23 23 23 25 23 24 25 26 21 14 6 6 9 8 10 11 10 9 5 8 10 12 12 13 16 22 16 12 11 11 5 9 3 9 10 12 7 5 4 3
25 24 23 21 22 24 23 23 23 22 24 25 24 17 11 6 5 9 10 9 8 6 6 8 8 10 11 12 13 17 16 15 8 1 4 5 5 15 3 13 12 17 4 3 8
26 25 24 21 22 23 22 23 22 21 23 23 19 13 10 10 9 15 11 5 2 3 5 4 6 7 9 9 12 14 13 12 9 7 4 6 13 5 3 12 10 14 4 6 14
27 26 24 22 21 23 21 22 21 20 22 19 16 12 11 10 3 12 5 1 0 1 5 5 5 6 11 10 11 10 14 5 6 8 8 4 6 4 9 8 4 9 8 13 16
28 26 23 22 21 22 21 21 19 20 20 16 14 12 11 8 10 5 4 1 3 3 5 4 8 7 2 4 10 9 8 9 6 5 11 9 9 3 4 2 6 6 12 14 17
28 26 25 23 21 21 20 20 19 19 17 14 12 11 8 9 9 9 6 2 6 5 7 7 11 13 11 4 6 7 7 6 4 6 8 8 7 6 9 5 11 12 13 16 18
29 27 25 22 21 20 20 18 18 17 14 12 10 11 5 9 7 8 6 6 9 4 3 7 8 9 7 8 7 4 8 11 10 12 8 9 12 9 13 12 12 13 13 15 16
30 27 25 22 20 20 18 16 16 14 12 10 9 6 7 2 5 4 8 10 5 3 3 5 6 6 8 10 8 11 18 17 12 12 11 11 12 13 15 14 14 14 16 17 17
31 28 25 22 20 19 17 14 10 12 12 10 3 10 6 5 11 14 8 8 6 8 6 3 6 9 7 12 11 8 15 14 13 13 12 13 13 12 16 16 16 17 18 20 21
32 29 25 22 20 18 15 11 5 14 17 11 19 21 17 13 8 13 11 10 10 11 13 10 9 7 8 16 16 13 8 6 14 10 13 16 14 14 20 22 21 19 18 18 20
33 29 25 22 20 17 14 11 15 12 15 8 15 15 14 9 14 14 13 13 12 13 6 15 10 8 12 12 10 8 12 9 4 8 11 13 16 18 18 19 19 20 19 19 20
35 30 25 23 20 15 10 12 8 6 7 10 16 16 18 12 16 16 17 13 8 12 10 12 12 12 13 12 7 6 6 8 12 16 12 7 15 27 17 19 23 26 25 25 23
37 31 25 26 20 14 11 10 9 5 4 6 16 9 17 18 3 18 14 16 10 7 8 3 18 12 14 6 6 3 11 9 16 12 10 12 12 25 27 28 28 27 25 24 25
38 32 30 26 19 17 16 17 14 6 8 7 14 18 18 18 13 10 20 18 11 14 12 11 8 11 9 6 4 3 4 10 11 15 12 18 23 22 26 26 23 20 25 26 29
38 34 30 28 21 20 17 21 11 12 10 12 19 18 21 18 17 12 18 20 17 10 10 9 13 7 5 4 6 6 11 6 10 11 4 10 8 9 12 15 15 20 23 18 22
39 37 33 31 30 26 28 25 14 9 18 3 16 16 23 19 17 17 16 22 21 20 13 17 13 15 10 11 5 10 13 3 2 5 8 4 6 4 11 7 6 15 16 19 25
39 40 40 34 29 30 33 32 21 15 19 12 13 21 23 21 13 17 19 21 22 22 21 9 4 5 0 8 4 6 5 0 10 3 5 11 20 5 3 6 4 10 15 18 16
44 41 40 36 34 36 38 37 22 19 5 17 19 22 22 21 19 16 17 18 22 20 20 14 8 15 11 12 9 9 7 5 4 2 4 10 13 14 6 4 6 10 15 16 15
40 42 40 39 37 42 49 35 24 23 12 11 19 19 23 21 19 16 16 14 20 14 13 11 19 11 8 9 10 7 9 10 9 7 1 4 4 7 4 4 4 9 14 17 16
45 46 43 44 45 50 48 33 28 22 18 17 15 20 19 21 18 18 17 18 18 16 11 17 12 8 12 7 8 10 9 10 11 8 5 5 12 4 3 2 4 7 13 16 18
49 40 32 42 51 48 40 36 31 25 18 20 19 19 17 20 18 18 14 11 15 15 13 13 11 12 14 9 8 16 14 14 13 9 11 5 5 4 6 9 7 7 10 15 19
48 39 36 43 52 46 41 34 32 28 21 20 19 18 16 20 18 15 15 15 14 14 19 17 11 14 12 15 8 9 11 14 15 12 14 21 20 13 12 12 9 12 10 13 18
54 52 51 50 59 42 37 32 31 31 27 21 21 22 20 18 18 17 17 14 17 19 21 19 16 16 18 18 13 12 12 10 14 17 20 21 18 16 15 11 8 9 12 14 15
58 47 51 24 46 43 41 42 36 32 27 24 23 22 22 18 18 17 14 16 13 17 17 18 13 13 13 11 15 16 18 20 21 20 20 20 22 18 17 16 20 15 17 15 17
62 54 34 50 34 47 49 42 35 30 28 24 25 20 22 17 18 15 16 16 8 12 20 13 15 8 8 9 10 13 20 18 21 19 19 21 18 16 18 18 14 13 12 15 20

GFSSW_700_spd_045.txt.gz
Wind_Speed
23 22 22 23 22 22 21 22 22 24 24 23 24 25 25 21 15 9 8 9 5 5 5 7 8 7 6 8 9 8 18 26 23 22 12 8 15 19 22 5 12 13 12 6 7
22 23 23 23 22 22 21 22 22 23 24 23 23 24 23 18 8 8 9 9 8 7 7 7 7 4 10 7 4 10 16 23 18 17 17 16 13 5 5 7 15 13 12 6 2
24 24 24 23 22 22 21 22 21 22 22 22 22 24 19 12 6 7 5 8 10 8 8 8 9 5 11 12 5 6 22 15 18 15 11 11 11 12 9 11 14 10 9 5 6
26 26 25 23 22 22 20 22 21 21 21 21 21 21 16 8 5 4 4 11 10 6 5 7 7 6 4 7 5 16 17 18 19 2 7 4 6 7 1 4 13 12 9 5 11
28 27 25 23 21 21 20 21 21 21 20 20 21 18 14 8 7 15 9 8 4 3 6 5 6 4 3 6 13 13 15 12 5 0 2 8 8 5 6 2 8 25 6 10 11
29 28 26 23 21 21 20 21 20 21 19 19 20 16 13 6 9 10 3 2 3 2 3 10 5 1 14 14 10 12 15 10 5 5 10 8 5 4 6 1 2 4 13 12 13
31 30 27 24 21 20 20 20 20 20 18 18 17 15 11 6 10 9 2 3 0 1 4 11 4 9 5 9 6 4 7 8 6 8 7 4 3 7 10 7 4 4 10 15 15
33 31 28 24 22 20 20 20 20 18 17 17 15 13 6 8 11 10 6 5 9 11 5 4 6 13 12 9 3 4 6 2 4 7 9 5 10 10 10 5 6 11 14 16 16
33 32 29 25 22 20 19 19 20 17 16 14 13 10 7 6 5 6 6 7 7 8 12 6 7 9 10 5 5 3 6 7 9 7 6 17 9 11 13 3 7 12 23 24 23
34 32 29 25 22 19 17 19 19 17 15 11 11 5 2 7 1 9 4 1 4 7 5 7 7 2 3 7 11 5 8 9 14 12 16 14 6 14 15 11 6 7 10 15 14
32 32 29 25 22 18 17 17 18 14 13 11 10 12 15 6 6 10 7 6 7 6 6 4 8 5 6 11 5 4 8 7 16 9 12 19 12 19 15 16 11 9 10 10 9
29 31 28 24 21 17 17 14 20 22 18 13 17 18 20 16 14 11 14 12 6 11 9 8 7 5 9 8 16 16 18 20 21 16 14 13 16 18 16 19 17 14 12 12 15
27 29 28 23 19 17 17 12 17 19 21 11 14 16 21 12 11 18 13 12 9 16 8 10 16 6 14 10 15 10 11 6 6 5 6 12 16 22 19 18 19 19 15 18 22
26 29 28 24 20 17 17 11 13 12 12 11 12 14 24 15 12 19 16 12 11 11 12 6 13 16 19 14 13 13 7 2 1 1 7 8 4 7 22 24 25 22 23 23 21
27 29 28 26 19 19 16 14 9 6 4 1 10 4 17 19 2 19 19 20 16 10 12 11 9 20 19 18 6 5 7 8 12 17 22 9 1 16 19 25 22 24 29 27 25
30 30 31 26 18 16 14 13 13 5 8 9 10 14 15 17 12 16 10 15 16 8 12 11 9 5 8 8 8 5 3 9 9 5 4 15 16 7 22 26 26 22 25 28 27
33 32 32 28 21 23 20 18 12 8 6 12 16 16 19 14 17 13 19 20 22 12 8 11 15 6 8 9 7 6 8 2 4 7 6 16 11 22 12 21 32 30 29 28 25
35 34 33 28 29 25 25 24 13 8 16 5 20 15 21 20 15 13 16 23 20 19 16 13 9 5 5 8 8 8 6 4 4 2 7 16 9 5 9 8 17 23 18 27 28
39 38 40 31 30 27 31 32 16 16 21 7 16 18 18 18 19 17 19 21 18 22 23 9 15 14 9 5 8 8 2 7 4 6 3 7 3 10 13 12 6 17 25 28 31
46 42 44 34 33 34 38 41 27 23 13 16 16 20 19 20 22 23 22 19 23 24 19 20 9 11 9 21 9 7 7 6 4 3 3 5 7 11 9 5 5 15 19 18 17
47 45 43 38 37 40 52 43 29 30 17 6 14 16 20 22 22 25 18 18 17 21 26 17 10 5 9 19 12 13 12 9 9 4 4 1 1 5 5 5 0 4 8 8 9
49 48 38 43 45 52 58 51 29 35 23 19 11 17 19 22 24 25 19 19 15 20 15 8 8 6 11 12 9 12 8 6 13 6 3 2 8 11 6 7 6 5 8 13 14
49 46 21 45 52 57 53 51 44 36 29 19 15 18 23 17 18 23 20 18 15 22 14 11 9 7 6 9 11 13 14 19 14 6 13 6 4 2 13 13 10 6 7 12 16
46 42 41 46 56 54 58 50 49 41 29 21 13 22 19 16 18 15 24 19 18 21 19 16 10 8 9 6 9 10 11 10 14 16 13 15 19 23 18 20 15 9 8 12 14
53 48 53 53 62 55 42 47 45 45 36 24 19 25 19 19 21 14 24 14 17 17 17 19 20 15 13 11 17 8 11 8 12 16 19 16 16 13 12 9 14 6 7 7 10
52 49 48 35 51 51 45 46 48 47 38 30 26 24 22 22 24 20 18 18 19 14 16 18 17 18 14 15 16 15 13 19 22 17 17 15 14 10 7 6 7 7 10 10 7
56 51 53 48 24 53 64 50 53 41 41 27 25 21 24 22 21 22 22 19 19 18 17 18 18 15 13 15 17 17 23 22 18 17 17 16 10 15 15 10 6 8 12 15 18

GFSSW_700_spd_048.txt.gz
Wind_Speed
22 22 21 22 22 21 22 21 22 22 23 24 24 22 21 21 18 12 9 6 6 2 3 4 4 5 7 5 11 8 13 12 6 15 22 15 11 14 16 14 16 11 7 9 8
23 22 23 23 23 22 22 21 21 22 23 23 23 22 20 19 15 9 7 7 5 7 6 5 8 9 6 5 4 11 16 12 6 9 14 16 8 4 5 10 16 8 9 6 3
25 25 24 24 24 23 22 21 21 21 22 23 22 20 20 17 11 6 2 4 7 7 7 7 8 10 11 5 7 9 16 7 4 9 10 12 2 4 8 4 10 7 11 13 8
30 28 26 25 25 24 22 21 21 21 22 23 20 19 18 14 5 3 4 10 7 5 3 5 9 8 5 3 0 10 11 11 13 13 7 7 4 4 1 2 6 10 10 13 15
32 30 28 26 25 24 21 21 21 21 22 22 19 18 16 11 9 11 8 4 3 2 3 5 5 5 4 11 14 13 13 6 2 8 9 9 6 6 2 3 3 7 3 10 12
32 31 29 27 26 24 21 21 20 20 22 20 19 17 13 9 10 10 9 2 3 6 0 11 7 2 7 9 10 9 5 8 10 10 6 3 6 3 8 4 4 8 8 9 11
33 31 30 29 27 24 22 20 20 20 22 19 19 16 11 7 11 7 6 3 8 7 10 8 2 6 10 11 8 1 2 4 8 8 8 7 2 7 9 5 8 7 12 16 15
33 32 30 30 28 25 22 20 20 20 21 18 18 14 8 9 10 3 4 8 9 9 4 4 8 6 10 11 7 2 5 6 10 7 7 4 7 8 8 6 10 16 16 17 15
30 31 31 30 28 24 22 20 20 21 21 18 16 12 5 3 3 6 8 6 6 6 8 5 6 7 6 7 4 1 2 8 4 8 2 10 6 10 11 5 8 16 19 18 15
24 29 30 30 27 23 21 19 21 21 20 18 17 9 7 11 11 8 12 8 4 4 4 3 6 3 3 5 2 3 5 5 5 9 12 11 11 17 10 6 6 15 16 15 14
21 22 27 28 26 23 19 19 21 21 20 14 16 10 15 14 14 15 9 7 5 7 2 4 3 3 8 7 6 3 3 9 13 15 17 23 12 17 11 10 10 6 10 15 15
21 19 21 24 24 21 17 18 21 21 21 16 18 15 21 17 15 17 15 11 9 9 5 3 6 3 6 2 6 13 9 16 19 10 16 19 19 15 14 15 14 7 9 10 15
23 20 18 21 23 19 17 19 23 18 21 14 20 15 24 18 11 15 21 14 11 11 10 7 9 13 9 10 8 12 15 13 12 5 8 6 20 20 22 20 17 17 11 11 11
26 22 19 20 20 18 19 19 16 13 12 13 13 13 29 21 18 26 23 17 14 15 14 12 8 10 11 12 9 16 15 14 8 1 2 6 4 9 24 24 25 23 19 19 18
27 24 20 20 17 20 20 17 14 10 3 3 10 6 22 23 6 27 21 18 15 12 11 14 8 10 13 19 11 12 6 11 11 5 11 10 5 11 12 26 28 27 25 23 25
30 26 24 18 17 21 19 16 13 7 8 9 12 11 22 24 13 26 22 18 15 19 11 9 5 2 11 15 12 15 10 12 9 9 3 13 9 19 18 20 26 29 26 29 29
34 30 25 20 22 24 22 18 12 8 8 13 16 12 17 21 19 21 25 19 17 14 10 8 6 6 6 7 9 8 7 1 1 1 6 6 5 12 12 16 21 28 31 26 24
37 33 29 22 30 27 25 23 14 8 17 6 18 11 17 22 23 20 18 20 21 20 14 12 7 10 10 4 4 12 7 4 4 3 4 2 5 6 10 16 18 27 32 31 28
41 38 35 25 33 31 33 31 19 14 21 13 21 20 19 21 16 18 18 16 20 20 23 11 10 9 9 11 5 4 5 1 2 4 2 5 2 12 12 14 12 17 24 26 28
46 42 39 30 38 36 40 42 27 28 13 15 22 23 22 23 25 21 18 16 20 21 25 21 11 14 15 13 18 9 5 4 4 2 3 3 5 9 11 7 6 4 14 23 22
49 46 41 37 42 42 53 50 41 33 24 10 16 20 21 20 23 25 16 19 19 18 23 26 18 10 13 14 21 12 13 11 11 7 4 1 3 2 8 2 4 4 4 2 12
53 50 43 45 45 51 58 51 29 39 32 20 15 10 10 23 21 24 24 21 19 20 23 22 20 14 13 5 21 19 17 17 11 6 5 3 9 10 11 11 11 7 5 3 4
57 46 30 49 53 58 53 45 45 41 42 32 21 9 11 17 27 22 24 24 22 22 25 21 10 8 7 13 18 18 16 19 16 14 14 7 8 7 7 11 14 15 9 7 8
54 38 36 51 58 54 58 51 49 45 44 38 30 21 18 15 13 17 22 23 22 17 25 23 21 15 18 15 14 11 13 13 11 8 13 16 16 16 19 23 22 21 15 13 13
50 43 55 59 65 62 49 47 39 47 50 37 33 28 18 13 20 13 17 26 24 22 27 25 20 16 12 13 11 8 8 10 13 10 5 11 22 17 17 15 8 15 17 15 13
57 45 53 51 61 60 53 57 50 50 45 47 39 28 18 19 18 12 16 24 25 25 22 20 18 20 21 21 20 18 15 15 16 16 19 17 14 10 9 7 7 10 17 20 17
58 48 46 59 39 56 69 59 55 46 50 43 34 27 23 22 17 15 16 16 22 23 23 21 21 23 20 20 17 19 24 23 21 22 22 20 14 10 12 14 12 12 14 14 14

GFSSW_700_spd_051.txt.gz
Wind_Speed
21 20 19 19 20 21 22 23 24 23 24 23 23 22 21 19 17 12 9 6 5 2 4 5 7 7 5 4 5 9 11 8 8 7 11 9 12 7 10 11 7 7 11 9 11
23 22 21 21 21 22 23 25 25 24 24 23 23 21 20 18 15 9 6 5 5 4 6 6 9 8 6 6 7 12 16 10 7 10 14 11 10 5 6 10 14 9 11 9 7
28 25 25 24 24 24 25 26 25 24 23 22 22 21 19 17 12 5 3 3 8 6 5 7 9 9 7 5 5 11 16 8 8 11 13 4 5 4 3 5 12 9 7 7 7
32 30 29 28 26 25 26 26 25 24 22 22 22 20 17 16 7 4 6 7 7 4 4 6 10 6 2 2 5 12 9 13 9 11 8 7 3 3 3 2 4 6 7 7 6
34 32 31 29 28 26 27 26 25 23 22 22 21 19 17 14 10 9 8 7 3 2 3 5 4 1 1 4 2 5 9 7 4 2 5 5 1 3 6 2 1 4 3 6 5
35 33 32 30 28 27 27 26 25 23 22 21 21 18 17 14 11 7 4 6 1 4 4 11 4 3 4 3 5 7 6 3 3 5 5 4 3 5 10 7 5 3 4 17 21
33 33 33 31 29 28 28 26 24 23 22 21 20 17 16 12 11 5 4 4 5 11 11 4 2 2 8 4 5 7 2 4 7 3 8 6 5 10 11 7 3 2 8 7 20
29 31 32 32 30 29 28 27 24 23 23 20 20 17 13 11 4 4 4 10 10 9 8 5 8 8 10 7 4 5 3 8 8 8 6 5 4 6 6 6 3 5 11 11 14
22 24 29 29 29 29 28 27 24 24 23 19 19 16 10 8 8 10 11 11 10 5 2 10 11 7 6 7 5 3 6 8 9 8 8 8 6 11 9 5 6 8 12 11 12
20 19 23 23 26 27 27 26 24 25 23 19 18 16 11 12 12 12 21 13 8 5 3 0 3 4 1 3 2 9 6 3 3 2 13 12 9 9 9 6 3 9 11 10 10
20 17 18 17 22 23 25 24 25 26 24 19 16 13 9 13 13 16 19 13 8 5 4 2 0 1 1 3 2 6 7 6 3 8 21 17 17 17 14 14 9 7 9 9 9
22 18 15 16 18 20 22 24 26 27 25 20 18 19 16 19 17 22 20 17 14 10 7 4 3 4 2 1 1 3 9 3 12 14 14 15 11 18 21 14 11 7 7 7 6
25 21 19 15 17 18 21 26 22 20 23 20 20 21 19 24 21 24 21 18 14 10 6 5 4 8 9 8 11 12 12 15 16 13 3 10 17 19 23 21 16 16 10 8 5
28 24 21 18 17 16 22 22 17 15 14 15 12 15 23 28 22 24 25 20 17 13 8 10 10 6 9 15 12 13 8 14 18 13 6 2 3 15 22 22 23 20 19 17 15
32 27 23 21 17 18 20 18 13 10 4 4 10 13 20 27 12 23 27 24 20 13 11 6 7 8 10 12 12 16 18 13 13 10 8 4 4 6 12 22 23 25 26 24 21
35 30 27 23 19 19 20 16 12 8 8 6 12 13 23 30 13 21 30 26 17 15 13 9 8 8 4 10 12 13 14 12 9 7 2 7 3 8 10 17 23 27 28 29 26
39 34 30 25 21 24 20 19 12 10 8 12 16 14 20 26 21 26 31 28 22 13 16 11 9 6 5 8 11 9 2 3 3 2 5 4 6 17 15 12 14 21 23 27 29
42 39 33 28 25 29 26 26 15 9 17 10 20 16 17 24 27 25 28 28 24 17 14 14 5 13 11 9 6 5 3 4 4 2 4 5 6 6 8 13 10 10 14 22 26
46 43 40 32 30 34 34 37 18 14 18 11 19 20 20 23 25 26 26 29 27 25 21 12 9 13 13 8 4 2 6 8 4 1 1 4 8 12 12 9 10 12 16 19 21
52 47 41 32 35 38 42 40 32 29 10 24 15 21 22 24 23 26 25 28 25 23 25 18 8 13 15 13 12 12 12 6 6 3 2 4 7 11 9 7 5 4 9 13 16
54 49 44 38 40 42 56 44 36 28 20 15 17 20 23 22 31 26 19 22 21 20 22 19 22 15 15 19 19 19 16 13 9 4 4 1 5 6 3 4 2 3 3 1 9
56 54 48 44 46 51 60 44 37 38 32 24 18 17 24 25 24 31 28 19 20 21 23 24 14 18 24 22 21 20 22 16 7 6 7 6 14 13 13 15 11 8 8 6 2
57 50 38 48 56 57 54 54 44 34 45 34 25 16 15 17 27 25 30 26 22 18 23 21 19 17 15 19 19 19 23 21 19 19 16 7 10 9 13 13 14 13 13 12 7
54 38 38 52 60 55 56 44 54 46 35 41 37 19 16 15 14 24 27 27 25 25 22 21 23 20 20 19 16 21 21 19 18 20 19 22 23 17 15 17 19 18 22 20 15
51 45 55 58 67 63 49 48 44 51 53 36 42 39 24 14 14 13 20 27 27 24 20 22 27 23 22 19 17 18 21 16 17 21 18 18 15 14 20 19 19 16 17 17 18
63 47 50 60 65 63 47 53 45 52 43 51 47 37 36 26 13 12 13 20 24 28 20 31 19 23 21 20 20 21 19 18 17 17 19 18 20 17 16 18 15 14 11 16 21
61 42 50 60 48 62 71 57 52 42 46 40 29 41 29 25 15 15 13 15 22 22 25 32 28 17 17 18 19 19 30 29 27 27 27 27 26 26 23 22 18 16 15 16 19

GFSSW_700_spd_054.txt.gz
Wind_Speed
23 22 20 18 18 18 20 21 23 25 25 23 23 23 20 19 18 14 8 6 4 4 5 5 6 6 5 6 5 9 10 9 6 5 7 11 13 8 9 11 14 12 11 12 9
24 22 22 20 20 20 21 23 24 26 26 24 23 22 19 19 17 11 7 2 3 5 6 7 7 7 4 4 7 10 9 10 7 3 7 15 12 6 9 10 10 13 9 10 3
27 26 25 25 23 23 25 25 26 27 26 24 22 21 18 18 16 10 5 3 6 8 6 8 7 7 6 5 6 9 9 8 12 11 10 6 2 4 7 9 7 3 3 4 5
31 30 29 29 27 27 27 27 27 27 26 23 21 21 17 16 12 7 7 6 7 6 4 4 6 5 2 2 4 12 5 8 8 4 9 5 2 4 6 7 5 5 6 6 6
33 32 31 31 30 29 29 28 28 27 26 23 21 20 17 15 14 12 10 5 6 3 3 3 5 5 7 4 7 5 7 7 1 1 2 3 3 3 6 5 4 6 3 3 3
35 34 33 32 31 31 30 29 28 27 26 23 21 20 17 16 12 8 6 3 5 4 6 8 6 3 4 6 5 6 6 4 3 5 3 4 5 5 5 5 3 13 18 10 19
34 36 33 33 32 32 31 30 29 27 26 24 21 20 15 15 10 7 6 5 4 8 14 8 4 3 7 6 7 5 5 5 9 6 4 7 6 7 9 5 3 4 16 18 15
27 29 31 32 33 33 32 31 30 26 26 23 21 20 14 15 6 7 8 10 8 11 10 8 8 6 10 11 6 8 4 7 8 9 6 9 5 6 3 4 4 4 6 9 8
24 24 25 28 33 32 30 31 29 26 26 24 21 20 16 13 10 16 14 14 11 9 8 10 12 9 9 10 8 2 4 6 8 10 7 9 6 7 7 8 6 4 4 10 12
23 21 21 22 27 28 29 29 29 26 25 25 21 20 14 11 12 17 20 19 14 9 4 5 7 6 4 3 4 2 4 3 2 3 4 7 12 14 7 7 6 6 4 11 14
25 22 20 20 22 23 25 25 26 26 27 26 18 9 7 10 12 16 23 20 16 13 7 5 4 4 3 1 2 1 8 9 4 3 14 21 18 15 13 10 6 2 5 7 11
29 25 22 20 20 21 24 24 24 23 28 25 22 24 20 16 16 20 25 23 19 14 9 7 4 4 3 2 4 3 5 3 3 7 17 17 11 10 13 14 11 4 4 14 14
32 28 24 23 21 21 22 20 19 18 27 28 24 26 19 24 21 27 27 22 17 13 10 9 3 2 8 7 6 9 8 11 13 12 13 10 11 11 12 17 17 14 9 8 7
36 31 28 25 24 20 19 19 12 12 15 23 13 23 24 26 26 31 28 22 19 15 10 9 8 8 8 10 10 11 10 10 14 13 11 10 4 9 15 16 22 21 18 14 13
40 34 31 29 24 18 17 13 11 9 4 6 15 18 19 30 16 34 30 26 23 18 15 5 3 4 8 10 11 9 11 15 11 7 9 10 5 7 10 19 21 22 23 21 17
44 38 35 31 26 19 17 14 11 8 8 6 9 14 21 30 19 32 32 27 23 20 16 14 11 8 9 6 9 12 9 10 6 4 2 7 6 7 9 11 11 14 19 20 20
48 42 39 33 27 23 18 17 12 10 7 8 13 16 18 30 23 26 35 35 28 23 20 14 13 11 10 7 7 8 6 2 2 1 5 5 5 13 14 15 16 15 12 15 23
52 47 42 36 30 27 26 24 15 7 17 7 15 17 19 25 30 19 31 36 32 22 15 16 8 10 11 8 7 5 5 3 2 2 4 4 6 7 10 13 12 9 6 8 13
55 52 48 40 33 32 31 35 15 18 15 17 14 19 20 23 28 25 27 36 33 30 15 17 12 9 12 12 4 4 3 5 2 2 1 6 9 14 9 12 8 5 7 9 9
59 56 52 41 36 38 41 45 31 24 9 19 15 18 21 23 26 32 27 35 35 29 25 18 8 13 13 14 12 10 6 3 3 1 3 4 5 10 11 4 4 4 6 10 11
59 58 55 46 40 42 51 48 33 24 16 10 19 13 16 23 28 27 25 16 34 28 24 24 21 12 15 18 15 15 14 11 11 4 3 1 6 7 5 4 4 7 6 9 9
50 59 56 50 47 53 53 50 32 38 29 19 13 16 17 20 25 27 32 32 18 31 25 22 16 20 22 18 18 15 20 17 18 6 7 6 20 16 13 14 13 9 7 6 7
49 54 43 54 53 61 49 47 49 43 40 30 23 14 12 14 17 25 29 26 24 21 25 23 20 17 13 17 22 22 23 21 22 18 14 6 11 7 12 17 17 14 13 15 11
49 43 39 46 62 60 48 45 47 49 43 41 33 24 13 12 15 12 25 28 30 23 18 25 27 24 23 23 19 18 21 24 23 21 20 23 24 21 20 17 14 14 15 18 20
56 43 52 51 68 62 56 45 46 51 48 44 37 40 26 13 11 11 19 23 29 29 26 27 24 26 29 24 22 22 19 18 22 18 23 25 25 19 15 17 18 17 18 18 19
58 49 48 61 64 62 41 49 46 46 39 47 43 35 37 26 10 9 3 13 25 29 29 27 26 25 27 25 22 20 20 21 21 24 25 23 24 19 20 19 18 16 17 16 15
60 51 45 56 49 62 70 44 47 46 47 42 36 42 31 34 25 22 16 14 15 14 27 27 24 24 25 27 23 15 25 25 25 26 28 30 29 28 28 27 27 24 21 20 19

GFSSW_700_spd_057.txt.gz
Wind_Speed
24 23 21 20 19 18 18 19 19 19 20 22 23 21 19 18 16 16 9 7 4 3 4 5 3 5 5 7 7 7 6 7 6 4 5 6 11 13 10 11 12 13 12 10 8
26 24 23 21 20 20 20 20 21 22 21 23 23 21 18 18 15 14 9 5 2 4 5 6 5 5 5 6 4 5 6 6 4 4 5 5 6 9 10 9 8 5 8 9 7
30 28 27 26 24 23 23 24 24 24 23 23 23 20 18 18 15 11 4 5 4 6 6 6 6 5 6 4 5 6 4 5 4 8 5 6 4 7 6 7 5 1 2 4 9
34 31 31 30 29 28 26 26 27 27 25 24 23 19 17 16 11 10 8 7 6 6 5 5 5 5 6 7 7 9 4 6 4 4 9 7 6 4 7 5 5 3 5 12 10
36 36 32 32 33 32 30 29 28 29 27 24 23 18 16 16 14 13 9 8 7 5 5 6 6 7 8 7 8 5 4 8 7 5 5 6 7 3 7 4 5 4 4 8 7
35 36 36 33 34 33 32 30 30 30 28 25 24 19 16 15 13 9 7 9 7 6 7 8 9 8 8 6 6 6 5 4 10 9 9 5 4 6 6 4 6 9 3 9 6
32 33 34 36 34 31 35 33 31 31 28 26 25 20 17 15 12 8 9 10 7 7 12 12 9 6 8 4 6 6 5 8 11 12 6 2 5 7 9 4 6 10 22 12 13
29 29 30 30 33 31 35 34 33 32 29 27 25 21 18 15 12 10 13 12 9 10 13 11 10 8 7 9 9 6 6 7 5 4 4 6 3 7 4 2 1 5 9 6 13
29 28 27 26 29 33 35 35 32 32 30 27 26 21 19 16 13 16 17 16 14 13 12 12 11 10 9 8 8 4 6 6 5 6 7 6 7 8 10 5 2 3 8 7 6
31 28 26 25 25 29 31 31 31 32 29 26 26 20 17 16 10 19 21 21 18 15 11 11 10 9 8 3 6 7 6 6 3 2 4 4 12 14 9 6 4 2 9 9 9
33 30 28 25 25 24 25 25 27 29 29 26 16 10 10 10 14 19 22 24 20 17 13 8 8 7 5 3 5 2 3 5 2 2 5 11 13 13 9 6 5 1 8 10 9
36 33 30 28 25 23 23 22 24 27 28 25 26 27 24 16 15 20 26 28 25 20 15 11 7 6 7 5 4 2 1 0 3 3 6 13 12 5 7 4 3 2 5 13 16
41 35 32 31 28 24 21 20 21 24 29 32 26 26 22 25 24 23 28 31 27 22 18 13 7 6 6 6 7 6 5 5 7 8 8 12 8 7 6 7 9 7 10 16 18
45 40 35 33 31 24 20 19 16 18 16 27 24 22 27 27 28 24 29 31 26 21 16 11 12 10 8 10 12 13 10 7 8 9 6 6 4 6 8 11 12 12 15 13 16
48 44 39 35 31 25 20 17 12 10 4 7 15 20 22 33 22 32 31 33 28 22 21 12 6 8 9 7 9 11 8 7 11 5 5 7 4 3 6 10 15 14 14 17 17
51 47 44 39 31 26 20 16 13 8 9 6 9 15 18 30 24 33 37 34 27 22 21 17 10 7 6 6 8 9 5 7 5 3 2 6 6 5 6 9 11 10 13 14 21
53 51 48 41 32 27 22 19 12 10 7 8 11 15 18 31 27 33 42 39 31 27 26 21 16 11 9 7 8 9 6 1 1 2 3 3 4 7 5 7 14 14 14 15 18
56 53 51 45 35 30 26 25 16 9 18 4 12 14 19 33 27 29 42 40 35 28 21 20 7 16 9 9 7 10 8 4 3 3 1 4 5 4 10 11 9 10 8 10 12
55 56 55 49 40 33 33 34 17 23 10 19 8 14 19 30 20 25 40 43 38 35 21 22 14 9 12 10 7 8 7 6 4 2 0 4 10 13 5 10 5 1 4 5 6
46 55 59 49 44 38 40 39 29 19 14 17 15 14 18 24 27 26 26 39 39 34 28 11 9 15 13 13 14 9 7 4 4 3 3 3 4 7 8 1 6 7 6 4 4
34 40 63 52 47 45 54 42 36 28 26 12 19 10 12 22 29 31 18 13 37 35 32 26 15 9 14 16 16 14 13 8 4 3 2 2 4 4 6 2 6 8 7 7 4
40 45 55 53 50 57 59 49 31 41 28 19 14 20 12 17 24 28 35 26 16 34 35 28 15 21 20 14 18 17 15 15 8 5 7 7 13 16 9 10 6 11 8 5 7
45 44 43 48 49 62 56 45 42 31 41 32 19 14 12 12 12 22 29 31 18 23 34 29 18 16 10 16 21 15 16 16 18 17 17 11 8 5 14 14 14 15 10 11 13
52 45 37 38 63 65 52 45 48 42 36 40 29 17 12 11 16 10 21 19 26 22 25 28 27 20 21 23 16 18 21 20 20 13 19 28 28 21 15 14 12 14 13 13 15
59 36 49 50 63 68 60 55 46 39 51 37 38 34 22 11 8 14 10 23 26 28 25 23 21 21 26 25 25 27 25 22 21 19 24 22 24 18 17 17 12 13 16 17 17
62 45 56 43 64 63 42 52 45 49 38 52 46 31 34 22 8 19 8 9 18 27 33 32 22 21 24 24 26 26 28 24 22 19 21 22 26 20 20 20 18 17 18 18 19
68 59 52 62 38 61 65 46 41 44 46 31 42 41 35 34 28 23 14 10 11 13 13 24 26 27 25 28 24 22 28 26 24 21 24 26 26 24 24 24 26 27 24 24 23

GFSSW_700_spd_060.txt.gz
Wind_Speed
24 23 22 22 21 20 20 19 19 19 18 19 20 19 19 15 16 14 12 9 6 4 3 3 2 4 5 8 8 7 6 8 5 4 4 7 5 6 16 12 12 11 10 12 9
29 27 25 23 23 22 22 21 21 21 21 21 21 21 20 16 16 13 12 8 6 3 3 4 4 5 5 6 5 3 6 4 4 5 7 11 8 3 18 13 10 8 5 9 9
31 30 29 28 27 26 26 26 23 24 24 24 22 22 19 16 16 11 5 6 7 5 5 5 6 5 5 6 6 6 5 5 5 7 10 9 10 11 12 8 9 9 6 7 8
33 32 32 31 32 31 29 30 29 26 26 26 24 22 19 15 9 9 11 9 9 6 5 6 7 6 7 8 10 8 7 9 6 4 10 10 13 9 9 7 9 10 11 11 8
34 33 34 33 33 34 33 32 33 30 28 27 27 24 19 16 14 14 13 11 10 6 6 9 8 8 7 7 10 11 7 10 10 11 10 8 7 8 10 8 10 10 11 12 9
33 33 32 34 34 35 35 33 32 33 28 29 28 25 22 17 15 11 11 12 11 7 8 10 12 11 8 8 9 9 8 11 11 14 13 5 5 5 8 8 5 10 8 6 6
34 33 31 32 34 36 35 34 33 33 30 29 29 27 25 15 16 13 12 14 13 10 10 13 12 8 9 7 13 9 9 9 8 10 8 3 6 5 8 4 6 3 9 12 13
33 32 31 30 30 32 34 33 35 32 32 30 29 28 26 18 17 13 14 16 14 11 15 13 12 10 8 10 11 10 10 10 6 5 5 4 1 5 5 3 3 4 6 12 13
35 32 31 30 29 29 29 30 33 33 29 29 28 28 26 21 20 17 18 19 16 14 16 13 10 9 9 8 11 12 12 7 4 6 7 4 3 9 8 4 4 4 6 4 9
37 35 31 31 30 28 28 28 29 34 35 32 29 24 21 15 10 17 22 23 21 18 15 13 11 9 9 10 11 10 10 9 6 5 5 7 8 13 9 7 5 4 7 6 4
40 37 34 31 30 29 26 26 27 30 34 32 23 18 22 16 17 17 25 25 23 20 14 14 11 10 7 9 9 8 8 6 3 5 7 8 10 10 6 4 5 5 9 10 9
44 39 37 34 32 30 26 24 26 29 31 29 26 28 18 15 18 21 28 30 28 20 18 13 13 9 10 9 6 8 10 8 6 7 6 8 10 9 4 4 3 3 5 10 14
47 43 39 36 33 31 27 24 21 26 28 31 26 25 24 27 21 23 30 30 29 22 20 16 8 13 12 9 8 8 9 6 4 5 9 10 11 9 11 7 6 7 9 12 16
50 46 42 40 35 31 28 25 20 19 17 28 26 28 32 29 36 29 28 33 26 26 18 17 16 13 11 12 12 12 10 8 7 10 11 5 4 5 6 8 10 12 14 14 15
53 49 44 41 39 32 29 22 17 9 6 8 17 22 25 36 24 33 31 35 27 22 24 18 17 19 16 12 11 12 10 8 9 10 8 8 9 5 5 6 9 12 15 18 16
50 51 48 44 40 32 27 21 15 7 10 7 9 14 21 28 32 21 37 34 27 22 24 16 16 12 10 11 11 11 8 9 6 6 9 5 7 5 8 6 7 11 12 17 22
41 50 51 46 37 33 29 21 12 14 6 10 11 15 15 22 27 26 42 38 33 28 26 22 18 13 11 9 9 12 11 9 5 6 4 4 6 11 5 6 8 12 14 14 16
33 41 48 49 38 36 30 27 20 15 26 8 12 10 15 19 20 26 32 34 33 27 25 24 20 19 15 13 10 15 13 7 5 4 4 4 6 2 6 9 7 9 14 16 19
35 31 43 48 43 37 34 35 27 24 17 16 8 12 15 21 17 25 32 37 36 31 19 27 19 14 18 14 12 13 12 9 3 3 3 6 6 9 2 7 6 3 6 9 10
34 35 44 40 45 45 43 48 33 21 26 23 15 12 16 25 17 26 29 33 34 31 25 13 18 14 17 15 16 10 13 7 7 4 5 4 5 6 2 2 7 5 4 1 5
35 40 43 42 41 45 54 52 33 24 31 20 18 12 11 18 26 27 21 14 36 35 29 19 14 11 17 17 16 15 10 7 4 4 3 3 5 5 4 2 4 4 4 4 3
40 49 41 45 47 55 55 48 27 33 31 23 17 27 14 17 23 25 27 25 15 32 37 27 17 15 15 14 17 15 14 13 10 6 7 5 12 13 15 10 6 7 6 5 7
51 47 40 40 55 53 52 47 43 29 35 26 23 18 22 16 12 25 24 27 12 31 35 33 21 15 13 15 17 14 17 15 14 14 15 8 6 8 11 9 13 11 11 10 10
56 38 37 38 58 69 39 39 45 38 26 30 30 18 18 16 20 11 25 22 31 13 30 33 24 30 22 17 14 16 20 21 18 13 16 18 20 16 18 15 12 11 10 13 13
64 47 60 59 56 63 47 40 44 37 39 30 28 29 20 12 14 15 20 21 24 33 22 31 30 25 24 19 18 20 19 19 23 23 22 18 17 15 13 15 17 17 14 14 17
64 54 56 36 56 69 59 46 43 47 38 38 29 36 26 19 11 16 12 18 15 27 30 31 22 23 23 21 21 23 21 21 23 22 21 21 21 13 15 16 17 19 19 17 17
61 50 45 49 39 50 59 55 39 42 35 35 33 27 39 26 17 18 10 10 14 17 25 27 25 20 19 17 16 20 28 23 21 25 23 22 21 17 21 22 23 23 23 24 25

GFSSW_700_spd_066.txt.gz
Wind_Speed
27 27 26 26 26 25 23 22 23 22 24 22 21 21 21 21 19 20 19 19 15 11 8 7 5 4 4 8 9 11 16 19 17 10 3 16 20 17 21 18 13 8 13 22 20
30 29 28 28 29 27 25 24 24 24 23 24 23 21 23 24 22 20 20 16 12 9 8 7 5 5 8 9 9 11 16 19 12 12 14 13 15 11 18 16 19 27 13 17 17
29 30 30 29 30 30 29 27 27 26 25 26 26 24 24 25 23 16 13 8 6 9 9 8 9 11 13 12 12 13 18 18 14 12 12 15 15 12 13 18 21 9 10 18 19
31 30 30 30 29 30 30 29 28 29 29 29 28 29 25 24 8 16 14 14 14 12 11 12 10 13 12 13 14 14 16 16 16 15 14 15 16 18 19 19 10 9 12 18 19
31 31 31 31 31 29 30 30 29 29 31 30 30 31 28 28 23 22 18 18 16 15 13 13 11 11 14 15 14 17 17 16 16 17 17 17 14 12 12 10 8 10 13 17 16
33 33 32 32 31 30 29 29 29 30 30 31 30 30 33 31 20 20 16 17 16 16 15 15 12 11 16 19 17 17 15 17 18 18 19 18 16 21 20 19 13 9 10 12 7
35 35 35 33 32 30 29 28 28 29 28 30 31 33 34 28 20 23 18 17 16 16 17 11 13 14 15 14 14 18 20 19 20 19 18 16 18 15 21 18 8 9 8 9 9
37 36 36 36 34 32 30 28 27 28 26 27 27 34 38 26 26 23 22 18 17 19 19 14 14 17 15 16 18 19 19 23 17 12 15 15 20 17 13 6 6 6 5 7 7
40 39 37 36 35 33 32 30 27 26 26 26 25 30 33 29 25 23 24 19 16 18 21 18 16 16 13 16 18 19 22 21 18 14 14 15 15 15 19 14 11 3 5 3 4
42 42 40 38 36 34 32 31 28 27 28 27 26 26 21 21 20 14 19 20 21 19 21 21 17 16 17 17 25 20 13 24 17 13 13 12 8 17 14 11 17 11 10 3 7
43 43 43 42 38 36 32 29 26 26 30 28 22 25 8 11 20 16 15 22 20 20 22 19 18 22 19 22 21 21 16 15 5 5 6 11 13 10 12 15 15 10 10 8 5
40 42 43 44 42 38 34 30 20 30 36 37 32 35 25 23 20 19 18 22 28 29 21 20 28 21 19 18 14 15 15 15 8 1 8 10 11 5 7 8 11 10 11 16 11
37 38 40 41 44 38 34 29 25 27 35 43 37 39 26 27 29 19 22 24 28 26 27 28 24 18 21 16 13 14 15 11 17 10 16 15 16 13 6 10 10 11 12 16 17
36 33 34 38 38 37 36 22 24 19 22 35 27 33 30 28 31 24 26 26 24 30 28 28 23 15 19 15 15 15 13 12 14 13 14 3 15 15 17 14 13 13 15 18 18
37 35 33 33 31 34 23 17 12 10 6 9 16 20 17 36 18 27 31 29 32 25 27 31 25 24 19 20 16 17 6 11 11 15 19 16 8 16 13 20 19 18 19 13 14
39 36 35 33 28 23 24 15 17 11 12 8 15 16 17 28 27 7 35 32 29 28 24 27 22 24 24 18 17 13 13 12 14 16 15 19 10 13 10 13 16 19 16 15 13
37 36 37 33 27 17 24 27 18 19 20 18 17 13 17 21 30 23 31 36 39 37 36 28 29 23 21 22 20 15 14 12 9 11 8 10 12 14 6 16 6 7 17 14 17
35 35 37 34 25 28 30 31 21 33 35 6 21 15 20 19 23 31 28 39 40 31 30 28 27 31 23 22 21 19 19 15 6 3 4 7 7 7 5 8 7 7 12 9 18
29 33 35 35 26 33 30 39 36 38 26 32 12 16 18 19 16 26 35 37 42 41 37 34 33 26 25 22 22 20 21 22 9 12 7 8 15 7 11 5 5 6 8 10 17
33 32 32 33 28 31 40 38 52 46 30 23 35 16 15 20 21 23 30 30 37 38 34 30 24 28 27 23 22 24 15 18 12 4 6 7 9 4 10 7 7 7 7 6 11
35 36 37 27 32 37 49 63 59 39 36 29 27 27 33 20 20 23 23 24 35 33 39 41 27 25 27 30 26 21 19 17 21 15 1 4 2 9 2 6 9 8 6 7 5
41 46 35 35 45 48 61 61 51 41 38 32 27 35 25 26 20 26 27 22 21 39 40 43 22 23 26 26 24 24 22 19 15 10 11 7 9 5 1 8 12 9 10 8 7
49 48 35 38 55 59 55 58 40 39 31 36 31 22 24 25 24 22 26 25 24 27 43 41 39 20 23 26 25 28 25 22 24 21 20 12 8 3 5 7 9 11 12 13 12
54 47 49 43 54 57 54 48 41 46 43 32 31 24 29 22 19 13 28 25 28 21 31 33 34 29 20 28 27 25 24 24 28 24 15 18 14 17 10 10 12 13 15 15 12
66 50 61 60 61 65 43 26 37 41 40 32 31 30 30 25 21 20 10 22 31 24 32 29 34 32 27 26 28 27 26 26 27 24 27 21 22 20 18 10 12 11 12 13 15
68 51 59 37 56 50 49 46 33 39 45 51 34 25 31 26 25 27 23 19 21 32 33 30 25 36 27 31 27 23 27 30 27 27 25 26 26 22 21 17 15 14 14 18 15
73 66 38 52 33 47 57 51 45 31 41 46 43 30 30 21 25 7 21 19 18 17 24 28 28 27 30 29 26 32 32 23 23 26 25 26 23 21 21 18 17 16 17 17 20

GFSSW_700_spd_072.txt.gz
Wind_Speed
28 28 29 28 27 27 26 25 25 25 24 24 23 21 21 21 16 15 16 16 17 17 14 12 10 11 9 7 10 9 13 15 13 16 20 19 11 18 17 15 13 19 15 18 16
30 29 28 29 28 27 26 26 26 26 27 26 26 24 23 22 20 15 17 16 15 12 12 11 10 14 11 11 13 15 16 10 13 18 23 24 15 18 13 15 17 18 21 18 17
29 30 30 29 29 27 26 27 26 26 27 27 27 27 25 25 23 20 19 14 11 8 8 10 13 16 17 17 18 18 22 14 19 17 20 24 20 19 18 15 20 23 22 25 19
30 31 29 29 29 29 27 27 27 28 27 27 28 29 27 25 18 8 10 10 13 13 14 12 15 18 18 17 13 19 17 18 22 27 22 21 21 22 20 23 28 24 28 26 12
30 31 30 30 29 28 27 28 27 27 28 29 29 30 29 28 20 21 21 22 20 19 17 16 18 17 18 14 14 18 18 20 21 17 14 19 22 23 24 23 24 22 24 18 15
32 31 32 31 29 29 29 28 26 27 27 28 32 32 33 27 23 22 20 23 21 20 18 20 18 15 21 17 18 19 21 23 20 17 19 20 21 24 23 21 20 18 19 14 15
34 34 34 33 32 30 29 28 28 27 27 28 32 33 34 22 26 25 22 17 16 17 16 18 17 19 19 20 19 21 23 22 23 23 26 20 28 29 24 21 20 23 24 14 14
34 35 35 36 35 34 31 30 27 28 27 30 32 35 35 25 27 26 26 21 21 20 18 17 17 21 23 20 21 21 21 24 5 12 15 18 30 29 24 22 25 22 12 13 11
35 34 35 36 36 36 35 32 30 31 29 32 32 36 31 25 22 23 26 21 23 21 21 19 23 25 21 20 21 22 25 20 17 14 22 25 23 19 16 23 17 17 13 8 10
36 35 35 36 36 37 33 32 32 33 32 35 35 33 22 21 21 21 19 23 26 24 24 25 28 29 27 23 26 23 18 14 18 15 11 10 18 17 18 15 14 9 12 10 9
32 33 32 33 35 34 31 28 29 35 40 40 35 29 21 19 23 19 20 18 25 29 31 27 28 38 35 27 24 22 20 14 14 15 12 15 16 12 15 11 10 12 13 6 5
30 29 30 30 31 27 26 20 25 34 46 44 43 44 33 28 34 25 22 21 25 29 29 24 36 32 27 24 25 22 22 21 22 21 19 9 10 14 10 9 7 6 5 6 5
31 30 29 31 27 24 20 16 21 34 42 50 44 47 35 33 38 30 30 25 26 29 32 36 26 21 28 25 24 23 21 23 26 16 19 18 16 14 10 9 10 10 10 8 6
30 28 27 30 25 21 16 11 17 29 22 45 40 43 35 35 49 34 37 31 33 35 30 34 30 21 16 25 25 26 13 19 21 17 12 11 12 12 14 13 19 13 18 10 6
32 28 25 27 24 13 11 9 17 16 4 13 14 14 14 27 33 24 32 41 41 34 33 32 31 29 32 25 21 25 13 17 19 20 16 15 9 11 14 19 23 21 21 13 8
32 30 29 29 19 9 13 7 12 7 11 10 12 16 22 18 26 13 31 45 42 35 34 29 29 21 27 25 19 14 16 19 13 16 9 16 15 18 23 18 23 25 22 15 11
33 31 31 31 15 22 19 17 16 14 13 15 11 14 16 20 20 21 23 49 41 33 41 30 34 33 26 23 25 25 26 4 4 4 6 8 9 18 15 17 16 25 27 20 17
33 32 31 29 19 24 23 25 19 28 38 4 6 3 23 18 22 24 17 43 50 30 24 27 18 33 28 35 25 23 23 13 5 4 5 11 9 14 13 20 20 18 20 23 24
29 31 34 27 19 30 29 32 31 38 18 36 31 29 13 18 15 16 33 29 48 43 18 26 26 22 33 25 21 25 29 27 14 3 1 7 19 21 15 11 18 14 21 21 26
28 32 37 23 23 34 38 50 38 26 30 8 16 16 21 11 4 8 19 30 29 46 36 14 10 35 20 21 27 24 25 16 10 5 3 8 15 11 15 15 15 14 14 17 18
31 32 41 28 26 40 58 48 35 35 28 30 23 16 11 14 11 17 10 25 16 39 45 41 18 9 21 29 28 28 29 15 20 12 4 3 6 12 16 21 17 14 14 15 17
33 37 40 33 38 51 62 45 43 10 22 30 40 34 24 18 16 17 15 21 15 22 40 44 21 27 27 24 27 29 33 35 17 9 16 15 8 10 18 16 17 14 15 16 17
37 40 39 39 52 57 47 50 49 37 29 31 42 39 35 30 12 14 21 10 19 18 29 34 26 19 23 28 37 27 25 37 34 22 27 16 10 10 14 10 14 19 19 19 17
43 42 47 50 57 52 48 46 36 39 45 38 37 32 20 28 30 16 23 11 15 19 21 26 37 39 25 27 20 8 26 33 34 31 25 27 22 23 20 13 17 21 22 18 17
50 50 55 50 64 53 45 45 45 39 33 31 46 45 39 30 21 25 23 21 14 14 15 25 33 33 38 29 29 17 19 21 37 37 27 32 29 24 23 19 21 20 16 21 19
56 63 51 50 39 57 56 54 39 33 40 37 38 30 32 37 29 17 20 23 14 14 13 28 22 33 30 33 31 23 24 28 28 24 29 30 25 25 22 24 24 26 25 19 23
57 62 52 48 40 41 64 58 37 35 31 34 34 33 36 26 22 17 14 20 18 15 20 12 13 18 25 29 22 24 38 35 27 19 18 29 29 24 26 25 26 20 26 17 23

GFSSW_700_spd_075.txt.gz
Wind_Speed
30 31 30 28 30 30 26 26 26 26 28 27 27 26 25 23 18 18 17 17 17 16 16 16 14 16 13 11 11 11 14 15 10 8 13 14 22 16 15 17 15 16 20 24 25
31 30 31 30 30 31 28 27 26 27 29 27 27 28 27 25 23 17 19 18 17 16 15 13 15 18 15 13 14 17 16 13 8 12 21 23 24 20 20 20 18 18 20 24 23
30 31 30 30 30 31 30 28 28 27 28 28 28 27 28 25 25 22 21 21 17 14 12 10 14 17 17 17 18 21 17 9 13 15 19 22 25 24 19 20 21 16 23 21 23
32 31 30 30 30 30 29 27 29 28 29 30 29 28 28 25 18 14 9 14 15 14 13 13 15 19 19 19 20 25 20 20 19 17 17 19 23 18 22 22 24 26 24 24 24
32 32 31 30 30 30 30 28 28 27 29 30 31 31 29 27 19 23 21 18 19 19 19 20 19 19 21 17 18 23 21 24 24 20 16 20 20 22 26 26 27 25 22 19 20
34 34 33 31 30 31 30 29 29 29 29 30 31 32 32 29 25 26 23 25 26 26 23 23 22 18 22 21 20 21 21 26 25 23 19 22 23 26 24 26 27 25 22 22 15
36 36 34 34 33 33 31 30 30 29 31 31 33 34 36 22 27 27 24 21 21 25 24 22 21 22 24 22 20 23 27 29 27 22 22 24 30 30 25 28 30 27 27 22 12
35 35 36 34 35 34 33 32 32 33 32 33 33 37 39 24 27 25 27 22 24 23 20 20 23 23 26 25 20 20 22 24 8 7 12 15 30 21 24 22 24 26 25 18 13
34 33 34 35 34 34 34 33 34 35 34 37 36 37 32 25 25 27 25 23 26 27 27 20 22 26 25 25 23 23 25 22 13 5 9 19 22 17 20 18 19 21 19 15 11
33 32 32 32 33 31 30 32 33 35 37 40 42 35 25 20 17 17 17 18 26 29 28 27 25 29 30 30 28 22 23 21 19 9 16 14 16 12 17 18 18 17 15 14 10
32 30 31 32 29 27 27 28 31 34 40 41 44 39 25 20 15 19 24 24 21 30 33 32 30 40 39 35 32 22 16 14 13 9 14 13 15 19 15 17 12 14 9 9 10
31 31 30 31 27 23 22 23 29 33 41 43 43 48 40 34 33 21 23 23 25 26 33 33 35 35 34 31 31 26 24 24 19 12 16 17 18 17 17 17 10 11 8 5 8
31 29 30 31 25 22 20 20 25 30 38 46 43 50 41 37 45 35 28 24 26 28 34 40 36 29 35 33 30 31 29 22 16 14 18 19 24 21 19 17 11 10 10 10 7
30 28 27 27 22 18 17 17 18 22 22 37 33 35 33 37 51 37 37 35 34 33 30 34 33 22 18 31 31 32 24 19 18 23 22 13 9 17 19 16 17 11 16 10 6
29 27 25 24 16 11 14 11 12 12 5 11 9 17 13 25 27 15 32 41 44 36 32 32 30 37 33 18 23 30 23 21 18 22 20 18 11 14 13 19 21 19 16 16 8
29 27 25 26 13 13 17 9 7 4 10 4 3 10 12 11 17 7 24 42 48 37 37 37 27 27 28 30 31 21 21 20 20 24 9 16 12 19 24 30 29 25 19 16 10
27 25 25 26 12 19 19 16 9 12 7 3 3 1 8 13 14 19 15 34 35 35 43 33 38 33 27 21 22 27 23 4 5 5 6 13 13 25 19 17 14 17 18 19 16
23 22 24 22 17 21 23 26 17 15 26 4 5 4 1 9 17 17 21 22 40 33 12 32 16 40 33 37 23 30 28 12 5 4 5 16 9 13 13 16 14 21 14 15 20
24 27 29 25 20 23 30 34 21 22 11 10 24 22 15 11 7 9 27 31 27 41 23 15 21 21 27 35 34 30 23 20 23 3 1 9 20 31 24 23 19 19 21 18 17
28 30 33 27 25 26 37 50 38 25 17 12 3 6 11 13 9 5 12 7 28 31 36 13 8 14 12 25 33 35 23 15 13 5 4 4 11 19 15 12 15 19 17 13 16
30 32 39 31 30 36 48 47 40 39 19 18 22 16 8 11 14 20 6 8 6 19 27 36 14 2 26 22 32 30 28 20 18 17 6 1 9 17 9 14 15 14 12 9 7
33 37 39 34 39 47 53 53 43 11 29 30 26 30 25 17 12 11 18 5 6 13 17 38 29 34 21 11 18 30 28 29 18 5 6 10 19 8 2 15 19 16 13 9 7
38 39 38 29 44 51 49 43 46 46 27 27 25 24 27 23 17 10 17 15 15 12 5 16 30 19 20 33 35 24 31 23 20 21 27 11 20 21 14 14 16 18 17 11 11
40 41 38 38 46 47 50 42 41 44 47 39 31 23 21 17 20 21 19 16 16 14 11 14 31 35 28 14 22 21 29 36 27 27 23 31 34 31 18 17 13 13 17 18 16
44 45 47 48 53 51 46 43 43 42 37 37 48 43 31 21 21 26 27 25 30 22 11 11 23 32 37 35 28 26 26 29 32 36 33 33 38 33 31 25 19 13 16 22 20
51 54 49 56 41 51 47 52 43 36 38 32 30 26 17 34 42 13 14 14 24 22 17 6 8 26 33 37 30 33 33 31 25 17 25 37 31 28 25 26 26 24 21 22 21
54 56 50 44 48 45 57 52 43 41 41 35 29 26 21 20 13 17 25 20 18 16 20 18 3 7 19 26 24 24 36 40 40 26 9 22 26 22 25 24 25 26 26 25 27

GFSSW_700_spd_078.txt.gz
Wind_Speed
33 33 33 34 34 33 33 30 30 28 28 27 27 26 26 24 21 20 17 18 16 17 16 16 18 16 17 16 15 15 16 17 15 11 10 11 17 14 13 14 18 20 20 22 25
34 34 33 32 34 33 33 33 31 31 30 29 28 27 27 27 23 19 20 19 16 18 17 17 17 17 18 18 19 19 20 16 13 12 11 14 17 20 17 17 16 18 18 23 25
34 34 33 33 32 32 32 31 34 31 32 31 30 28 29 27 24 22 20 20 21 20 19 17 16 17 19 19 21 23 23 17 17 14 17 16 18 19 18 16 16 16 22 26 25
34 34 34 33 33 32 31 31 32 33 31 34 32 31 29 25 15 15 7 11 16 19 18 15 14 16 20 20 20 25 24 19 17 20 23 20 19 18 20 18 18 20 25 25 27
35 34 34 34 33 32 32 31 31 34 33 33 34 33 31 29 20 24 20 17 15 14 17 17 17 16 22 20 22 26 27 25 26 28 26 23 21 23 24 21 22 22 26 26 23
36 36 36 35 35 33 31 31 31 34 34 34 36 33 35 32 24 27 24 22 23 24 24 24 24 21 24 23 24 25 25 26 27 29 27 27 28 27 25 27 26 25 28 26 23
37 36 37 37 37 35 33 33 33 34 36 34 35 37 40 27 25 26 23 20 21 26 31 32 29 26 26 24 24 26 28 28 27 27 26 23 25 30 22 25 24 28 22 24 20
37 37 37 36 37 35 34 34 36 36 38 37 35 39 43 26 30 28 28 26 27 25 23 26 27 26 28 26 20 17 23 25 18 11 11 12 23 14 17 23 23 23 20 20 15
34 35 36 36 35 33 35 35 34 35 38 39 37 40 37 27 28 29 29 29 28 27 25 22 24 26 28 28 26 24 29 24 21 10 15 14 23 15 12 11 16 21 18 16 11
33 31 33 34 31 30 30 31 33 34 36 37 42 36 29 24 21 13 22 24 27 30 30 28 27 29 30 29 28 20 24 26 22 19 15 13 14 11 11 14 13 18 15 14 9
31 30 31 32 28 27 26 28 30 31 35 35 37 36 31 25 19 12 22 17 17 21 33 35 35 37 38 33 31 20 18 17 14 12 16 13 18 14 14 16 15 16 12 8 6
32 31 31 31 26 25 24 28 28 31 37 34 39 44 35 34 36 22 19 23 24 25 25 36 40 36 35 29 29 31 30 31 26 18 20 16 21 16 15 16 18 16 12 7 6
31 31 30 31 27 24 23 25 24 28 36 42 36 41 39 34 41 34 28 23 24 27 26 34 37 37 37 35 32 33 34 32 27 20 21 22 24 19 17 18 19 17 14 11 6
29 28 29 30 25 21 20 19 20 23 24 31 28 18 17 23 40 33 36 39 32 31 27 25 32 28 18 32 33 33 32 27 24 26 19 12 9 20 20 19 20 16 14 11 5
28 26 27 27 19 13 16 14 13 13 6 9 9 10 7 10 12 8 26 38 47 44 35 27 24 30 37 23 27 28 30 23 23 24 24 29 11 23 22 24 22 18 16 12 9
26 25 24 24 13 13 14 11 9 4 9 3 3 4 3 6 10 10 16 25 38 42 43 40 32 23 22 30 19 4 11 15 17 20 8 26 19 18 18 22 23 20 20 18 14
24 23 21 20 10 18 15 15 6 10 4 2 3 3 4 4 5 11 13 20 23 27 39 31 36 33 24 18 27 32 24 3 2 3 7 11 17 28 25 25 22 15 10 10 17
22 20 20 18 16 19 19 21 15 9 19 9 8 4 4 4 4 7 22 18 20 22 2 31 17 35 31 30 24 27 35 11 6 5 5 13 9 12 15 15 15 16 10 11 20
21 23 23 21 18 20 23 31 16 15 9 8 17 13 11 9 8 6 10 19 17 22 19 9 18 15 23 31 32 18 38 31 8 0 1 9 16 24 26 23 18 17 17 13 15
24 26 29 25 22 24 26 42 34 20 12 9 14 9 6 8 8 7 5 4 4 14 23 21 16 9 9 19 31 39 20 16 19 5 4 5 10 16 16 15 15 13 14 14 13
25 29 31 27 29 32 44 43 36 32 21 16 14 17 11 10 10 14 5 4 3 2 14 30 18 13 10 19 27 32 39 21 15 19 6 3 8 18 13 10 13 7 8 9 9
33 36 37 31 36 46 52 45 37 18 26 24 21 22 23 16 13 10 5 10 10 11 4 7 18 23 31 14 11 27 37 40 20 6 9 13 20 17 15 6 11 12 11 9 5
39 42 40 34 45 51 44 47 43 35 34 26 29 29 31 26 14 10 14 13 19 10 5 4 6 17 25 37 29 23 22 31 32 24 24 13 8 19 21 15 9 14 16 12 7
38 45 39 41 48 49 43 46 46 38 40 28 15 20 25 17 17 13 17 23 12 20 24 17 14 19 19 13 15 26 25 19 25 25 20 28 20 24 27 22 13 9 13 16 13
46 32 49 43 48 46 45 46 46 43 35 34 42 40 32 26 28 26 27 28 23 26 31 20 22 22 32 30 30 26 20 26 29 34 30 31 29 27 28 21 19 16 16 15 18
49 52 41 51 44 43 42 47 41 37 37 32 34 31 30 40 39 37 20 17 13 10 18 23 26 17 26 30 24 32 37 36 31 28 31 37 35 35 31 31 27 22 20 18 16
57 54 43 41 45 45 51 48 42 36 36 32 28 22 23 22 18 18 17 26 37 28 17 20 12 14 5 18 21 21 38 33 32 31 29 33 27 25 31 31 21 21 24 25 23

GFSSW_700_spd_081.txt.gz
Wind_Speed
32 32 31 31 31 31 32 32 32 32 31 30 29 28 29 26 23 20 19 18 17 17 17 16 16 17 16 16 16 17 18 20 19 14 15 12 11 10 9 11 12 15 16 17 18
32 33 33 32 32 32 32 32 32 33 34 32 31 28 29 30 25 21 19 19 20 18 19 16 16 17 18 18 20 21 23 19 15 13 16 17 13 14 13 13 14 18 19 19 21
34 34 33 33 33 33 31 32 33 35 34 34 32 31 29 29 28 24 20 18 20 20 21 17 17 18 19 19 21 24 26 18 18 14 16 21 17 17 17 19 15 20 23 22 22
33 34 34 34 34 33 32 32 34 35 35 35 33 32 30 28 20 16 10 9 11 16 21 18 18 19 19 20 19 26 25 22 19 18 21 24 20 20 21 23 21 21 25 24 22
34 35 35 35 34 33 32 33 34 34 35 35 35 31 33 30 26 24 23 18 16 13 15 16 18 16 18 19 19 25 25 24 23 24 25 29 26 26 29 24 25 25 28 25 25
35 35 35 35 36 34 33 34 34 34 35 35 34 31 35 36 25 26 27 26 24 22 19 20 19 17 20 23 22 25 26 26 26 26 26 28 26 26 21 26 24 24 25 25 20
35 35 36 35 35 34 34 34 36 36 36 36 36 35 38 27 26 29 22 23 25 27 28 25 26 23 23 26 26 26 29 29 29 25 24 23 26 29 16 14 19 20 21 22 19
35 35 35 35 34 32 34 33 35 37 35 36 39 41 43 27 26 29 29 29 26 27 26 30 35 34 32 29 26 21 23 25 20 9 9 16 20 15 15 16 15 14 17 20 16
34 34 34 33 31 30 31 30 33 36 35 35 37 38 38 25 24 29 28 29 32 32 31 30 25 28 30 29 29 27 24 28 26 20 13 16 19 11 11 14 9 9 13 16 14
34 33 33 32 30 29 27 28 30 33 33 34 36 33 28 23 24 19 17 16 26 32 33 31 27 31 28 33 28 25 26 28 22 14 12 15 18 12 12 13 12 11 15 11 12
33 32 31 31 29 29 26 28 28 29 30 31 29 30 20 13 21 24 11 23 19 24 29 35 36 38 35 36 31 22 24 26 24 14 15 16 20 15 16 17 12 12 13 11 11
33 31 30 31 27 24 25 25 26 30 33 26 30 33 28 24 28 31 30 21 23 21 18 28 41 35 34 28 28 28 25 34 29 26 21 23 24 20 18 18 16 13 15 13 13
32 31 30 30 27 23 21 21 25 29 33 36 31 26 25 26 30 30 31 26 22 25 28 31 26 28 35 34 29 30 30 34 30 26 25 25 27 22 20 20 17 14 13 13 12
31 29 29 29 25 20 19 19 21 23 22 25 17 6 7 14 22 28 34 38 29 30 27 24 25 24 22 27 31 36 33 33 32 26 12 7 8 20 21 20 20 15 13 12 12
28 26 26 29 22 15 17 14 14 14 5 6 6 3 5 7 5 7 16 36 45 36 26 21 14 21 32 27 20 26 25 25 22 27 19 21 10 15 10 19 19 18 16 13 14
26 22 25 26 17 15 15 12 11 5 8 3 2 2 3 3 5 6 8 12 27 41 35 32 22 18 15 16 29 14 15 13 12 14 9 26 12 17 16 14 8 5 10 16 18
21 20 20 19 12 18 13 14 7 9 2 4 6 3 2 2 2 7 9 7 9 13 32 34 38 30 22 17 17 22 13 3 4 6 8 13 13 31 12 15 20 9 7 10 16
16 18 19 15 15 17 15 18 13 4 11 6 6 1 3 3 1 4 6 8 8 12 5 20 14 27 30 30 23 26 31 9 7 5 6 16 10 20 10 12 14 14 10 9 15
18 19 22 17 18 17 20 25 11 11 11 7 5 10 6 1 1 2 6 2 3 12 11 6 10 8 17 26 36 23 29 30 15 8 4 7 8 21 22 22 20 12 11 14 15
22 20 21 17 21 25 27 35 26 14 8 6 9 4 4 7 4 2 2 2 2 3 17 9 11 14 9 20 25 28 18 13 21 7 11 5 6 13 6 9 18 14 12 13 17
21 24 19 23 27 33 42 35 25 30 16 14 12 14 12 8 5 7 4 6 3 3 5 17 13 7 14 15 21 30 29 18 18 22 8 4 7 13 16 7 9 7 9 13 19
25 28 24 25 36 38 47 41 23 15 22 27 25 21 20 18 16 9 9 10 7 12 6 4 6 18 24 10 10 24 32 39 18 7 19 17 19 5 6 16 19 13 9 14 16
31 31 30 30 39 46 36 41 39 25 21 17 23 24 22 19 10 4 11 17 11 12 8 6 2 5 9 25 27 21 20 28 41 24 24 12 6 5 10 14 8 6 8 13 12
34 39 37 43 44 44 44 33 30 33 31 23 22 23 23 21 18 10 15 15 19 15 15 19 16 10 10 10 8 22 23 21 27 29 33 37 21 18 18 23 20 12 6 11 16
45 44 42 30 48 47 38 37 37 35 29 29 33 30 21 19 19 21 21 22 24 15 19 18 21 22 26 29 29 28 23 25 32 31 25 24 26 25 28 26 27 18 15 13 15
51 49 33 49 33 41 46 45 39 32 35 33 32 27 27 34 32 30 25 19 13 10 12 6 11 16 29 25 29 36 36 32 26 34 37 27 25 24 29 31 36 27 21 20 15
47 54 39 46 30 42 43 45 38 34 34 33 27 24 25 19 13 14 16 17 20 24 25 20 15 9 12 30 26 24 43 35 33 35 29 27 29 26 27 30 34 32 24 24 20

GFSSW_700_spd_084.txt.gz
Wind_Speed
28 30 29 31 30 30 30 32 32 32 31 29 29 29 28 26 24 24 21 19 18 21 17 19 19 19 19 19 18 18 15 16 16 13 11 16 18 13 13 12 13 15 14 15 19
29 29 30 30 31 30 31 32 33 33 34 32 31 29 29 28 25 24 24 20 20 20 21 18 18 19 21 20 22 21 18 17 16 12 14 16 21 15 16 14 15 15 16 18 20
30 30 30 30 29 30 31 31 33 34 34 33 32 30 29 28 26 25 25 23 22 23 23 22 20 22 21 21 22 19 26 16 18 16 15 16 20 19 20 20 17 17 19 20 21
30 31 31 30 29 30 32 33 32 34 33 34 33 31 29 28 15 15 14 14 16 20 24 24 22 23 24 23 20 24 23 21 18 16 19 22 21 23 23 27 20 22 22 22 24
30 30 31 31 30 29 31 33 33 33 34 34 32 30 30 31 24 26 24 17 16 14 16 20 21 20 20 17 21 24 21 20 20 21 23 24 28 28 31 27 25 24 22 23 20
30 30 31 31 30 31 31 32 32 34 34 33 33 31 31 31 24 26 26 25 26 24 22 20 21 20 18 20 20 13 20 22 21 22 23 25 25 24 23 20 19 17 16 16 16
31 32 32 31 30 31 31 31 31 35 33 33 34 34 35 25 25 23 25 25 24 28 28 25 24 23 18 18 23 23 26 24 25 24 24 20 28 29 17 19 17 17 19 19 17
32 32 31 30 29 29 28 30 31 34 32 34 34 34 37 26 26 25 27 29 29 24 27 32 29 27 28 20 22 19 20 24 15 13 12 12 23 17 15 16 18 17 11 12 15
32 31 31 31 30 29 28 28 28 30 30 31 32 32 36 25 24 26 27 30 29 29 29 29 29 32 30 31 28 25 24 22 17 16 13 18 19 12 15 17 17 13 11 11 14
31 31 31 31 30 30 29 28 28 27 28 29 30 29 27 24 23 22 15 17 22 30 34 38 33 30 26 24 35 26 24 22 22 11 10 16 22 20 17 19 16 17 13 12 14
32 31 30 30 31 29 28 27 27 29 30 24 25 24 15 13 17 21 19 14 21 21 31 34 31 33 31 35 28 25 19 22 21 12 12 15 18 23 21 22 21 19 16 14 14
31 31 30 29 29 27 27 25 24 29 33 28 27 30 25 25 27 26 25 22 19 21 19 20 33 29 28 25 27 26 24 28 23 16 16 20 24 23 22 24 21 18 18 15 15
31 29 29 30 28 26 25 26 23 25 30 32 28 24 23 24 28 30 31 27 24 24 27 24 11 19 28 28 27 27 28 29 23 18 21 24 28 28 24 25 26 22 17 16 15
31 30 30 30 28 21 22 22 21 21 17 20 18 12 10 16 18 24 31 30 23 21 21 21 25 18 22 29 26 28 25 24 24 22 21 7 15 14 15 20 20 22 21 18 15
31 30 28 30 29 15 21 18 16 12 6 7 7 7 9 8 6 9 13 36 29 19 22 15 13 21 26 25 22 25 18 20 17 19 21 22 17 16 16 19 19 20 20 20 15
28 27 27 27 26 16 18 13 11 4 9 4 6 5 3 4 8 8 3 17 28 38 24 20 12 14 16 20 19 13 13 10 10 12 13 23 18 19 19 16 11 12 16 17 22
24 24 26 24 17 16 13 11 7 11 3 5 5 6 3 3 3 7 6 4 9 9 23 29 32 20 18 10 15 19 13 6 9 8 9 8 15 23 6 10 10 11 12 15 16
20 22 24 24 16 18 14 17 15 6 10 6 7 6 4 5 4 2 1 3 6 8 5 11 10 33 36 32 18 23 23 10 9 9 8 7 9 18 9 15 15 11 11 13 14
19 21 23 18 17 20 20 26 10 15 9 9 5 4 4 4 4 4 4 4 3 9 6 4 8 9 14 24 29 21 30 23 20 19 11 15 12 15 15 13 12 12 16 16 18
21 21 19 16 22 25 32 31 22 11 6 14 6 3 5 2 1 2 3 3 3 1 14 5 6 7 8 13 22 28 10 17 20 7 11 11 14 11 4 6 8 8 11 17 21
20 22 17 18 28 30 36 36 30 16 14 11 6 4 2 3 3 3 1 3 4 4 2 10 7 4 7 12 19 20 24 21 17 25 11 11 9 10 17 12 7 13 11 15 19
21 25 22 20 29 36 36 36 20 17 24 16 14 13 12 7 6 6 6 3 6 6 4 5 6 12 17 8 12 16 23 26 24 17 19 25 23 3 8 10 9 7 6 7 17
28 30 25 20 29 36 34 25 32 26 17 13 15 16 11 10 7 8 8 8 15 11 3 4 4 8 9 15 18 16 15 23 29 28 31 16 5 11 23 22 9 4 3 2 8
29 29 29 31 32 27 30 37 23 29 21 22 12 12 11 11 12 7 7 6 13 11 13 11 10 11 11 4 4 10 13 19 23 31 29 40 30 21 17 14 12 13 13 6 5
36 39 33 18 35 34 33 27 32 16 22 19 17 19 15 14 13 15 15 15 14 16 15 11 16 16 20 21 20 21 22 21 27 35 32 28 29 28 30 24 19 19 22 15 12
45 37 43 40 30 27 40 39 32 32 24 21 21 16 19 19 17 13 11 14 13 8 9 8 9 10 17 18 21 23 29 29 33 32 33 32 31 20 15 18 20 21 22 22 21
47 45 34 31 39 28 36 34 30 28 24 25 21 19 20 18 21 18 17 19 19 15 12 11 8 6 10 6 13 25 16 22 36 36 33 29 26 20 18 18 21 20 22 29 24

GFSSW_700_spd_087.txt.gz
Wind_Speed
28 28 29 28 29 30 31 31 31 30 29 28 28 27 28 27 25 24 22 23 19 19 22 20 18 19 18 18 17 15 20 25 20 19 17 13 14 15 12 16 14 14 16 21 23
26 27 28 27 28 29 31 31 31 31 31 31 30 29 28 29 27 24 26 23 23 20 21 23 20 20 20 18 19 20 20 23 18 19 16 16 17 16 17 17 16 15 16 24 22
27 27 26 26 28 30 30 31 31 31 32 32 30 29 30 29 27 22 23 25 25 24 22 24 22 19 21 19 21 21 27 22 19 19 16 17 19 16 20 23 18 19 18 16 25
27 28 28 26 28 29 31 30 31 31 32 32 31 27 27 27 11 23 17 15 20 23 25 25 25 23 23 24 23 26 27 23 24 21 20 22 21 24 23 25 20 23 23 23 23
28 28 29 27 27 30 30 31 31 31 32 32 30 28 27 30 23 30 24 22 16 17 18 19 23 22 25 19 22 27 24 24 22 22 23 24 25 26 28 24 24 24 24 26 24
29 29 27 27 28 28 28 29 31 32 33 31 31 29 30 29 24 24 23 25 24 25 20 16 17 19 20 23 26 21 23 26 25 26 24 26 27 24 26 21 20 20 21 21 21
30 29 29 28 28 27 27 28 29 30 30 31 30 31 33 22 23 22 23 22 23 27 28 26 20 17 16 20 20 23 25 25 28 26 28 24 31 29 27 22 23 21 18 19 21
29 29 30 29 28 27 26 26 28 28 27 28 28 30 36 24 26 23 24 25 27 27 26 25 31 29 23 18 15 16 22 27 24 23 24 24 33 21 18 18 20 17 17 19 17
29 28 28 28 28 27 26 26 27 28 26 25 24 24 32 22 23 25 28 28 29 30 31 29 31 31 23 24 25 23 29 26 23 20 18 18 21 14 13 14 16 17 16 16 17
29 28 28 28 28 27 26 26 26 27 28 26 28 25 16 11 17 24 22 21 25 31 31 34 28 26 29 30 35 26 30 27 26 21 23 21 25 21 19 17 17 17 17 17 17
30 30 29 28 28 27 26 24 26 27 28 23 21 27 23 20 12 14 22 21 18 19 28 33 32 38 33 30 32 28 29 29 22 18 13 19 24 23 20 22 22 20 19 19 19
32 31 31 30 28 26 26 24 26 27 33 31 28 31 26 26 25 24 21 21 18 20 17 23 38 36 31 29 28 30 33 32 30 25 20 21 26 26 25 25 24 24 20 20 19
30 31 30 29 25 24 23 25 25 26 30 36 29 30 29 31 29 27 27 25 20 20 22 28 15 25 31 32 30 33 33 30 31 26 24 21 29 28 29 28 28 25 23 20 21
26 26 27 26 25 21 20 24 22 20 16 19 21 21 24 22 26 26 31 27 22 28 22 29 27 18 21 32 28 32 28 27 26 27 26 21 21 23 20 16 21 22 23 21 21
23 25 26 25 23 15 23 21 17 12 7 5 10 12 11 13 8 13 19 29 32 24 17 26 21 27 31 26 24 31 21 22 24 28 24 26 25 26 21 24 20 20 21 19 20
22 23 24 22 22 18 21 14 10 5 10 7 8 7 7 8 9 13 10 16 21 26 24 27 15 17 24 24 20 17 19 19 17 20 21 25 25 22 21 21 15 14 15 20 20
18 22 23 24 18 12 11 10 7 11 5 12 8 10 7 9 8 11 7 9 13 16 31 26 29 22 15 17 18 19 18 12 14 15 13 20 18 21 7 7 9 9 7 14 17
17 20 21 22 20 16 16 17 15 8 22 4 7 12 9 10 9 9 9 10 16 16 11 18 15 35 31 24 15 23 25 13 11 10 11 26 12 17 15 16 20 17 12 11 15
17 18 20 17 17 20 22 24 22 22 10 9 9 11 12 10 8 9 11 8 6 13 10 6 15 7 16 35 28 22 26 25 29 25 12 13 10 11 14 14 10 12 13 14 16
18 21 17 17 18 25 25 31 24 10 3 9 12 11 15 11 9 8 12 6 6 3 9 7 11 7 11 10 23 35 21 20 24 16 17 17 21 24 7 10 12 9 8 12 17
20 21 13 18 21 25 32 23 27 14 12 6 8 5 6 6 5 6 5 5 3 2 2 7 9 5 8 14 16 21 33 24 19 24 11 9 9 3 8 10 7 5 8 8 12
20 19 15 19 25 27 36 25 22 22 20 15 7 6 8 5 7 7 7 5 2 2 4 5 5 11 14 3 10 18 20 26 25 21 21 25 24 6 3 8 12 2 4 5 12
22 21 19 17 23 28 24 33 21 22 13 17 23 17 16 11 9 11 12 11 7 3 2 2 5 9 14 14 15 16 15 19 23 25 29 18 16 6 20 12 10 9 4 5 5
24 21 21 26 28 23 23 28 29 14 24 16 11 17 11 14 14 9 9 8 7 5 12 10 11 13 14 10 6 10 17 15 18 25 24 29 28 25 12 16 14 8 8 5 4
32 32 19 11 26 25 24 20 20 30 23 24 19 18 13 14 15 19 17 15 13 13 12 9 15 16 20 24 19 18 18 19 24 24 28 25 26 24 25 25 21 16 13 13 9
39 37 28 26 20 17 22 29 28 20 22 21 19 15 18 21 18 8 12 10 10 8 7 8 12 12 17 21 25 28 26 25 26 26 32 30 33 25 22 19 20 25 24 19 15
38 33 30 27 27 27 25 22 20 24 24 24 16 15 17 16 17 19 19 19 20 15 13 12 9 9 16 14 14 20 28 29 27 24 27 33 31 24 21 21 19 17 19 19 18

GFSSW_700_spd_090.txt.gz
Wind_Speed
28 27 27 27 29 28 27 26 27 27 29 29 28 27 28 27 25 24 23 24 23 19 19 19 18 16 17 19 18 16 23 27 24 20 18 8 6 14 16 14 15 12 14 18 26
28 28 27 28 29 29 28 27 28 27 27 28 28 27 28 29 27 26 23 24 24 23 21 21 20 18 20 19 20 24 28 27 22 20 22 16 15 16 17 17 14 15 19 20 24
28 26 26 26 27 28 28 28 28 28 28 28 27 25 27 29 26 29 24 22 23 24 23 22 22 18 21 20 22 25 34 27 24 23 21 19 20 16 19 21 19 20 16 16 19
28 28 26 26 27 27 27 29 27 28 29 28 26 27 26 27 11 20 20 18 16 19 23 23 25 23 24 25 24 30 30 31 27 24 24 24 21 22 23 23 22 21 23 24 26
27 28 28 28 28 29 28 28 29 27 27 26 26 27 24 30 22 24 25 25 22 17 17 19 24 23 26 25 23 28 30 30 30 28 25 24 26 27 26 24 24 26 25 24 25
29 28 28 28 27 26 26 26 28 29 27 26 26 26 28 31 23 22 25 22 21 24 20 15 16 19 21 24 27 26 26 30 32 30 28 28 29 26 29 23 25 25 25 23 22
29 29 28 28 28 27 26 26 27 26 26 25 25 26 31 20 24 24 24 19 17 20 23 23 16 19 18 22 25 25 31 30 30 28 27 26 31 34 28 25 27 26 25 23 21
31 29 28 26 25 26 25 26 26 26 26 27 25 28 32 18 24 23 23 22 21 24 24 22 19 25 24 22 20 21 23 30 30 27 29 28 37 30 24 24 25 24 24 22 19
29 28 27 27 25 24 24 24 25 25 26 25 26 28 30 15 16 18 23 25 25 24 27 26 30 29 21 22 25 26 33 31 29 25 25 26 29 24 20 17 18 16 20 18 20
30 27 27 26 25 24 23 23 24 26 27 25 25 25 18 7 7 14 18 19 22 24 26 30 31 34 26 24 33 29 32 33 34 26 25 28 31 23 20 21 21 20 20 18 21
31 30 29 28 26 25 25 23 22 24 26 21 17 24 19 14 19 14 14 19 17 18 21 24 27 34 27 30 33 31 32 35 32 29 29 30 21 24 22 22 23 24 24 21 21
31 31 30 30 28 27 26 24 21 26 33 27 27 31 24 25 29 20 15 16 16 19 15 19 33 26 27 29 29 31 32 39 35 35 33 27 25 25 28 27 25 25 25 25 19
29 29 29 28 27 25 24 20 25 25 32 37 25 24 21 24 28 22 24 23 22 21 22 26 24 23 25 31 33 33 35 30 33 34 35 32 36 26 29 30 29 31 28 25 23
24 25 25 24 23 21 17 19 17 15 18 24 17 16 14 22 24 23 28 26 24 28 23 26 23 27 21 22 30 35 29 32 30 30 33 27 22 30 28 25 30 35 26 28 24
22 23 22 20 20 17 17 11 15 7 6 5 9 11 10 9 9 10 14 21 28 26 21 35 27 26 28 29 21 32 24 24 24 28 35 37 27 25 24 25 23 19 22 23 26
17 19 17 16 19 13 15 11 3 5 10 10 10 10 12 11 13 12 11 17 16 25 27 30 25 22 27 23 29 19 19 21 22 27 24 34 33 27 30 29 25 17 20 22 22
18 18 14 17 11 7 7 7 8 11 6 11 13 12 13 11 12 14 9 13 11 13 26 30 32 26 21 20 17 23 18 13 7 8 12 24 24 28 23 22 19 20 16 15 22
19 17 15 13 12 14 13 14 15 13 16 8 5 11 16 13 13 15 13 12 14 16 12 16 20 29 27 29 21 28 28 15 12 7 5 17 15 27 21 21 10 6 13 9 17
19 16 17 10 13 17 19 22 23 19 18 16 15 18 19 17 12 16 16 15 13 19 18 11 15 13 22 31 28 22 33 26 28 34 6 13 18 10 8 13 12 15 20 15 15
19 19 15 11 14 20 26 30 21 26 23 12 16 14 20 24 17 17 16 14 9 8 6 12 13 7 11 11 33 27 21 25 26 16 16 15 16 16 19 20 14 12 12 13 13
18 18 6 13 17 21 30 30 18 26 16 13 12 15 12 7 14 20 9 10 8 3 7 7 14 16 7 13 15 25 35 26 20 23 10 8 2 5 2 5 13 13 7 9 11
19 15 8 12 23 24 30 26 23 23 21 20 16 10 9 3 9 4 5 3 6 4 2 4 4 12 16 10 11 20 22 30 19 17 17 22 14 10 9 11 6 8 3 4 6
20 18 13 17 20 23 19 19 23 21 23 18 21 19 18 12 6 5 5 3 5 2 4 5 3 7 13 14 9 9 14 22 27 27 27 14 19 17 10 16 7 5 1 3 4
22 18 22 22 24 20 18 21 21 22 19 20 17 16 20 17 11 7 4 4 2 3 9 13 11 11 12 8 10 12 13 18 18 20 20 26 25 26 21 14 8 5 5 6 4
29 26 16 13 25 21 19 16 15 22 24 22 20 15 14 16 15 17 16 15 9 9 6 6 14 17 24 21 16 20 19 15 16 17 18 19 22 22 20 17 25 20 17 9 7
35 35 26 22 15 14 21 23 22 18 17 24 25 16 19 16 14 11 11 11 11 5 5 7 8 11 18 20 18 21 22 22 21 20 21 24 28 24 27 21 19 17 20 24 16
32 34 32 24 26 21 20 15 18 19 21 24 18 19 15 14 15 16 13 14 14 9 8 10 5 7 18 16 17 20 18 22 26 23 24 22 22 20 27 28 22 22 20 16 15

GFSSW_700_spd_093.txt.gz
Wind_Speed
27 27 28 27 28 28 29 28 27 26 26 26 25 23 25 25 25 27 25 21 19 21 21 21 17 17 17 18 18 12 22 25 28 20 17 14 22 14 14 15 18 15 18 23 23
26 28 29 28 27 28 28 28 27 27 27 26 25 25 25 27 26 24 24 24 23 21 22 23 20 19 21 20 20 25 29 32 23 19 21 22 17 11 15 18 17 16 13 23 25
27 27 29 30 28 28 27 26 26 27 27 26 25 25 26 27 25 24 23 22 24 24 22 23 23 24 24 23 23 22 33 27 26 22 26 27 22 16 20 15 19 20 17 28 24
28 28 29 29 30 30 29 26 25 26 26 24 25 25 24 29 15 14 17 16 15 17 20 23 23 26 27 25 22 27 27 27 24 23 23 28 29 27 21 25 21 17 21 21 26
30 29 30 29 28 28 29 26 24 24 24 24 24 25 25 31 17 20 23 23 21 19 16 16 21 23 28 26 23 27 28 28 28 27 31 33 33 27 29 30 28 29 26 25 28
32 31 30 31 31 29 27 27 26 25 23 22 23 24 26 27 20 25 29 23 22 24 24 21 18 19 23 22 23 25 29 31 30 32 34 35 35 32 32 29 27 26 31 31 31
33 33 32 30 29 28 26 25 26 25 23 23 23 25 29 13 20 22 27 20 18 22 25 24 18 15 18 22 23 25 34 36 37 36 32 25 34 34 34 30 32 29 23 25 28
34 33 32 31 29 26 24 23 22 24 23 23 23 28 29 16 20 19 23 21 20 22 21 22 24 26 27 27 26 27 26 34 36 36 36 24 47 34 24 24 27 24 25 27 26
34 34 32 31 28 24 23 22 20 24 23 22 22 27 23 13 14 17 18 22 23 23 23 23 26 31 30 29 30 32 33 31 27 19 21 24 41 30 29 29 29 27 25 23 25
34 32 31 30 29 26 25 23 22 24 24 22 23 23 11 11 18 13 10 12 17 23 26 27 29 32 33 29 30 30 37 37 33 25 22 27 37 32 30 36 32 23 22 21 22
34 32 32 30 29 28 26 24 24 25 28 25 22 22 21 16 20 17 15 15 18 20 23 25 32 38 34 35 38 33 28 32 31 26 23 30 36 35 25 33 30 25 27 28 23
36 33 31 30 28 27 27 22 23 30 31 26 26 29 23 21 29 21 17 18 17 20 17 21 36 29 28 30 26 27 30 35 33 29 32 35 43 37 25 25 31 30 23 25 26
35 32 30 27 24 24 23 21 24 26 30 30 24 30 25 29 31 18 27 24 22 19 20 25 29 12 20 21 26 31 35 32 32 29 23 30 47 43 27 28 28 33 33 30 27
25 30 26 21 19 16 16 16 21 16 17 31 18 15 16 22 28 21 30 29 31 32 22 28 28 25 26 31 25 31 25 31 34 27 20 21 20 42 30 25 31 30 32 28 32
20 24 23 17 15 13 11 11 10 8 5 3 8 8 7 12 10 12 11 30 38 32 22 40 15 23 27 26 23 26 19 24 26 21 28 25 16 33 37 30 32 32 26 29 33
19 20 16 16 12 13 12 5 6 3 9 8 13 9 13 14 16 11 11 20 28 30 32 36 30 24 25 23 23 23 23 14 17 20 11 23 20 16 30 31 30 27 21 21 28
17 16 12 13 10 17 12 9 6 8 3 1 8 13 14 16 20 17 14 24 25 21 32 36 38 32 28 25 15 20 19 4 5 7 6 18 18 32 29 26 29 26 22 21 28
16 17 14 9 16 17 15 12 13 6 12 19 13 6 18 13 22 14 21 17 21 19 6 18 8 23 36 36 23 25 19 12 6 4 3 13 9 12 18 34 31 19 15 23 24
19 20 14 10 18 23 21 17 10 17 7 21 19 13 15 15 18 21 23 24 16 21 15 8 10 12 20 25 27 24 26 31 24 22 5 8 22 34 11 14 19 22 15 20 13
17 20 7 13 18 22 22 28 23 22 16 15 11 8 14 15 17 22 21 17 24 20 25 16 11 9 7 15 26 33 20 21 21 4 10 12 20 19 18 15 10 20 11 19 17
19 19 2 8 19 19 27 31 29 23 12 17 14 16 9 14 11 10 20 24 19 10 19 14 11 10 2 15 18 23 29 16 14 13 3 2 6 7 20 9 2 5 14 17 18
18 13 7 11 20 24 28 27 25 25 19 19 20 19 11 7 14 4 8 14 17 12 5 7 6 6 11 13 13 17 24 35 21 11 20 23 28 13 7 15 4 13 11 10 19
19 13 11 15 21 26 22 22 19 17 14 11 14 15 12 16 8 5 9 3 4 5 5 6 2 2 5 10 7 5 16 23 25 31 27 10 14 10 10 20 20 4 13 3 4
17 11 16 21 20 18 15 20 20 14 17 17 23 19 19 13 8 14 16 5 5 4 3 6 5 2 3 8 12 15 14 6 10 16 22 32 36 33 19 11 15 11 18 8 4
26 23 14 9 24 20 19 18 11 12 15 20 19 18 14 13 13 20 17 4 4 3 4 3 5 12 20 17 12 18 22 17 16 13 15 28 25 22 17 19 14 13 15 14 3
27 26 21 23 15 12 19 25 19 13 14 14 19 25 19 21 14 15 14 10 5 3 2 1 6 8 13 10 10 17 21 21 22 21 18 15 18 19 22 22 22 13 7 17 17
26 26 27 27 27 22 17 13 12 13 14 17 17 19 26 14 10 20 13 11 9 6 7 6 6 5 6 8 10 12 19 19 16 18 17 20 16 27 28 26 24 19 13 16 13

GFSSW_700_spd_096.txt.gz
Wind_Speed
24 25 26 25 25 25 25 25 26 27 27 27 28 28 27 28 27 28 23 20 20 21 21 22 20 20 21 21 22 23 26 31 33 25 18 8 8 5 12 17 18 17 16 16 16
25 25 25 27 26 25 25 26 26 25 26 28 29 28 30 29 28 25 25 23 21 23 21 22 22 25 24 21 26 29 37 36 30 24 21 21 16 13 15 15 20 18 16 18 20
25 26 26 27 27 28 27 25 25 26 27 28 29 31 30 30 29 24 25 24 23 24 24 24 25 29 29 26 28 33 41 32 28 24 22 23 22 16 20 23 18 18 20 21 23
27 27 28 27 27 27 27 27 26 26 27 29 29 28 29 30 16 13 17 18 18 20 24 25 27 31 32 33 27 37 34 32 28 23 19 25 23 24 23 26 22 18 22 22 23
29 29 30 29 29 28 28 26 26 27 26 26 27 28 29 32 20 23 27 25 22 20 18 18 22 26 31 32 28 37 35 31 27 24 23 23 29 30 30 31 28 26 28 30 28
33 31 31 31 31 29 28 27 27 27 28 26 28 27 28 31 21 26 27 24 23 24 24 24 18 17 27 28 31 32 30 30 25 25 27 33 35 34 35 30 31 31 35 34 35
36 35 33 33 33 32 29 26 24 27 29 28 29 29 31 13 21 25 23 20 21 21 25 27 26 24 22 23 26 25 29 30 31 31 34 33 42 40 34 33 36 32 35 32 30
38 37 36 36 33 32 30 28 26 27 28 27 27 30 32 17 22 19 24 19 21 22 21 20 27 33 30 26 22 22 28 33 33 32 33 33 50 40 34 32 32 29 27 27 23
40 39 38 35 35 32 30 27 24 30 26 28 25 28 23 16 15 20 24 20 21 22 22 21 26 33 33 29 28 32 36 34 32 27 28 34 45 39 34 28 32 31 28 28 27
43 41 39 37 34 32 29 28 26 27 27 25 26 24 15 16 17 13 12 12 13 20 26 28 29 32 35 33 33 32 34 38 36 28 24 28 39 32 31 33 35 34 31 24 24
44 41 39 37 35 31 28 28 26 28 31 27 27 19 10 12 16 13 17 19 17 19 22 27 34 42 37 32 35 36 33 33 31 26 24 30 38 34 35 36 37 29 30 30 29
32 35 37 36 33 28 25 25 28 28 32 30 29 30 23 20 27 21 22 20 20 20 18 24 39 36 31 30 31 33 35 41 38 33 30 35 46 43 42 37 38 28 27 28 26
26 21 24 28 26 21 19 19 24 26 28 32 28 34 27 28 31 20 28 27 25 23 21 27 18 18 26 27 29 31 33 34 36 26 26 29 44 43 44 45 44 35 27 24 33
25 15 19 26 14 13 16 20 17 16 15 25 21 23 21 27 34 28 30 35 31 28 23 23 25 25 18 21 20 29 19 22 28 30 24 23 29 36 41 43 40 40 35 28 28
23 20 21 20 11 16 20 15 12 6 2 7 7 8 7 12 18 8 20 32 38 35 27 23 4 15 25 29 23 34 22 31 27 32 27 15 12 42 33 45 40 45 38 34 31
21 18 20 14 11 19 18 11 8 6 7 4 3 6 9 9 13 11 12 17 24 36 38 34 29 22 23 21 23 22 19 17 14 21 11 17 5 48 24 35 31 33 40 37 30
17 17 14 10 15 22 19 15 8 7 2 4 5 10 18 15 16 18 17 18 16 17 37 38 42 38 33 31 26 21 14 5 5 4 6 12 13 36 34 22 31 32 41 36 34
12 14 15 6 16 21 18 17 8 2 6 12 14 11 17 19 17 16 22 17 17 19 8 17 15 35 34 41 34 33 23 15 5 5 8 19 11 10 22 34 20 11 29 36 30
11 14 10 7 18 18 15 19 4 9 6 15 12 2 3 11 15 10 22 21 17 19 20 9 12 8 11 17 40 38 28 26 22 12 6 11 18 25 16 22 15 7 13 32 31
10 9 4 12 19 24 17 19 11 9 8 13 10 7 10 13 5 7 18 13 25 23 18 20 12 18 11 16 18 37 34 14 19 6 13 9 19 19 24 14 9 3 5 15 12
12 6 6 10 15 23 28 26 28 17 15 12 7 13 17 20 13 10 5 15 17 18 26 31 23 14 9 6 17 30 22 15 11 16 6 2 4 4 11 16 13 10 4 1 15
14 6 8 9 14 20 27 26 17 13 8 16 14 14 14 14 17 10 4 3 9 14 11 22 16 17 20 7 5 13 29 31 20 9 17 17 12 14 18 19 31 15 4 16 11
13 7 12 13 16 19 18 15 15 14 9 10 9 9 13 17 11 11 4 2 3 11 4 14 10 4 6 11 11 10 10 4 14 27 26 8 5 13 17 12 24 8 12 6 8
12 6 11 17 17 14 13 19 17 13 14 10 13 14 16 20 18 11 11 5 5 0 7 4 6 4 3 3 4 8 8 7 6 4 7 11 17 21 15 15 13 11 14 2 8
18 15 10 2 10 16 14 12 10 10 7 7 12 14 14 12 13 14 10 12 5 2 7 4 3 8 6 6 7 10 12 12 14 12 10 15 13 9 11 13 7 12 10 16 6
26 20 19 19 16 11 7 14 18 14 13 15 10 8 16 21 16 17 13 9 7 5 2 1 0 4 6 6 7 15 16 11 14 12 18 15 12 11 8 9 13 12 16 12 15
18 19 20 21 20 20 14 10 5 7 10 10 15 17 17 15 15 17 11 9 12 10 5 4 3 6 2 4 10 7 6 8 8 11 13 14 12 14 13 16 18 15 12 7 2

GFSSW_700_spd_099.txt.gz
Wind_Speed
28 28 29 29 27 28 28 27 26 26 28 29 30 30 31 33 30 31 27 24 25 26 24 25 24 25 26 25 26 27 32 36 33 29 27 15 13 9 4 10 14 18 18 17 15
26 26 28 28 28 27 28 28 27 28 29 30 31 31 31 34 32 30 28 28 27 27 28 25 26 28 29 28 31 32 39 40 32 27 25 28 22 18 14 10 14 17 19 19 20
26 27 27 27 28 28 26 27 28 28 29 30 32 32 31 32 33 28 31 30 28 27 27 28 29 32 32 31 35 36 45 36 30 26 25 29 27 25 22 20 15 13 15 22 23
29 29 29 28 28 28 29 27 25 27 29 30 32 32 31 33 23 19 23 24 27 28 30 31 33 36 36 36 34 40 42 34 28 29 29 29 30 31 25 23 20 17 20 23 22
33 34 33 32 31 30 29 28 27 28 30 31 31 31 29 35 30 28 30 20 17 21 24 29 32 33 37 37 34 41 40 36 32 31 31 29 34 32 32 28 25 20 22 27 27
36 36 37 37 35 34 32 29 28 28 31 33 34 32 33 39 22 29 33 29 29 28 25 25 23 25 31 32 36 38 35 37 35 33 33 34 37 33 36 31 31 25 26 29 31
40 40 39 41 40 37 35 33 29 29 32 33 35 36 38 26 23 26 27 28 31 32 32 30 27 30 27 28 30 31 37 35 35 31 36 31 44 43 36 36 35 32 30 32 34
45 44 43 42 42 41 38 34 30 31 34 36 36 37 44 23 27 27 28 26 25 28 27 26 30 35 35 24 20 28 32 34 35 33 35 30 56 39 34 34 35 35 35 34 34
45 46 48 47 46 42 42 37 30 33 33 34 36 35 40 26 26 26 27 25 23 25 24 23 29 34 33 31 30 28 29 27 29 29 28 31 44 39 38 35 36 35 34 35 34
44 46 49 49 48 44 40 36 31 33 33 33 36 31 27 20 15 19 22 24 25 26 27 28 27 33 35 33 30 30 26 34 35 31 29 33 42 35 32 33 34 35 35 34 33
35 36 42 42 42 43 40 32 29 32 37 37 34 29 26 18 14 24 19 18 23 25 27 31 36 42 38 38 37 37 29 27 27 23 31 37 43 41 38 39 41 39 37 35 30
32 34 30 31 26 33 32 23 25 25 40 37 36 37 31 22 23 18 20 22 23 22 21 23 38 38 36 34 35 38 36 35 33 30 31 37 48 42 39 38 37 42 41 39 32
33 36 28 30 27 20 16 18 19 22 31 38 32 37 30 30 34 27 28 25 26 23 22 26 21 18 32 35 36 37 35 31 29 24 26 31 49 41 37 37 40 43 42 37 35
31 34 29 29 21 15 14 17 16 12 16 25 23 23 22 29 36 30 34 33 31 27 22 22 25 23 12 23 28 35 29 25 22 21 19 14 21 37 32 34 33 33 34 37 44
26 28 26 26 8 13 23 18 10 6 4 4 6 7 10 12 14 14 26 36 41 36 25 18 9 10 29 30 16 24 12 18 19 24 27 31 15 17 9 33 37 29 31 30 40
24 26 21 16 16 16 22 12 15 6 8 4 5 2 5 7 9 8 10 18 24 38 39 35 25 15 11 13 18 17 17 17 19 18 9 23 19 38 23 18 27 29 26 31 30
21 22 17 15 11 16 22 14 12 6 1 3 6 2 4 8 10 9 10 12 11 13 26 33 39 34 24 19 18 15 11 3 3 4 7 11 17 34 21 33 21 30 34 29 24
11 10 14 13 16 14 14 12 4 3 4 8 10 4 4 1 2 9 14 16 14 11 10 4 8 20 32 40 32 27 24 13 6 4 9 17 12 22 25 26 28 32 35 26 17
8 7 7 10 17 14 17 12 4 4 9 15 2 4 4 3 2 5 3 15 18 15 9 4 9 10 10 9 30 37 33 24 29 22 6 9 18 27 19 27 29 30 26 18 15
6 7 9 10 13 11 16 12 7 1 9 12 8 8 13 14 8 7 2 4 13 17 18 14 16 14 11 9 13 26 29 19 17 7 13 4 6 15 22 31 32 28 16 7 9
7 6 8 7 8 11 21 10 17 12 12 12 9 9 12 12 14 12 4 8 7 13 15 22 23 23 17 8 7 19 31 28 23 27 8 9 7 9 13 23 24 32 12 13 18
10 6 4 7 7 10 18 23 20 15 9 11 11 10 5 6 8 8 6 7 9 12 9 6 10 17 27 23 14 11 23 26 17 8 7 9 15 14 21 28 28 33 23 10 13
9 7 10 8 8 11 9 7 10 9 6 4 3 4 8 12 8 7 8 10 6 7 5 7 7 8 6 18 18 7 12 13 17 14 15 9 6 10 19 27 18 19 34 6 10
9 4 7 13 11 10 6 9 9 10 6 5 10 10 8 11 14 11 19 11 12 8 5 8 8 10 10 5 13 7 6 3 2 3 3 10 15 15 17 8 13 24 36 15 11
13 10 8 2 7 8 8 10 3 7 2 5 3 7 9 11 9 15 13 14 8 1 4 4 4 11 7 6 6 14 8 11 9 1 4 7 11 11 12 13 14 17 20 24 7
17 16 13 13 12 6 5 3 5 10 12 9 12 8 8 13 12 18 16 13 5 9 14 11 2 6 3 5 5 8 11 12 13 10 10 16 17 11 12 6 9 11 13 18 11
12 14 15 15 15 15 13 4 5 6 3 2 9 11 7 10 8 10 13 13 8 10 5 8 9 10 3 2 4 2 1 3 9 11 10 13 14 14 14 12 11 12 13 13 12

GFSSW_700_spd_102.txt.gz
Wind_Speed
29 29 29 29 30 30 29 30 31 33 34 34 34 35 34 35 32 32 27 25 26 26 25 25 27 29 29 28 29 29 34 39 35 32 27 21 11 18 15 13 13 14 20 14 14
28 29 30 30 30 30 30 29 30 32 34 34 36 35 34 36 36 31 30 29 27 28 27 27 27 29 32 32 32 34 41 44 35 30 25 26 25 19 21 17 19 18 16 13 12
29 30 31 31 32 31 31 31 30 30 33 35 36 36 35 35 36 32 32 30 28 29 29 29 32 32 35 34 36 38 46 42 35 29 28 29 27 25 29 28 21 18 16 14 17
31 32 33 33 34 34 34 32 32 32 33 34 35 36 34 34 26 19 21 21 26 30 31 32 36 38 38 39 38 42 44 41 35 32 34 32 30 32 30 29 26 24 20 18 17
34 36 36 37 37 38 37 36 35 34 35 36 35 36 35 38 38 27 30 23 18 22 26 31 36 38 40 39 38 43 42 41 38 34 35 33 34 35 38 26 30 31 26 21 20
37 38 40 41 42 41 40 40 38 37 37 37 38 39 38 45 27 29 32 32 31 25 22 28 33 34 36 38 39 41 39 40 41 38 38 38 38 38 39 29 30 33 32 25 23
37 39 40 42 45 47 44 43 42 38 38 40 41 41 45 40 27 29 26 28 34 34 30 25 24 30 34 35 33 34 38 39 39 35 38 35 47 44 36 32 33 32 32 29 26
37 38 41 44 46 49 49 49 45 39 41 41 41 42 53 40 30 28 30 31 26 31 36 35 31 32 35 28 22 24 31 35 34 36 36 27 56 38 23 27 31 32 32 30 29
39 40 42 43 46 49 53 53 47 41 42 40 42 41 51 32 29 32 34 31 28 33 28 33 37 36 36 35 30 26 28 28 28 25 22 26 46 34 32 31 32 31 32 32 30
41 43 46 49 50 47 49 52 49 41 42 40 43 38 36 23 18 13 25 26 31 28 30 30 33 35 38 35 31 31 24 31 31 22 19 26 41 36 30 32 33 32 31 32 32
40 42 43 45 42 37 37 42 31 29 41 44 37 37 34 26 30 23 18 17 24 31 32 33 34 44 40 37 36 32 22 26 27 18 23 31 42 39 34 36 37 36 35 35 31
39 40 39 39 39 35 33 33 17 20 41 40 42 47 38 16 22 20 22 19 20 24 27 33 45 41 35 31 33 32 34 36 34 30 30 35 49 42 38 36 36 36 35 36 38
36 35 34 34 36 29 32 33 21 18 31 43 37 41 35 33 36 24 20 23 24 24 27 30 20 20 32 37 35 34 33 33 31 27 27 31 49 38 31 31 31 31 28 29 33
32 32 30 32 31 27 27 21 18 12 13 27 23 20 23 31 38 35 31 32 29 28 23 21 25 23 11 25 29 33 31 28 26 24 20 13 12 25 24 20 17 19 19 22 29
30 29 27 29 27 22 19 19 28 9 5 3 4 6 9 13 15 20 31 35 39 32 24 18 8 14 27 27 12 21 19 13 10 15 19 21 14 2 5 19 27 19 15 26 27
28 27 24 24 19 18 24 19 20 4 5 3 3 4 4 5 6 5 11 27 32 38 31 28 14 9 11 13 21 17 9 7 11 14 7 15 14 10 11 9 6 24 28 20 29
24 22 20 20 18 19 23 19 17 5 9 9 5 6 3 6 5 3 4 10 10 16 30 33 37 31 18 10 13 13 12 3 3 3 5 6 12 27 6 17 26 25 27 30 31
22 19 13 18 18 20 23 8 4 6 12 12 9 13 12 7 4 6 4 5 7 5 3 8 3 18 25 34 20 23 21 9 5 4 3 9 9 11 13 21 28 27 23 23 31
19 13 13 18 19 16 11 6 6 8 15 17 7 12 12 13 5 7 6 5 3 11 4 2 1 5 2 2 17 28 25 24 22 21 4 9 21 26 27 28 27 26 32 34 36
16 11 13 14 13 8 9 8 8 8 17 14 12 14 16 17 12 5 6 6 5 4 8 2 2 3 1 2 5 17 11 12 10 3 5 5 8 14 21 25 26 26 28 34 28
12 10 13 12 10 4 8 10 7 9 15 17 13 10 12 15 12 9 9 5 7 2 3 8 11 9 7 1 3 1 22 15 9 18 4 7 8 11 13 19 22 30 34 43 32
11 9 8 6 8 10 5 14 17 19 12 8 7 7 7 11 9 6 5 6 11 9 3 2 2 3 11 10 13 19 15 15 11 4 7 14 24 24 24 24 24 29 34 34 29
11 7 8 7 5 9 11 6 8 5 6 5 4 2 8 9 8 7 7 16 5 8 2 2 3 1 5 10 11 11 11 12 19 17 17 7 8 10 17 22 28 26 26 37 27
12 5 6 7 8 8 9 8 8 5 2 5 6 4 7 10 9 8 14 10 10 7 6 5 6 7 6 6 5 7 11 9 9 12 14 16 18 12 15 17 16 18 23 29 33
11 7 6 4 1 6 7 9 10 8 1 7 2 6 8 8 10 10 8 12 8 11 3 3 4 5 5 13 7 10 13 13 7 3 7 8 12 15 15 15 17 18 19 21 27
11 11 10 10 11 9 5 4 4 4 5 4 5 5 8 11 11 17 14 11 8 5 9 2 8 3 3 2 4 11 12 15 13 16 22 20 23 19 19 14 13 14 16 21 27
14 14 12 11 10 11 10 8 7 8 4 1 7 9 6 7 11 8 9 9 11 4 8 6 7 8 3 2 9 12 11 10 14 19 17 17 17 15 14 17 19 19 18 20 21

GFSSW_700_spd_105.txt.gz
Wind_Speed
23 24 26 27 27 28 29 30 31 32 33 35 36 38 38 38 35 35 31 29 27 26 25 24 25 27 30 31 31 29 34 33 36 31 30 21 11 15 21 18 15 16 17 19 19
24 26 27 28 28 29 29 30 32 34 35 35 36 37 38 40 40 36 33 29 28 30 28 25 26 27 32 33 34 35 43 44 37 30 29 27 21 16 17 21 15 16 21 23 21
26 28 29 31 32 32 33 32 33 34 35 37 37 37 37 37 41 38 37 31 28 30 30 28 29 31 33 34 37 39 48 42 39 29 29 31 32 30 26 28 20 19 18 22 24
28 29 31 33 34 36 36 36 37 38 38 38 38 39 37 36 33 19 19 24 26 29 32 31 33 37 40 41 39 42 44 42 37 31 33 35 32 33 30 28 26 27 26 23 25
28 31 33 35 37 39 38 39 41 40 40 41 41 42 39 40 40 30 30 22 18 19 22 28 35 38 41 41 40 45 44 41 38 34 35 34 36 33 38 29 24 28 33 28 25
30 33 35 37 39 40 41 42 43 42 42 43 45 46 47 50 33 28 34 34 36 33 27 23 30 34 37 39 40 42 38 38 40 37 37 38 38 37 40 27 25 29 29 30 31
32 34 36 37 39 40 42 44 44 44 43 45 46 48 53 52 34 31 25 24 31 35 33 26 21 26 36 36 38 39 42 40 41 35 34 33 44 44 35 32 33 31 28 27 31
31 33 36 39 41 44 47 48 47 46 46 46 46 50 59 53 39 36 31 36 32 29 30 33 25 29 31 27 31 32 34 33 27 29 35 30 49 24 17 16 22 22 23 25 26
34 37 40 42 44 46 48 51 53 54 50 44 49 48 59 51 40 35 35 39 35 33 27 25 36 36 34 33 27 25 20 20 19 19 17 23 36 23 25 27 26 26 24 23 24
35 39 42 43 44 46 50 52 55 54 47 36 46 43 45 14 12 10 13 24 32 32 34 33 30 40 41 34 32 24 21 23 20 13 14 24 33 27 23 25 27 27 26 27 27
36 40 42 41 41 44 48 54 53 50 30 24 23 36 32 17 12 20 20 22 21 25 37 36 36 47 49 45 31 22 20 24 18 15 20 30 35 33 30 31 31 28 28 29 29
37 38 38 37 38 39 42 39 34 35 50 34 38 42 40 24 30 26 21 22 21 24 29 27 45 43 36 35 33 31 33 30 21 19 22 31 40 39 34 32 29 28 27 27 28
35 35 35 35 35 34 28 25 33 32 40 31 24 30 32 31 37 21 20 24 20 21 29 37 31 32 37 32 30 31 33 29 27 25 27 30 39 31 20 14 18 17 18 20 24
31 32 32 32 33 30 24 25 27 38 25 28 15 6 14 29 34 29 31 27 23 20 19 21 33 14 9 30 36 35 34 30 28 18 14 12 11 16 19 19 7 3 8 14 18
28 28 30 31 32 31 26 26 29 31 5 15 9 10 5 14 16 20 33 40 35 28 22 17 10 21 28 26 16 26 22 19 17 23 21 16 11 5 9 9 14 10 6 14 16
25 25 27 28 29 27 26 28 25 9 6 18 6 6 9 4 7 7 16 28 31 27 24 24 10 11 13 20 23 7 8 9 9 12 8 15 16 8 10 9 10 5 16 20 22
22 22 25 26 26 27 24 18 5 4 12 16 24 16 7 10 6 5 10 19 15 21 26 25 24 17 12 9 12 18 15 3 4 5 6 6 14 16 6 8 9 14 21 24 25
19 20 21 22 23 24 15 5 6 10 19 25 24 23 20 9 12 10 16 14 11 10 13 22 13 34 31 25 17 22 24 7 6 5 1 11 8 6 7 8 13 19 18 21 24
16 18 17 17 18 18 10 4 5 16 24 29 21 28 23 15 9 13 14 11 5 7 5 8 4 9 5 18 31 23 26 19 5 2 2 8 9 11 17 15 14 13 19 24 28
14 14 13 15 14 13 11 2 4 11 21 23 19 15 19 26 16 7 7 11 6 5 7 4 4 4 6 10 14 25 17 13 13 4 6 6 9 9 9 12 16 14 21 30 32
11 11 11 11 9 11 10 5 5 7 17 15 16 16 16 20 15 11 10 10 9 9 7 8 4 7 6 5 11 22 17 9 12 14 3 3 3 2 4 10 20 23 21 30 38
11 8 10 10 8 12 13 10 9 12 6 7 9 9 12 14 10 7 12 12 10 5 4 6 6 4 4 6 5 5 9 13 10 5 12 12 12 12 12 13 15 22 27 32 34
9 7 8 7 4 7 9 11 9 3 6 7 6 7 9 10 6 7 9 8 10 8 4 4 4 3 4 4 5 6 7 11 15 12 14 8 4 5 11 15 20 22 23 28 34
13 7 7 8 4 4 7 9 11 6 4 8 6 7 8 9 7 6 8 9 9 8 1 1 5 5 2 3 4 5 7 10 13 8 8 14 15 13 14 17 18 20 24 28 32
11 11 8 5 4 5 5 6 8 6 2 6 4 8 11 9 11 9 7 10 8 4 4 2 2 5 8 11 11 12 12 11 10 9 8 7 10 9 15 19 20 24 21 23 30
8 9 10 8 6 6 5 4 6 6 7 4 7 6 6 7 6 14 14 9 3 2 5 5 3 4 3 8 11 17 15 15 16 17 16 15 18 22 19 23 21 22 24 27 27
5 8 9 9 8 7 8 7 9 13 5 5 10 11 7 9 15 14 15 11 10 7 3 3 5 7 2 2 5 7 10 12 14 14 16 14 15 17 19 21 20 18 21 21 18

GFSSW_700_spd_108.txt.gz
Wind_Speed
18 19 20 21 23 24 26 27 28 30 31 32 34 35 35 35 34 35 32 31 27 30 29 27 25 28 30 31 33 30 28 33 29 23 23 21 12 13 21 20 21 20 22 25 22
18 20 22 23 25 27 29 31 32 32 33 34 34 34 34 35 36 36 35 33 30 31 32 29 26 29 30 32 36 38 34 35 26 25 20 22 20 12 12 19 16 18 21 21 25
18 20 21 24 25 27 29 32 34 36 37 39 39 39 37 33 35 38 36 34 33 33 33 31 31 32 34 33 33 34 44 27 26 28 26 24 20 19 19 20 18 17 17 24 23
19 20 22 24 26 28 30 32 34 35 37 41 43 44 41 37 30 19 18 21 25 28 32 33 34 36 35 34 35 38 33 32 29 30 31 33 25 25 24 24 22 25 27 25 28
20 21 23 25 26 28 30 32 33 34 37 40 44 47 48 47 45 35 36 26 19 20 20 26 34 36 37 26 30 36 32 29 34 38 36 34 34 32 29 23 23 27 34 31 28
21 23 25 27 30 32 33 34 35 36 39 42 43 46 50 58 42 37 38 35 34 36 32 23 24 33 30 32 30 24 25 33 30 32 35 37 37 34 28 32 25 27 30 33 32
22 25 27 29 31 34 35 37 38 39 41 42 44 49 54 60 50 39 30 22 27 34 36 36 30 24 29 25 28 29 32 25 24 23 30 33 41 41 36 33 30 29 30 30 29
23 26 28 33 36 38 39 41 42 44 47 48 47 49 58 58 57 47 40 43 39 37 31 32 33 32 26 21 19 21 27 33 29 28 30 27 43 16 13 17 19 22 25 30 30
25 28 32 34 36 38 40 42 44 48 53 54 55 46 55 56 53 45 45 46 41 41 38 31 35 37 26 28 22 27 29 25 22 22 18 26 28 20 22 22 19 16 21 18 21
25 29 33 35 36 38 41 43 45 50 54 52 41 39 40 24 15 21 31 40 42 45 39 36 35 33 32 30 42 29 22 23 18 10 16 22 25 19 13 12 14 14 14 17 20
27 31 33 34 35 38 42 45 47 47 52 46 49 46 46 31 34 23 23 18 18 30 41 43 33 44 46 37 30 26 19 22 20 16 21 24 27 25 24 24 23 23 23 23 24
29 32 32 33 34 37 38 40 42 43 56 46 38 36 34 34 33 31 23 22 28 27 27 32 51 39 24 31 28 27 27 29 22 16 17 22 29 26 27 28 26 25 25 25 25
29 30 31 31 32 34 35 38 38 37 43 30 26 23 22 24 40 25 19 20 22 23 33 34 27 33 29 23 24 26 34 38 25 18 21 24 35 32 30 27 25 25 27 26 27
29 28 29 29 30 31 33 36 33 27 24 16 31 13 19 12 25 32 29 17 19 24 24 22 17 20 31 30 33 31 27 22 19 15 23 13 14 8 7 10 12 13 15 18 21
27 26 25 27 26 29 30 31 22 15 6 24 32 25 20 10 4 20 27 22 19 17 19 16 21 20 23 24 24 22 21 21 20 23 21 25 15 18 16 19 13 14 12 11 10
25 23 22 24 24 26 25 17 12 6 5 19 33 46 19 3 3 5 22 34 21 18 14 10 11 19 24 24 24 13 11 10 10 14 15 25 22 16 16 16 10 12 9 7 11
23 20 21 22 21 22 17 13 6 6 18 23 36 37 23 4 3 4 16 20 20 24 22 16 13 11 15 17 14 16 20 8 8 8 10 8 17 20 9 12 15 9 6 14 17
21 17 19 19 19 18 14 7 3 9 13 25 28 31 22 15 10 12 17 14 11 16 18 21 18 20 17 14 16 28 25 10 8 9 11 11 10 9 16 17 13 13 15 14 14
19 15 16 16 15 14 9 1 4 9 17 22 24 22 30 28 12 10 13 7 5 10 6 21 17 14 22 21 17 18 23 16 7 0 3 12 7 6 15 16 12 11 9 14 16
15 12 13 12 12 10 7 1 4 9 18 15 15 14 21 30 27 13 8 8 4 6 7 5 11 12 12 16 26 16 19 15 15 6 8 9 13 9 13 12 10 10 9 18 23
13 8 8 8 9 9 8 5 5 9 13 11 13 15 16 19 17 16 15 12 4 8 7 8 5 12 11 9 20 26 19 17 14 15 4 2 4 6 10 9 9 10 17 20 26
11 5 8 5 5 6 7 10 6 6 9 8 11 13 14 20 15 13 16 15 16 5 5 7 7 12 10 12 12 17 22 19 14 11 18 15 8 8 8 9 9 13 20 21 23
9 5 6 4 2 5 5 9 6 4 7 10 10 13 17 14 8 12 15 12 14 7 4 7 4 10 8 9 10 12 15 20 18 13 13 10 4 7 7 6 13 14 13 15 22
8 6 6 7 4 4 4 5 7 5 4 9 9 12 15 8 12 11 15 13 14 10 1 3 4 3 2 5 8 11 13 14 16 14 13 13 8 5 5 5 8 15 21 25 26
5 6 7 4 3 2 1 3 5 6 5 8 6 13 15 9 10 11 14 14 10 5 5 1 3 7 7 7 8 6 8 11 13 15 10 6 7 4 5 8 17 21 22 26 25
2 2 4 7 5 3 2 3 3 4 8 6 7 11 11 12 11 19 17 13 7 7 4 1 1 5 6 8 8 11 13 14 13 11 11 9 10 11 11 20 19 20 23 26 22
5 2 3 3 5 5 3 5 5 9 6 7 10 14 10 10 15 17 17 15 13 11 9 1 2 3 1 3 5 10 16 16 13 11 9 10 9 16 12 18 19 19 19 19 23

GFSSW_700_spd_111.txt.gz
Wind_Speed
12 13 14 16 17 19 20 22 23 24 26 27 28 28 27 28 29 31 34 34 32 30 31 30 27 25 29 33 31 21 31 39 34 29 27 21 17 14 14 19 20 19 18 23 31
13 14 14 16 18 20 22 24 25 27 29 30 31 32 30 31 31 29 35 32 35 34 31 31 30 27 32 31 30 33 35 38 28 25 26 25 19 16 17 18 20 18 20 28 31
14 15 17 18 21 23 26 28 29 30 32 34 35 36 33 33 35 32 33 30 31 34 31 32 31 27 32 29 30 34 47 32 28 27 27 27 24 21 21 19 22 20 17 15 15
16 17 19 21 22 24 25 27 29 31 32 35 37 40 37 36 23 29 23 22 21 21 26 30 34 36 33 36 32 38 38 33 32 29 25 30 26 27 25 23 20 19 22 20 18
18 20 20 21 22 23 25 27 29 30 31 34 36 39 41 43 47 35 40 39 36 34 26 22 29 31 38 33 33 42 36 35 30 30 33 28 30 28 30 27 26 26 25 24 27
19 19 20 21 23 26 28 29 29 30 33 35 39 41 46 55 43 41 41 35 35 38 36 31 24 26 30 34 34 34 36 36 34 31 27 31 33 30 30 27 31 28 27 27 30
18 19 21 22 25 29 29 30 30 32 36 39 43 46 53 55 51 47 44 42 38 30 41 40 30 25 24 31 30 37 37 31 34 32 36 27 36 38 30 30 30 29 29 28 28
18 20 22 24 27 30 32 33 34 37 40 43 44 46 56 57 55 49 35 42 42 42 36 35 26 32 31 20 27 24 34 42 41 31 26 26 43 27 17 25 33 33 31 30 29
18 20 22 26 30 32 31 33 35 39 43 41 43 46 54 41 45 37 29 34 42 48 49 39 33 35 27 33 29 34 40 40 34 32 32 33 38 29 23 24 20 20 24 26 27
19 21 24 27 29 30 31 33 37 42 48 45 39 35 30 34 30 34 29 18 32 33 38 47 38 32 34 39 48 47 36 34 33 26 32 34 32 25 20 23 24 22 21 19 19
19 21 23 25 28 29 32 38 37 30 36 42 31 24 29 32 32 39 32 23 24 35 43 46 43 45 55 48 44 41 22 31 25 28 20 23 27 28 22 23 22 20 21 20 20
18 20 23 24 26 28 32 33 36 39 51 29 20 15 27 30 40 37 26 31 22 34 37 36 48 58 39 36 38 35 31 32 29 20 18 22 25 24 25 29 28 29 27 24 23
19 21 22 23 24 28 30 30 34 36 31 19 11 26 37 46 39 32 25 31 20 29 34 46 50 40 36 36 37 37 37 34 28 20 21 23 30 28 28 29 30 31 29 26 24
18 20 21 21 24 24 25 28 28 25 17 8 20 29 47 28 20 19 23 21 19 23 27 34 33 28 39 37 34 37 32 27 27 23 33 27 25 27 27 20 27 30 28 26 24
19 19 19 18 19 20 21 23 19 20 6 20 22 36 45 28 14 4 14 19 22 17 17 29 22 31 34 39 28 29 23 23 22 25 23 22 23 28 21 17 17 16 16 17 17
19 18 16 17 19 19 19 20 18 10 4 17 28 33 40 32 14 12 11 19 13 17 12 17 18 20 24 28 27 19 15 16 18 21 21 30 26 17 22 19 24 21 20 17 14
18 17 14 12 14 16 17 16 10 8 17 20 34 33 35 41 7 6 10 20 20 13 10 14 13 20 19 23 22 21 22 8 7 10 15 24 27 26 11 18 21 22 18 15 11
17 15 12 12 15 15 14 9 5 7 14 24 27 24 23 35 21 8 11 19 21 14 16 12 9 15 18 26 24 29 28 9 6 10 13 18 12 19 27 16 14 17 14 11 5
16 13 11 11 14 13 10 4 10 10 15 21 23 20 22 27 24 29 10 6 8 12 14 16 18 21 16 21 17 27 29 19 6 8 5 13 15 4 17 21 16 14 11 9 7
13 11 9 10 11 10 5 4 6 9 14 13 16 17 27 29 26 33 10 9 1 6 8 8 10 14 20 18 16 19 21 20 13 5 6 9 14 9 20 19 16 13 11 8 7
11 5 8 8 9 5 2 5 7 8 9 10 13 18 18 23 20 23 23 13 5 6 2 7 9 10 20 24 28 22 20 22 17 18 5 7 1 10 18 17 12 9 8 8 12
8 2 9 5 3 6 4 7 7 6 8 8 10 13 16 19 14 14 20 20 19 17 5 2 11 22 21 16 18 32 23 24 17 17 17 15 3 9 15 13 9 8 7 9 12
5 4 6 2 0 1 5 6 7 6 5 8 8 13 17 14 8 12 15 16 19 17 6 6 3 5 7 8 11 21 24 21 19 13 10 11 11 10 11 10 5 7 12 15 18
3 2 5 3 1 2 6 5 7 7 4 8 7 10 14 12 13 8 16 16 16 14 3 6 8 6 5 4 13 17 20 21 18 15 16 16 13 16 13 10 11 15 16 16 21
2 2 2 3 2 3 4 6 7 8 7 8 5 11 15 15 16 12 18 16 13 10 10 8 7 7 5 10 2 6 13 14 17 17 14 8 10 12 6 8 14 18 18 20 21
3 0 3 2 3 2 5 4 7 7 10 9 12 15 17 16 17 23 20 15 11 10 14 9 6 10 9 7 6 7 8 10 13 14 15 16 12 2 11 20 19 17 17 19 19
6 4 2 4 2 3 5 6 7 11 8 7 14 19 17 16 21 22 24 24 22 17 15 8 9 8 3 2 4 10 14 15 13 13 13 17 9 2 11 16 20 16 15 20 22

GFSSW_700_spd_114.txt.gz
Wind_Speed
12 12 12 12 13 14 15 17 19 20 22 23 23 23 24 26 25 26 29 27 29 29 27 29 30 26 25 30 27 22 33 43 36 31 30 23 25 20 17 17 20 21 21 18 21
12 12 11 12 14 16 18 20 22 25 27 28 28 27 29 31 29 28 30 27 27 29 28 28 31 29 31 31 32 32 39 45 31 30 30 26 28 22 13 17 19 23 18 24 28
12 13 13 14 16 17 19 22 23 26 28 29 30 28 29 32 33 28 21 18 18 18 22 27 29 32 32 29 30 33 54 37 33 30 32 29 28 23 24 21 19 22 30 26 24
13 14 15 17 18 19 20 23 25 27 28 30 32 32 31 34 21 29 32 34 33 32 30 23 26 34 37 36 31 38 45 38 36 33 30 30 30 31 21 22 21 18 27 23 27
14 15 17 18 18 19 21 23 26 27 28 29 31 33 34 36 38 37 40 32 28 28 32 32 29 27 39 34 31 43 40 36 37 36 34 33 32 29 34 28 20 27 20 19 21
16 16 17 17 18 19 21 24 27 28 28 28 30 33 40 46 36 37 36 39 40 35 34 33 38 27 33 32 38 37 37 40 37 39 37 33 34 33 35 33 33 28 34 31 23
16 16 16 17 18 20 22 25 27 29 29 29 34 40 46 45 45 47 43 35 34 37 36 34 34 34 30 32 34 34 38 39 43 47 39 34 37 47 36 32 34 45 36 34 34
15 14 16 17 18 21 23 26 28 29 29 32 36 42 49 42 38 37 37 33 28 34 39 29 27 38 40 33 29 32 34 44 56 37 37 36 54 46 31 30 36 35 34 36 37
13 14 16 17 19 21 24 26 28 30 32 32 39 38 36 32 25 28 28 31 31 27 36 29 32 36 34 41 38 34 46 53 42 36 38 33 53 34 33 29 32 31 34 34 32
12 14 16 18 20 22 25 28 28 32 34 38 35 30 14 29 33 34 32 31 30 25 32 34 42 37 36 44 48 60 48 37 38 30 36 43 50 33 26 25 39 26 24 27 29
12 14 17 18 20 24 26 26 29 32 36 28 17 23 18 27 41 43 39 33 34 34 37 35 43 56 51 53 58 44 39 36 36 33 35 41 44 40 35 32 29 27 29 23 21
12 14 17 18 19 21 24 26 28 28 37 16 12 11 21 30 45 39 24 25 31 38 33 40 50 52 52 49 40 42 41 40 28 28 17 23 28 21 28 30 32 26 28 28 24
12 15 16 17 18 20 20 22 23 26 26 11 7 19 31 38 43 35 31 35 29 33 35 41 33 44 47 45 45 41 41 37 39 22 5 14 27 22 23 25 29 30 27 28 28
12 14 15 16 15 15 19 19 19 22 10 5 8 15 33 34 23 43 28 16 21 26 29 27 41 41 40 45 43 42 35 36 32 23 7 13 11 24 23 27 28 32 33 26 29
12 13 14 13 12 12 14 15 16 12 5 12 13 23 29 25 43 30 16 13 14 18 23 27 17 35 39 39 41 38 30 32 23 15 11 16 17 38 30 30 29 38 32 38 30
11 12 13 10 10 11 14 14 11 5 1 13 20 32 32 32 32 17 23 13 17 24 25 27 12 17 38 32 36 30 12 13 13 11 10 31 25 28 31 38 25 24 25 27 28
11 11 10 8 9 12 11 11 8 4 15 17 31 28 26 35 36 22 26 11 13 13 17 24 12 9 13 21 31 20 19 6 5 9 13 17 24 37 15 20 29 21 24 27 24
10 11 8 5 7 9 8 10 4 10 15 21 23 20 21 34 37 38 21 12 11 13 24 26 15 18 19 22 26 23 27 10 7 7 10 23 15 37 31 13 23 23 30 23 19
10 9 6 4 6 6 8 5 7 10 14 18 21 16 22 24 25 34 28 22 11 9 12 15 0 11 10 20 26 28 32 21 3 8 5 13 20 3 25 13 22 19 23 21 16
9 9 5 5 5 4 3 3 4 7 12 14 14 15 21 24 23 30 28 22 19 13 13 10 13 12 11 18 17 24 24 22 11 3 3 6 21 5 12 23 19 20 15 15 14
6 6 7 5 4 6 2 3 5 7 10 11 13 15 17 21 17 19 20 16 25 18 12 15 10 6 12 14 16 14 24 21 16 16 2 1 2 11 15 19 25 17 12 14 14
4 1 6 3 4 6 3 5 8 6 8 8 8 12 16 18 14 14 19 19 23 26 17 10 10 8 9 18 17 16 16 22 14 12 11 2 3 6 14 22 19 16 18 21 14
1 5 2 2 3 1 5 3 5 6 5 7 8 9 15 16 12 13 18 19 21 19 21 12 5 8 13 8 18 21 23 17 18 15 7 5 3 4 12 19 13 22 20 21 20
2 2 2 4 5 3 6 1 5 5 5 8 10 9 14 15 15 11 19 19 20 16 19 14 10 9 8 14 7 8 22 22 16 15 12 9 5 6 10 13 19 21 18 20 20
2 2 1 5 2 6 4 4 5 5 6 7 6 11 14 18 17 17 19 21 19 11 17 17 9 12 19 13 13 5 9 7 21 16 13 9 4 9 22 20 9 12 14 17 20
5 4 1 4 5 4 4 1 6 7 9 9 10 14 14 16 17 22 21 20 23 16 18 16 10 14 18 9 3 4 10 10 7 14 8 7 7 5 10 6 6 16 16 18 20
7 4 4 6 1 3 3 5 8 11 7 10 16 19 18 17 23 24 23 21 19 17 16 13 11 15 5 12 8 3 5 5 6 2 4 3 4 10 3 8 13 13 14 16 16

GFSSW_700_spd_117.txt.gz
Wind_Speed
15 13 12 11 10 11 11 13 14 15 15 16 17 19 20 19 19 22 20 20 22 21 21 23 27 23 25 28 26 26 33 49 43 35 33 24 27 19 20 23 21 18 19 22 20
14 13 12 10 11 12 13 15 16 17 18 18 19 21 24 24 24 25 21 13 14 17 20 23 21 25 31 29 30 34 43 53 43 37 35 29 29 24 27 25 24 20 22 27 27
14 13 12 11 13 14 15 16 17 19 20 21 21 23 26 26 26 23 21 21 23 24 23 20 19 22 33 32 33 36 59 43 41 34 31 29 31 29 30 26 25 22 32 29 33
15 14 13 13 14 15 16 17 18 20 21 23 24 24 27 26 23 27 33 31 31 28 26 25 27 31 27 36 34 40 51 45 46 40 34 37 29 38 36 30 22 19 27 28 34
16 15 15 15 15 15 17 19 20 20 22 25 27 28 28 31 29 34 37 30 28 29 29 27 28 28 36 37 34 47 43 42 43 38 43 40 42 40 44 33 23 26 26 20 34
17 16 16 16 15 16 17 19 20 21 23 25 28 30 32 33 35 32 33 37 36 36 36 35 34 29 40 36 31 38 44 46 42 47 44 42 44 40 50 38 30 30 35 25 25
17 17 17 15 15 16 17 19 21 22 23 27 27 32 34 33 34 32 34 32 33 32 35 36 37 34 38 42 41 37 39 42 50 55 49 42 45 52 49 41 36 40 39 36 28
17 17 16 15 15 16 17 19 21 22 23 25 28 33 34 32 32 30 30 31 32 36 36 32 35 40 35 37 46 32 31 46 65 53 48 39 54 56 42 40 47 44 48 44 45
16 15 14 13 15 16 17 18 22 22 21 24 28 30 27 28 30 24 25 35 35 32 32 26 28 39 38 36 40 46 54 58 58 42 43 45 50 50 45 40 45 42 47 48 51
15 13 12 13 15 16 17 18 22 21 18 25 24 29 23 30 24 27 29 36 33 32 34 30 29 36 46 43 42 51 49 39 38 35 38 40 52 41 38 38 46 42 38 33 31
13 12 11 12 15 16 17 18 18 21 23 22 19 24 18 17 25 25 32 31 31 34 37 34 32 40 44 53 46 41 32 40 41 36 31 41 53 47 34 34 33 41 38 37 31
12 11 11 12 14 16 18 19 19 19 19 15 10 10 19 33 41 35 19 27 39 33 34 31 45 45 45 48 46 44 43 37 36 31 38 44 30 47 44 39 42 34 33 37 30
10 9 10 12 14 15 15 16 18 17 15 7 13 14 24 31 41 29 31 25 24 30 26 30 45 34 38 45 45 48 43 36 33 30 17 21 29 32 30 38 34 40 34 28 30
7 8 10 12 12 14 12 14 15 14 2 4 8 12 25 26 14 32 30 25 26 21 19 19 29 36 42 48 40 41 45 36 39 36 14 15 6 23 41 33 22 25 28 32 30
7 9 10 11 11 11 11 11 11 8 4 6 7 19 17 20 31 33 26 23 21 24 22 33 39 40 32 37 31 41 40 34 38 35 15 7 6 26 24 39 36 29 32 29 21
7 10 10 10 8 8 9 8 6 4 3 6 17 18 21 24 30 34 20 12 20 21 24 31 32 31 21 25 29 37 41 30 22 15 3 17 18 18 24 42 36 31 36 30 22
9 9 9 8 6 7 7 7 3 4 10 14 21 19 16 27 27 35 27 14 16 18 23 32 40 30 15 15 25 36 31 9 2 2 4 14 16 30 11 30 32 34 29 26 28
7 7 6 6 6 3 3 1 4 4 9 15 14 16 19 28 27 34 32 28 14 19 27 18 33 29 9 4 17 31 27 9 2 5 4 9 11 20 17 22 14 21 28 28 30
7 6 6 7 6 0 1 7 4 6 10 12 14 15 21 23 25 23 31 21 29 31 18 16 18 16 17 9 7 24 23 18 1 3 3 11 13 8 14 13 14 22 32 27 29
6 5 9 6 2 1 3 6 2 4 8 8 12 13 19 26 26 23 26 20 34 34 16 15 17 25 11 4 13 21 26 13 4 1 4 5 9 10 7 21 29 35 33 25 27
6 3 2 3 2 2 8 3 4 4 6 7 9 12 15 23 24 18 20 18 29 35 31 18 10 18 16 3 6 13 19 7 5 7 1 2 4 10 9 28 23 29 29 24 22
5 4 1 3 6 8 4 5 5 1 4 5 7 9 12 19 19 16 18 18 25 25 30 24 7 20 16 12 5 7 20 17 8 5 4 9 3 9 9 25 26 32 22 16 19
6 3 1 5 8 3 2 0 3 2 2 4 6 10 10 15 14 19 19 22 22 24 23 29 12 12 17 11 8 14 10 20 18 12 5 3 6 5 13 18 17 20 23 23 21
6 6 5 8 6 6 3 2 4 6 5 6 7 10 11 13 9 18 24 21 26 17 18 21 12 9 6 14 21 20 9 15 16 11 6 2 6 9 13 15 5 21 19 13 12
6 6 7 3 8 10 8 4 3 3 6 4 7 10 12 16 20 20 25 24 22 6 10 16 17 17 16 17 18 4 8 4 10 5 9 4 5 3 7 8 14 11 2 8 11
8 9 12 7 0 6 2 3 2 4 9 6 8 14 16 12 17 28 28 20 23 14 13 13 15 20 14 13 4 11 0 8 5 5 6 3 10 10 10 7 4 5 11 15 20
8 8 10 9 7 3 3 3 4 8 5 9 15 15 15 16 23 24 20 12 19 21 14 9 14 18 7 14 9 12 11 7 18 10 1 4 6 5 10 7 7 3 10 13 12

GFSSW_700_spd_120.txt.gz
Wind_Speed
17 15 15 14 13 12 11 10 10 12 12 14 14 13 13 12 13 13 13 16 18 19 21 21 19 20 26 28 28 30 42 50 48 43 40 25 28 27 15 12 15 22 20 20 25
17 16 14 14 14 13 13 12 12 12 13 15 15 14 15 13 15 16 10 6 8 10 12 15 18 22 27 28 31 36 48 51 49 44 41 32 32 29 27 22 17 24 25 22 27
18 17 16 15 15 15 15 14 14 13 14 16 17 16 17 16 17 15 12 19 22 23 24 23 23 26 25 26 34 40 58 48 44 35 33 38 37 32 34 34 21 22 32 32 32
19 19 18 17 17 17 16 16 15 15 17 18 18 18 18 16 15 17 26 25 24 24 21 23 24 28 32 32 27 43 47 48 49 47 47 47 38 40 39 40 26 24 27 31 34
21 21 19 18 17 17 17 17 16 17 19 20 20 21 20 18 21 26 25 25 25 26 27 26 27 29 34 35 34 44 43 44 47 50 51 47 51 43 46 42 29 22 14 29 30
23 22 21 19 18 18 18 18 17 18 20 21 23 22 23 24 24 24 29 27 27 28 28 29 32 31 41 41 39 41 39 46 47 53 51 49 52 43 56 45 39 32 27 22 34
23 22 21 19 19 18 18 19 17 17 21 22 25 24 24 25 26 22 22 25 27 27 27 25 26 31 38 45 46 44 42 48 54 56 56 47 48 55 55 47 45 42 37 31 27
23 23 21 19 19 19 18 18 16 17 22 22 26 25 27 23 18 19 26 25 23 24 28 29 27 31 37 45 49 39 36 50 61 51 55 38 58 62 50 46 52 46 42 39 37
24 24 21 19 19 18 17 18 15 16 21 23 26 25 21 18 23 18 24 28 30 26 20 21 22 29 31 32 44 45 41 43 58 46 31 31 56 63 52 46 50 49 46 46 43
27 22 19 18 18 18 15 16 16 17 20 20 25 17 14 14 16 20 25 30 29 29 31 26 27 28 31 32 33 49 35 44 41 58 37 33 44 59 47 42 47 49 49 50 51
23 20 19 18 18 16 13 15 15 16 16 19 19 12 13 18 20 27 25 23 27 31 29 25 26 35 37 39 43 42 42 38 48 48 35 44 38 46 44 48 37 41 49 48 51
21 19 18 17 16 14 12 13 15 13 13 13 12 11 15 27 33 19 32 34 29 27 22 23 27 18 20 26 36 40 41 44 43 48 31 31 44 39 41 44 51 39 43 41 42
19 18 17 16 14 14 13 13 12 12 11 6 9 14 20 23 29 21 35 31 24 22 21 22 29 20 24 28 32 44 53 44 36 39 41 29 37 41 43 37 46 43 41 38 31
20 17 16 15 12 12 12 11 10 8 3 2 7 11 17 18 8 25 26 25 22 23 24 19 21 26 28 37 34 48 40 40 35 33 23 21 10 33 32 37 33 44 43 36 38
17 17 12 10 12 10 11 9 8 7 2 1 5 9 10 15 22 23 24 21 15 20 26 33 31 32 36 40 35 42 31 34 29 36 29 31 11 31 20 37 40 37 35 37 35
18 12 8 9 13 11 8 7 4 4 2 4 8 9 9 15 19 22 28 17 13 18 21 28 30 26 41 35 35 20 8 19 26 22 17 32 21 25 21 26 39 37 28 24 23
12 8 14 14 12 10 7 4 5 3 2 6 7 9 10 17 15 24 24 26 25 20 21 24 15 21 18 19 8 9 11 1 6 7 7 29 18 34 7 19 26 43 35 22 17
14 17 13 11 11 9 7 6 3 5 6 7 6 10 10 16 14 24 16 23 28 29 26 17 18 20 32 23 8 11 19 8 4 3 4 16 12 17 8 12 15 17 30 15 32
17 13 11 11 10 9 7 5 4 3 4 2 6 9 13 15 16 23 16 19 26 30 20 14 16 34 24 13 5 8 20 18 11 12 2 12 8 5 9 7 8 18 19 24 26
13 10 10 12 11 9 9 8 7 5 1 2 5 5 14 18 16 20 15 8 25 26 25 17 16 18 32 3 1 10 20 9 8 2 3 0 5 8 11 20 24 24 32 35 41
13 13 11 12 12 11 13 10 7 5 4 3 4 8 13 17 17 16 12 10 23 28 26 24 12 21 17 8 14 8 9 3 5 3 3 3 3 2 10 29 35 39 37 35 36
12 13 10 12 12 13 9 3 5 7 3 2 7 5 13 17 14 7 12 16 24 25 27 23 9 20 14 8 7 9 7 7 1 3 3 3 4 15 22 27 34 33 32 36 33
15 13 10 15 11 13 11 6 3 4 4 2 3 9 14 16 11 12 18 26 20 26 16 22 13 12 11 7 17 15 10 15 11 8 7 3 3 24 21 24 25 15 17 22 31
13 11 13 16 14 12 12 12 7 4 3 2 7 10 15 15 12 14 24 19 21 12 8 14 11 12 10 20 21 17 20 16 7 6 4 4 9 14 9 22 20 20 18 14 12
15 11 13 17 15 13 11 8 8 4 7 9 10 12 15 19 23 11 16 19 11 10 12 12 10 19 19 15 19 13 10 11 4 3 6 5 4 6 8 4 4 7 11 10 3
16 15 15 15 8 9 13 9 5 6 11 12 14 16 17 18 16 20 18 11 18 14 19 12 12 21 15 12 14 22 11 7 10 13 14 9 12 7 13 16 18 16 13 9 11
14 13 14 14 16 10 7 7 6 7 5 8 11 11 13 16 18 15 10 10 15 18 14 12 13 21 8 24 9 23 26 23 22 11 9 7 10 8 14 9 7 5 6 7 9

GFSSW_700_spd_123.txt.gz
Wind_Speed
19 19 17 16 15 14 14 14 15 15 15 14 14 15 12 13 14 13 14 16 19 19 18 17 18 22 24 27 29 32 40 52 50 46 47 28 31 30 30 31 21 14 14 15 28
19 19 18 17 16 16 15 16 16 17 16 14 13 15 12 12 15 14 17 13 8 10 11 14 16 19 23 25 30 35 47 51 50 48 46 39 36 33 35 31 31 20 14 17 23
21 20 19 19 18 17 18 18 19 18 18 15 14 15 13 15 16 17 12 12 19 22 23 23 25 27 27 25 30 38 51 47 49 48 46 46 43 35 41 42 34 28 22 22 20
24 23 22 20 20 19 20 20 20 20 18 17 15 15 14 16 13 11 17 25 27 24 23 22 23 24 29 32 32 41 44 46 47 45 47 50 48 43 41 46 38 36 27 24 21
25 24 24 23 22 22 22 22 21 21 20 18 17 16 16 17 19 22 23 25 26 26 26 25 25 28 33 34 34 41 46 45 48 49 50 49 51 50 50 49 41 40 33 24 20
30 28 26 25 24 24 23 22 22 22 20 18 19 18 18 20 20 22 23 25 25 24 25 25 26 27 35 39 38 44 46 49 50 52 51 49 53 47 58 49 49 43 41 30 23
33 30 29 27 26 26 23 22 22 22 21 20 20 19 21 21 21 24 21 23 23 25 24 21 23 26 28 35 32 39 49 52 56 54 51 47 57 61 59 47 50 50 46 39 29
32 32 31 28 28 26 23 21 22 22 22 21 20 20 22 20 18 19 23 22 22 23 24 23 23 26 26 28 35 39 41 50 59 46 33 21 64 65 52 50 54 52 48 48 41
30 32 29 29 28 25 22 21 22 23 21 21 20 19 20 12 12 16 20 21 23 20 18 22 25 24 25 27 34 28 35 42 58 43 41 46 60 69 33 31 55 54 53 53 50
32 29 31 30 27 25 22 21 21 21 20 20 20 12 11 12 13 18 21 18 21 22 20 19 23 24 25 20 28 29 29 38 41 53 37 46 45 57 55 37 38 53 55 55 55
29 30 31 31 26 23 22 20 19 19 19 18 17 15 13 13 14 20 15 23 23 22 21 18 20 25 23 18 22 29 32 37 40 40 55 58 57 50 57 48 39 40 50 56 54
27 30 31 28 24 20 19 18 17 16 18 17 14 9 11 16 17 12 23 25 23 20 15 18 25 15 19 22 23 29 37 42 42 45 44 54 51 45 50 48 42 43 44 48 45
28 31 28 26 22 19 17 16 14 16 14 13 11 8 10 16 19 16 23 25 23 16 13 19 21 18 20 25 28 38 39 42 44 50 43 42 57 49 43 42 46 40 43 46 36
32 30 27 25 21 18 14 12 15 12 8 9 6 3 9 14 5 15 21 21 20 16 19 13 20 25 28 32 29 41 33 38 43 40 24 22 23 31 42 33 40 40 40 41 45
29 27 26 22 18 16 14 12 11 6 1 5 4 5 6 11 17 10 14 17 14 14 17 19 24 23 24 24 27 41 32 31 24 23 28 39 24 33 30 28 28 24 27 37 38
28 26 23 20 17 14 11 8 8 6 5 8 5 7 10 13 10 8 10 18 9 21 17 27 17 18 18 26 21 19 20 17 15 20 11 41 12 27 29 20 25 26 23 25 33
27 26 21 17 16 10 8 9 6 6 6 6 7 7 8 11 4 8 11 20 23 18 34 24 21 14 17 28 26 12 6 4 4 3 6 10 13 36 6 17 13 21 30 23 19
29 23 19 17 12 12 11 11 7 7 7 4 5 6 3 9 3 10 13 16 21 24 24 18 20 15 16 24 23 17 12 6 4 3 6 8 9 16 12 10 4 9 20 21 20
25 20 17 14 13 14 14 12 5 10 7 5 5 2 3 7 5 10 10 6 14 22 22 14 17 31 17 27 15 3 15 14 12 22 6 6 7 6 10 8 15 18 25 29 28
21 17 12 14 16 15 16 12 9 9 5 4 1 0 5 11 7 10 6 7 13 20 20 21 25 11 28 9 11 12 4 3 9 5 4 3 4 7 7 25 30 39 39 38 37
20 14 17 17 15 16 16 13 12 7 8 4 0 1 7 11 13 11 4 12 11 24 24 15 12 24 20 12 16 15 14 7 8 7 4 3 4 7 15 18 27 38 40 43 45
22 18 18 16 18 18 16 12 10 9 6 4 3 3 6 9 10 9 6 10 17 22 16 11 10 17 19 7 14 10 6 12 6 6 7 9 3 16 22 30 34 33 30 28 29
22 20 19 20 18 20 17 14 12 10 5 5 6 6 8 9 9 6 14 19 16 12 12 16 8 12 13 10 13 24 15 16 10 10 3 4 4 8 19 31 29 29 33 32 31
24 16 19 22 20 21 17 15 13 8 7 6 4 7 8 9 9 10 22 13 7 4 10 13 11 10 9 24 29 25 12 11 4 4 6 0 7 11 17 21 13 11 15 15 15
21 15 18 25 23 20 17 15 14 14 12 10 6 9 14 13 20 4 16 14 2 6 11 18 12 13 19 7 24 10 9 6 12 12 3 10 13 13 19 19 18 21 16 7 7
20 15 20 19 18 19 18 15 15 13 12 10 11 12 13 15 13 17 15 8 10 14 16 13 9 18 1 13 8 32 25 13 9 14 11 10 16 10 10 10 12 17 20 15 15
17 13 18 21 18 17 17 20 15 13 9 11 11 10 8 8 11 9 8 1 9 15 14 7 12 19 7 18 4 10 22 25 24 12 5 9 11 8 9 10 10 11 12 14 11

GFSSW_700_spd_126.txt.gz
Wind_Speed
22 21 19 17 17 18 17 17 16 15 15 14 14 14 13 16 16 16 16 16 16 16 15 15 17 18 21 22 25 29 36 45 43 40 42 35 33 34 35 38 32 28 26 17 17
22 20 20 18 18 19 19 18 18 17 16 16 16 15 15 15 17 17 17 17 18 12 10 12 15 17 18 22 26 30 40 42 40 38 39 36 35 37 40 40 40 31 28 25 22
24 20 19 20 20 20 20 20 20 19 18 18 17 16 15 16 17 19 20 18 15 15 19 23 25 25 27 28 27 33 42 38 41 41 40 41 40 37 41 49 42 32 32 31 27
23 23 20 20 21 23 22 23 22 21 20 19 17 16 16 16 12 11 13 16 20 25 25 24 24 24 25 27 29 37 39 40 44 42 43 44 44 43 41 52 43 38 34 37 30
25 26 22 21 23 24 24 25 24 23 21 20 18 17 17 19 19 21 22 23 23 25 24 25 25 26 28 29 30 36 40 40 43 45 45 47 47 48 50 46 42 47 38 37 33
25 26 26 26 25 25 26 26 26 24 23 22 19 18 18 21 21 20 22 23 24 23 24 23 24 25 28 29 29 36 41 44 45 47 49 50 53 48 55 45 47 46 46 44 41
27 26 28 28 28 27 28 28 27 25 24 22 20 19 19 22 20 23 22 20 21 21 20 22 23 23 26 28 27 30 41 43 43 41 38 39 56 58 55 51 51 47 46 49 49
29 25 25 28 29 30 29 29 27 26 24 22 20 20 21 21 23 23 20 19 19 20 19 21 24 24 25 26 30 33 35 41 30 38 43 33 62 51 48 50 51 51 55 52 52
25 28 28 27 30 30 29 30 27 24 23 22 21 20 20 19 16 17 18 20 19 19 20 19 22 21 22 23 26 24 30 37 44 28 35 29 47 47 36 42 48 47 55 57 55
34 29 30 29 29 27 27 29 26 23 22 21 22 17 14 12 14 18 19 18 17 18 17 16 18 17 15 16 15 22 27 32 40 46 40 43 52 57 52 51 56 60 56 53 59
34 40 33 30 28 26 28 28 25 22 20 20 16 15 16 13 13 16 18 17 18 14 17 15 15 16 12 15 17 24 29 35 42 40 49 49 52 52 58 56 59 57 58 55 56
44 33 33 31 28 26 28 25 22 20 16 16 15 14 13 9 11 14 19 19 17 14 15 15 16 9 9 13 17 24 30 42 46 44 42 51 58 57 58 61 57 59 54 55 58
41 38 33 30 26 26 24 22 20 17 15 14 13 12 9 9 11 11 18 18 16 13 12 16 12 10 13 16 22 29 31 40 40 39 40 48 52 61 56 48 54 48 51 46 51
42 36 36 29 25 25 23 21 17 13 8 8 13 8 8 8 5 12 16 15 14 11 15 9 14 17 18 19 13 29 23 28 28 29 26 34 19 62 59 49 43 40 32 35 45
37 37 32 28 23 23 21 18 13 10 1 7 9 9 7 8 10 9 10 11 10 12 13 13 19 18 20 11 13 31 27 29 24 26 29 48 16 45 46 51 39 29 33 39 42
35 36 29 26 22 23 20 16 12 10 4 8 9 8 7 9 6 4 7 13 7 15 9 15 9 10 12 13 17 28 23 22 17 17 7 24 13 47 28 25 23 25 24 26 37
35 32 26 25 23 22 19 16 11 6 7 8 10 9 7 6 3 3 8 10 17 16 29 18 5 11 10 18 23 15 21 7 5 1 7 19 24 29 37 30 19 18 14 17 26
32 29 29 27 25 22 19 18 6 9 12 9 10 7 3 2 2 3 6 8 12 22 23 16 8 15 22 21 22 27 17 3 5 5 18 38 8 17 14 9 5 13 10 12 31
33 31 28 27 24 21 21 15 7 11 13 11 8 5 6 3 3 3 5 5 13 18 18 11 11 18 13 22 9 4 6 13 12 19 9 9 10 14 2 7 7 11 21 22 23
30 27 27 25 24 21 21 11 9 10 11 12 8 5 3 2 2 5 1 2 8 13 18 10 16 11 25 13 11 8 7 4 6 4 5 5 9 30 7 8 13 25 31 33 32
29 31 27 24 23 24 19 12 14 13 11 10 9 7 2 2 4 6 2 3 9 16 16 12 8 20 19 12 14 18 9 9 10 8 4 5 5 21 17 7 14 15 21 32 35
31 26 27 26 24 22 17 15 14 13 11 8 7 7 6 3 4 4 5 5 13 16 14 9 9 14 24 6 9 15 21 17 7 5 11 9 7 16 9 15 17 20 19 20 22
31 26 22 20 21 22 19 15 15 14 11 9 8 9 4 4 4 4 5 10 8 10 8 13 6 12 14 5 17 25 16 16 17 11 7 6 6 15 13 16 17 17 18 20 20
28 19 25 25 22 22 23 19 19 14 10 9 8 7 5 4 6 6 10 3 8 5 6 11 13 12 11 20 18 28 13 10 5 6 12 9 12 15 19 20 19 14 12 11 12
25 19 23 29 23 24 22 21 20 15 11 10 7 5 6 6 10 2 4 4 3 2 11 16 14 11 17 8 5 21 20 9 12 11 5 6 20 15 18 18 20 19 16 15 13
25 21 22 19 22 24 21 18 18 17 11 13 10 9 9 10 7 8 4 3 5 6 14 11 7 16 6 7 15 9 18 23 17 12 10 9 20 17 20 17 16 18 18 17 13
22 15 21 24 24 23 21 19 19 15 12 10 10 10 9 10 9 7 5 3 4 8 15 8 10 15 5 14 7 2 21 14 22 22 16 17 13 16 18 16 18 17 14 12 12